<?xml version="1.0" encoding="UTF-8" standalone="no" ?>
<gpx xmlns="http://www.topografix.com/GPX/1/1" xmlns:xsi="http://www.w3.org/2001/XMLSchema-instance" xsi:schemaLocation="http://www.topografix.com/GPX/1/1 http://www.topografix.com/GPX/1/1/gpx.xsd" version="1.1" creator="VisuGPX - https://www.visugpx.com">
  <metadata>
    <name>Cassis Calanque D\'En Vau</name>
    <desc><![CDATA[tres belle rondo. Paysage magnifique.
A faire avant les grandes chaleurs ou de tres bonnes heures]]></desc>
  </metadata>
  <wpt lat="43.20993" lon="5.5223">
    <ele>46.734375</ele>
    <name><![CDATA[Depart Calanques]]></name>
    <desc><![CDATA[Route]]></desc>
    <cmt><![CDATA[Route]]></cmt>
  </wpt>
  <trk>
    <name><![CDATA[13 Cassis Calanques D'En Vau]]></name>
    <trkseg>
      <trkpt lat="43.21003" lon="5.52209">
        <ele>39.55</ele>
        <time>2012-05-26T07:10:06Z</time>
      </trkpt>
      <trkpt lat="43.20999" lon="5.52214">
        <ele>39.07</ele>
        <time>2012-05-26T07:10:10Z</time>
      </trkpt>
      <trkpt lat="43.21005" lon="5.52218">
        <ele>40.51</ele>
        <time>2012-05-26T07:10:15Z</time>
      </trkpt>
      <trkpt lat="43.21009" lon="5.52229">
        <ele>42.44</ele>
        <time>2012-05-26T07:10:20Z</time>
      </trkpt>
      <trkpt lat="43.21013" lon="5.52239">
        <ele>44.84</ele>
        <time>2012-05-26T07:10:27Z</time>
      </trkpt>
      <trkpt lat="43.21016" lon="5.52244">
        <ele>45.32</ele>
        <time>2012-05-26T07:10:31Z</time>
      </trkpt>
      <trkpt lat="43.21018" lon="5.52255">
        <ele>48.68</ele>
        <time>2012-05-26T07:10:38Z</time>
      </trkpt>
      <trkpt lat="43.2102" lon="5.52267">
        <ele>48.2</ele>
        <time>2012-05-26T07:10:45Z</time>
      </trkpt>
      <trkpt lat="43.2103" lon="5.52279">
        <ele>49.65</ele>
        <time>2012-05-26T07:10:57Z</time>
      </trkpt>
      <trkpt lat="43.21034" lon="5.52279">
        <ele>53.01</ele>
        <time>2012-05-26T07:11:18Z</time>
      </trkpt>
      <trkpt lat="43.2104" lon="5.52285">
        <ele>55.89</ele>
        <time>2012-05-26T07:12:05Z</time>
      </trkpt>
      <trkpt lat="43.2105" lon="5.52291">
        <ele>56.37</ele>
        <time>2012-05-26T07:12:14Z</time>
      </trkpt>
      <trkpt lat="43.21059" lon="5.52295">
        <ele>56.86</ele>
        <time>2012-05-26T07:12:22Z</time>
      </trkpt>
      <trkpt lat="43.2106" lon="5.52295">
        <ele>56.86</ele>
        <time>2012-05-26T07:12:23Z</time>
      </trkpt>
      <trkpt lat="43.21067" lon="5.52295">
        <ele>57.34</ele>
        <time>2012-05-26T07:12:27Z</time>
      </trkpt>
      <trkpt lat="43.2107" lon="5.52294">
        <ele>56.86</ele>
        <time>2012-05-26T07:12:29Z</time>
      </trkpt>
      <trkpt lat="43.21072" lon="5.52293">
        <ele>57.34</ele>
        <time>2012-05-26T07:12:33Z</time>
      </trkpt>
      <trkpt lat="43.21078" lon="5.523">
        <ele>56.86</ele>
        <time>2012-05-26T07:12:37Z</time>
      </trkpt>
      <trkpt lat="43.21084" lon="5.52311">
        <ele>53.97</ele>
        <time>2012-05-26T07:12:49Z</time>
      </trkpt>
      <trkpt lat="43.21085" lon="5.52312">
        <ele>53.97</ele>
        <time>2012-05-26T07:12:50Z</time>
      </trkpt>
      <trkpt lat="43.21098" lon="5.52306">
        <ele>51.09</ele>
        <time>2012-05-26T07:13:01Z</time>
      </trkpt>
      <trkpt lat="43.21098" lon="5.52306">
        <ele>51.09</ele>
        <time>2012-05-26T07:13:03Z</time>
      </trkpt>
      <trkpt lat="43.21102" lon="5.52296">
        <ele>49.65</ele>
        <time>2012-05-26T07:13:11Z</time>
      </trkpt>
      <trkpt lat="43.21105" lon="5.52287">
        <ele>46.76</ele>
        <time>2012-05-26T07:13:21Z</time>
      </trkpt>
      <trkpt lat="43.21106" lon="5.52284">
        <ele>46.28</ele>
        <time>2012-05-26T07:13:24Z</time>
      </trkpt>
      <trkpt lat="43.21112" lon="5.52281">
        <ele>44.84</ele>
        <time>2012-05-26T07:13:30Z</time>
      </trkpt>
      <trkpt lat="43.21119" lon="5.52274">
        <ele>43.4</ele>
        <time>2012-05-26T07:13:37Z</time>
      </trkpt>
      <trkpt lat="43.2112" lon="5.52274">
        <ele>42.44</ele>
        <time>2012-05-26T07:13:40Z</time>
      </trkpt>
      <trkpt lat="43.21122" lon="5.52271">
        <ele>41.95</ele>
        <time>2012-05-26T07:13:42Z</time>
      </trkpt>
      <trkpt lat="43.21124" lon="5.52272">
        <ele>40.99</ele>
        <time>2012-05-26T07:13:45Z</time>
      </trkpt>
      <trkpt lat="43.21127" lon="5.52269">
        <ele>38.59</ele>
        <time>2012-05-26T07:13:53Z</time>
      </trkpt>
      <trkpt lat="43.21129" lon="5.5226">
        <ele>37.15</ele>
        <time>2012-05-26T07:14:01Z</time>
      </trkpt>
      <trkpt lat="43.2113" lon="5.52257">
        <ele>35.71</ele>
        <time>2012-05-26T07:14:04Z</time>
      </trkpt>
      <trkpt lat="43.21136" lon="5.52259">
        <ele>33.78</ele>
        <time>2012-05-26T07:14:13Z</time>
      </trkpt>
      <trkpt lat="43.21138" lon="5.52261">
        <ele>33.3</ele>
        <time>2012-05-26T07:14:16Z</time>
      </trkpt>
      <trkpt lat="43.21142" lon="5.52248">
        <ele>31.38</ele>
        <time>2012-05-26T07:14:26Z</time>
      </trkpt>
      <trkpt lat="43.21144" lon="5.52232">
        <ele>30.42</ele>
        <time>2012-05-26T07:14:37Z</time>
      </trkpt>
      <trkpt lat="43.21144" lon="5.52225">
        <ele>29.46</ele>
        <time>2012-05-26T07:14:41Z</time>
      </trkpt>
      <trkpt lat="43.2115" lon="5.52207">
        <ele>28.5</ele>
        <time>2012-05-26T07:14:56Z</time>
      </trkpt>
      <trkpt lat="43.21156" lon="5.52203">
        <ele>28.02</ele>
        <time>2012-05-26T07:15:09Z</time>
      </trkpt>
      <trkpt lat="43.21158" lon="5.52203">
        <ele>28.02</ele>
        <time>2012-05-26T07:15:18Z</time>
      </trkpt>
      <trkpt lat="43.21166" lon="5.52206">
        <ele>26.57</ele>
        <time>2012-05-26T07:15:31Z</time>
      </trkpt>
      <trkpt lat="43.21165" lon="5.52206">
        <ele>26.09</ele>
        <time>2012-05-26T07:16:03Z</time>
      </trkpt>
      <trkpt lat="43.21165" lon="5.52206">
        <ele>27.05</ele>
        <time>2012-05-26T07:17:20Z</time>
      </trkpt>
      <trkpt lat="43.2117" lon="5.52209">
        <ele>26.57</ele>
        <time>2012-05-26T07:17:26Z</time>
      </trkpt>
      <trkpt lat="43.21174" lon="5.52211">
        <ele>24.65</ele>
        <time>2012-05-26T07:17:29Z</time>
      </trkpt>
      <trkpt lat="43.21197" lon="5.52222">
        <ele>22.73</ele>
        <time>2012-05-26T07:17:49Z</time>
      </trkpt>
      <trkpt lat="43.21211" lon="5.52215">
        <ele>23.21</ele>
        <time>2012-05-26T07:18:03Z</time>
      </trkpt>
      <trkpt lat="43.21212" lon="5.52215">
        <ele>21.77</ele>
        <time>2012-05-26T07:18:06Z</time>
      </trkpt>
      <trkpt lat="43.21214" lon="5.52211">
        <ele>21.29</ele>
        <time>2012-05-26T07:18:27Z</time>
      </trkpt>
      <trkpt lat="43.21211" lon="5.52202">
        <ele>20.81</ele>
        <time>2012-05-26T07:18:45Z</time>
      </trkpt>
      <trkpt lat="43.21209" lon="5.52201">
        <ele>19.84</ele>
        <time>2012-05-26T07:18:57Z</time>
      </trkpt>
      <trkpt lat="43.2121" lon="5.52201">
        <ele>19.84</ele>
        <time>2012-05-26T07:19:16Z</time>
      </trkpt>
      <trkpt lat="43.21208" lon="5.52197">
        <ele>20.32</ele>
        <time>2012-05-26T07:19:25Z</time>
      </trkpt>
      <trkpt lat="43.21204" lon="5.52193">
        <ele>19.84</ele>
        <time>2012-05-26T07:19:29Z</time>
      </trkpt>
      <trkpt lat="43.21194" lon="5.52178">
        <ele>19.36</ele>
        <time>2012-05-26T07:19:37Z</time>
      </trkpt>
      <trkpt lat="43.2119" lon="5.52175">
        <ele>18.88</ele>
        <time>2012-05-26T07:19:40Z</time>
      </trkpt>
      <trkpt lat="43.21189" lon="5.52173">
        <ele>18.88</ele>
        <time>2012-05-26T07:19:42Z</time>
      </trkpt>
      <trkpt lat="43.21177" lon="5.52148">
        <ele>17.92</ele>
        <time>2012-05-26T07:19:57Z</time>
      </trkpt>
      <trkpt lat="43.21166" lon="5.52125">
        <ele>17.44</ele>
        <time>2012-05-26T07:20:10Z</time>
      </trkpt>
      <trkpt lat="43.2116" lon="5.5211">
        <ele>17.92</ele>
        <time>2012-05-26T07:20:24Z</time>
      </trkpt>
      <trkpt lat="43.21159" lon="5.52108">
        <ele>16.96</ele>
        <time>2012-05-26T07:20:28Z</time>
      </trkpt>
      <trkpt lat="43.21156" lon="5.52106">
        <ele>16.96</ele>
        <time>2012-05-26T07:20:30Z</time>
      </trkpt>
      <trkpt lat="43.21145" lon="5.52098">
        <ele>17.92</ele>
        <time>2012-05-26T07:20:43Z</time>
      </trkpt>
      <trkpt lat="43.21139" lon="5.5209">
        <ele>17.44</ele>
        <time>2012-05-26T07:20:48Z</time>
      </trkpt>
      <trkpt lat="43.21132" lon="5.52085">
        <ele>17.44</ele>
        <time>2012-05-26T07:20:53Z</time>
      </trkpt>
      <trkpt lat="43.21129" lon="5.52085">
        <ele>17.44</ele>
        <time>2012-05-26T07:20:55Z</time>
      </trkpt>
      <trkpt lat="43.21125" lon="5.52083">
        <ele>17.44</ele>
        <time>2012-05-26T07:20:58Z</time>
      </trkpt>
      <trkpt lat="43.21124" lon="5.52078">
        <ele>16.96</ele>
        <time>2012-05-26T07:21:01Z</time>
      </trkpt>
      <trkpt lat="43.21121" lon="5.52071">
        <ele>16.48</ele>
        <time>2012-05-26T07:21:05Z</time>
      </trkpt>
      <trkpt lat="43.21106" lon="5.52059">
        <ele>16.48</ele>
        <time>2012-05-26T07:21:18Z</time>
      </trkpt>
      <trkpt lat="43.21096" lon="5.52046">
        <ele>16.48</ele>
        <time>2012-05-26T07:21:31Z</time>
      </trkpt>
      <trkpt lat="43.21093" lon="5.52042">
        <ele>16.48</ele>
        <time>2012-05-26T07:21:33Z</time>
      </trkpt>
      <trkpt lat="43.21087" lon="5.52037">
        <ele>16</ele>
        <time>2012-05-26T07:21:38Z</time>
      </trkpt>
      <trkpt lat="43.21078" lon="5.52024">
        <ele>16.48</ele>
        <time>2012-05-26T07:21:47Z</time>
      </trkpt>
      <trkpt lat="43.21072" lon="5.52017">
        <ele>16.48</ele>
        <time>2012-05-26T07:21:53Z</time>
      </trkpt>
      <trkpt lat="43.21061" lon="5.52006">
        <ele>16</ele>
        <time>2012-05-26T07:22:03Z</time>
      </trkpt>
      <trkpt lat="43.21056" lon="5.52">
        <ele>16.48</ele>
        <time>2012-05-26T07:22:10Z</time>
      </trkpt>
      <trkpt lat="43.21048" lon="5.51992">
        <ele>16</ele>
        <time>2012-05-26T07:22:16Z</time>
      </trkpt>
      <trkpt lat="43.21034" lon="5.51982">
        <ele>16.48</ele>
        <time>2012-05-26T07:22:28Z</time>
      </trkpt>
      <trkpt lat="43.21028" lon="5.51977">
        <ele>16</ele>
        <time>2012-05-26T07:22:35Z</time>
      </trkpt>
      <trkpt lat="43.21023" lon="5.51973">
        <ele>16</ele>
        <time>2012-05-26T07:22:41Z</time>
      </trkpt>
      <trkpt lat="43.21014" lon="5.51963">
        <ele>15.52</ele>
        <time>2012-05-26T07:22:54Z</time>
      </trkpt>
      <trkpt lat="43.21003" lon="5.51951">
        <ele>16</ele>
        <time>2012-05-26T07:23:09Z</time>
      </trkpt>
      <trkpt lat="43.21" lon="5.51946">
        <ele>15.52</ele>
        <time>2012-05-26T07:23:14Z</time>
      </trkpt>
      <trkpt lat="43.20995" lon="5.5195">
        <ele>16</ele>
        <time>2012-05-26T07:23:28Z</time>
      </trkpt>
      <trkpt lat="43.20995" lon="5.51949">
        <ele>15.52</ele>
        <time>2012-05-26T07:23:34Z</time>
      </trkpt>
      <trkpt lat="43.20983" lon="5.5194">
        <ele>15.04</ele>
        <time>2012-05-26T07:23:42Z</time>
      </trkpt>
      <trkpt lat="43.20977" lon="5.51933">
        <ele>15.04</ele>
        <time>2012-05-26T07:23:47Z</time>
      </trkpt>
      <trkpt lat="43.2097" lon="5.51921">
        <ele>15.52</ele>
        <time>2012-05-26T07:23:57Z</time>
      </trkpt>
      <trkpt lat="43.20958" lon="5.51915">
        <ele>16</ele>
        <time>2012-05-26T07:24:07Z</time>
      </trkpt>
      <trkpt lat="43.20945" lon="5.51895">
        <ele>15.52</ele>
        <time>2012-05-26T07:24:21Z</time>
      </trkpt>
      <trkpt lat="43.20943" lon="5.51895">
        <ele>15.52</ele>
        <time>2012-05-26T07:24:23Z</time>
      </trkpt>
      <trkpt lat="43.20922" lon="5.51891">
        <ele>15.04</ele>
        <time>2012-05-26T07:24:37Z</time>
      </trkpt>
      <trkpt lat="43.20907" lon="5.51872">
        <ele>15.52</ele>
        <time>2012-05-26T07:24:54Z</time>
      </trkpt>
      <trkpt lat="43.20906" lon="5.51867">
        <ele>15.04</ele>
        <time>2012-05-26T07:24:56Z</time>
      </trkpt>
      <trkpt lat="43.209" lon="5.51836">
        <ele>15.04</ele>
        <time>2012-05-26T07:25:09Z</time>
      </trkpt>
      <trkpt lat="43.20888" lon="5.51819">
        <ele>15.04</ele>
        <time>2012-05-26T07:25:24Z</time>
      </trkpt>
      <trkpt lat="43.20878" lon="5.51803">
        <ele>15.52</ele>
        <time>2012-05-26T07:25:35Z</time>
      </trkpt>
      <trkpt lat="43.20862" lon="5.51777">
        <ele>15.52</ele>
        <time>2012-05-26T07:25:52Z</time>
      </trkpt>
      <trkpt lat="43.20855" lon="5.51759">
        <ele>16</ele>
        <time>2012-05-26T07:26:03Z</time>
      </trkpt>
      <trkpt lat="43.20852" lon="5.51754">
        <ele>15.52</ele>
        <time>2012-05-26T07:26:07Z</time>
      </trkpt>
      <trkpt lat="43.20841" lon="5.51741">
        <ele>16</ele>
        <time>2012-05-26T07:26:17Z</time>
      </trkpt>
      <trkpt lat="43.20834" lon="5.51726">
        <ele>15.52</ele>
        <time>2012-05-26T07:26:28Z</time>
      </trkpt>
      <trkpt lat="43.20832" lon="5.51722">
        <ele>15.04</ele>
        <time>2012-05-26T07:26:31Z</time>
      </trkpt>
      <trkpt lat="43.2083" lon="5.51717">
        <ele>15.52</ele>
        <time>2012-05-26T07:26:35Z</time>
      </trkpt>
      <trkpt lat="43.20827" lon="5.51708">
        <ele>15.04</ele>
        <time>2012-05-26T07:26:42Z</time>
      </trkpt>
      <trkpt lat="43.20822" lon="5.51699">
        <ele>15.04</ele>
        <time>2012-05-26T07:26:49Z</time>
      </trkpt>
      <trkpt lat="43.20819" lon="5.51683">
        <ele>15.04</ele>
        <time>2012-05-26T07:26:58Z</time>
      </trkpt>
      <trkpt lat="43.20808" lon="5.51665">
        <ele>15.52</ele>
        <time>2012-05-26T07:27:10Z</time>
      </trkpt>
      <trkpt lat="43.20807" lon="5.51663">
        <ele>10.71</ele>
        <time>2012-05-26T07:27:12Z</time>
      </trkpt>
      <trkpt lat="43.20806" lon="5.51662">
        <ele>0.62</ele>
        <time>2012-05-26T07:27:13Z</time>
      </trkpt>
      <trkpt lat="43.20806" lon="5.51662">
        <ele>12.63</ele>
        <time>2012-05-26T07:27:14Z</time>
      </trkpt>
      <trkpt lat="43.20804" lon="5.5166">
        <ele>15.04</ele>
        <time>2012-05-26T07:27:16Z</time>
      </trkpt>
      <trkpt lat="43.20803" lon="5.51658">
        <ele>15.04</ele>
        <time>2012-05-26T07:27:18Z</time>
      </trkpt>
      <trkpt lat="43.20804" lon="5.5165">
        <ele>14.56</ele>
        <time>2012-05-26T07:27:21Z</time>
      </trkpt>
      <trkpt lat="43.20795" lon="5.51637">
        <ele>14.56</ele>
        <time>2012-05-26T07:27:29Z</time>
      </trkpt>
      <trkpt lat="43.20787" lon="5.5162">
        <ele>15.04</ele>
        <time>2012-05-26T07:27:40Z</time>
      </trkpt>
      <trkpt lat="43.20784" lon="5.51614">
        <ele>15.04</ele>
        <time>2012-05-26T07:27:46Z</time>
      </trkpt>
      <trkpt lat="43.20774" lon="5.51601">
        <ele>15.04</ele>
        <time>2012-05-26T07:27:59Z</time>
      </trkpt>
      <trkpt lat="43.20759" lon="5.51591">
        <ele>14.56</ele>
        <time>2012-05-26T07:28:10Z</time>
      </trkpt>
      <trkpt lat="43.20753" lon="5.5158">
        <ele>14.56</ele>
        <time>2012-05-26T07:28:19Z</time>
      </trkpt>
      <trkpt lat="43.20748" lon="5.51568">
        <ele>15.04</ele>
        <time>2012-05-26T07:28:28Z</time>
      </trkpt>
      <trkpt lat="43.20742" lon="5.51562">
        <ele>14.08</ele>
        <time>2012-05-26T07:28:34Z</time>
      </trkpt>
      <trkpt lat="43.20729" lon="5.51551">
        <ele>14.56</ele>
        <time>2012-05-26T07:28:44Z</time>
      </trkpt>
      <trkpt lat="43.20726" lon="5.51546">
        <ele>14.08</ele>
        <time>2012-05-26T07:28:49Z</time>
      </trkpt>
      <trkpt lat="43.20717" lon="5.51535">
        <ele>14.56</ele>
        <time>2012-05-26T07:28:57Z</time>
      </trkpt>
      <trkpt lat="43.20708" lon="5.51521">
        <ele>14.56</ele>
        <time>2012-05-26T07:29:08Z</time>
      </trkpt>
      <trkpt lat="43.20704" lon="5.51517">
        <ele>15.04</ele>
        <time>2012-05-26T07:29:13Z</time>
      </trkpt>
      <trkpt lat="43.20689" lon="5.51509">
        <ele>14.56</ele>
        <time>2012-05-26T07:29:25Z</time>
      </trkpt>
      <trkpt lat="43.20676" lon="5.51501">
        <ele>14.08</ele>
        <time>2012-05-26T07:29:35Z</time>
      </trkpt>
      <trkpt lat="43.20665" lon="5.51497">
        <ele>14.56</ele>
        <time>2012-05-26T07:29:47Z</time>
      </trkpt>
      <trkpt lat="43.20649" lon="5.51493">
        <ele>14.56</ele>
        <time>2012-05-26T07:29:58Z</time>
      </trkpt>
      <trkpt lat="43.20635" lon="5.51493">
        <ele>14.56</ele>
        <time>2012-05-26T07:30:10Z</time>
      </trkpt>
      <trkpt lat="43.2062" lon="5.51489">
        <ele>14.08</ele>
        <time>2012-05-26T07:30:22Z</time>
      </trkpt>
      <trkpt lat="43.20613" lon="5.51483">
        <ele>14.08</ele>
        <time>2012-05-26T07:30:29Z</time>
      </trkpt>
      <trkpt lat="43.20611" lon="5.5148">
        <ele>14.08</ele>
        <time>2012-05-26T07:30:32Z</time>
      </trkpt>
      <trkpt lat="43.20597" lon="5.51476">
        <ele>14.08</ele>
        <time>2012-05-26T07:30:46Z</time>
      </trkpt>
      <trkpt lat="43.20583" lon="5.51472">
        <ele>14.08</ele>
        <time>2012-05-26T07:30:55Z</time>
      </trkpt>
      <trkpt lat="43.20579" lon="5.51467">
        <ele>14.56</ele>
        <time>2012-05-26T07:30:59Z</time>
      </trkpt>
      <trkpt lat="43.20575" lon="5.51459">
        <ele>15.04</ele>
        <time>2012-05-26T07:31:05Z</time>
      </trkpt>
      <trkpt lat="43.20571" lon="5.51449">
        <ele>15.52</ele>
        <time>2012-05-26T07:31:12Z</time>
      </trkpt>
      <trkpt lat="43.20572" lon="5.51434">
        <ele>16</ele>
        <time>2012-05-26T07:31:24Z</time>
      </trkpt>
      <trkpt lat="43.20572" lon="5.51432">
        <ele>16.48</ele>
        <time>2012-05-26T07:31:25Z</time>
      </trkpt>
      <trkpt lat="43.20572" lon="5.51425">
        <ele>16.96</ele>
        <time>2012-05-26T07:31:36Z</time>
      </trkpt>
      <trkpt lat="43.20574" lon="5.51413">
        <ele>18.4</ele>
        <time>2012-05-26T07:31:57Z</time>
      </trkpt>
      <trkpt lat="43.20571" lon="5.51391">
        <ele>20.32</ele>
        <time>2012-05-26T07:32:12Z</time>
      </trkpt>
      <trkpt lat="43.20571" lon="5.51386">
        <ele>20.32</ele>
        <time>2012-05-26T07:32:15Z</time>
      </trkpt>
      <trkpt lat="43.2057" lon="5.5137">
        <ele>22.25</ele>
        <time>2012-05-26T07:32:25Z</time>
      </trkpt>
      <trkpt lat="43.20565" lon="5.51355">
        <ele>24.17</ele>
        <time>2012-05-26T07:32:39Z</time>
      </trkpt>
      <trkpt lat="43.20561" lon="5.51347">
        <ele>23.69</ele>
        <time>2012-05-26T07:32:44Z</time>
      </trkpt>
      <trkpt lat="43.20557" lon="5.51343">
        <ele>24.17</ele>
        <time>2012-05-26T07:32:48Z</time>
      </trkpt>
      <trkpt lat="43.20553" lon="5.51338">
        <ele>24.17</ele>
        <time>2012-05-26T07:32:52Z</time>
      </trkpt>
      <trkpt lat="43.20552" lon="5.51335">
        <ele>24.65</ele>
        <time>2012-05-26T07:32:54Z</time>
      </trkpt>
      <trkpt lat="43.20548" lon="5.5133">
        <ele>25.13</ele>
        <time>2012-05-26T07:32:59Z</time>
      </trkpt>
      <trkpt lat="43.20543" lon="5.51325">
        <ele>25.13</ele>
        <time>2012-05-26T07:33:13Z</time>
      </trkpt>
      <trkpt lat="43.20543" lon="5.51324">
        <ele>25.13</ele>
        <time>2012-05-26T07:33:23Z</time>
      </trkpt>
      <trkpt lat="43.20543" lon="5.51321">
        <ele>25.61</ele>
        <time>2012-05-26T07:33:39Z</time>
      </trkpt>
      <trkpt lat="43.20542" lon="5.51323">
        <ele>25.61</ele>
        <time>2012-05-26T07:33:52Z</time>
      </trkpt>
      <trkpt lat="43.20545" lon="5.51322">
        <ele>25.61</ele>
        <time>2012-05-26T07:34:38Z</time>
      </trkpt>
      <trkpt lat="43.20547" lon="5.51318">
        <ele>24.17</ele>
        <time>2012-05-26T07:34:47Z</time>
      </trkpt>
      <trkpt lat="43.20549" lon="5.51307">
        <ele>23.21</ele>
        <time>2012-05-26T07:34:52Z</time>
      </trkpt>
      <trkpt lat="43.20549" lon="5.51291">
        <ele>21.77</ele>
        <time>2012-05-26T07:35:00Z</time>
      </trkpt>
      <trkpt lat="43.20539" lon="5.51277">
        <ele>21.29</ele>
        <time>2012-05-26T07:35:13Z</time>
      </trkpt>
      <trkpt lat="43.20538" lon="5.51277">
        <ele>20.81</ele>
        <time>2012-05-26T07:35:14Z</time>
      </trkpt>
      <trkpt lat="43.20536" lon="5.51279">
        <ele>19.84</ele>
        <time>2012-05-26T07:35:17Z</time>
      </trkpt>
      <trkpt lat="43.20533" lon="5.51274">
        <ele>19.36</ele>
        <time>2012-05-26T07:35:21Z</time>
      </trkpt>
      <trkpt lat="43.20527" lon="5.51269">
        <ele>19.36</ele>
        <time>2012-05-26T07:35:26Z</time>
      </trkpt>
      <trkpt lat="43.20521" lon="5.5126">
        <ele>19.36</ele>
        <time>2012-05-26T07:35:35Z</time>
      </trkpt>
      <trkpt lat="43.20514" lon="5.51249">
        <ele>19.84</ele>
        <time>2012-05-26T07:35:47Z</time>
      </trkpt>
      <trkpt lat="43.20511" lon="5.51248">
        <ele>18.88</ele>
        <time>2012-05-26T07:35:51Z</time>
      </trkpt>
      <trkpt lat="43.205" lon="5.5124">
        <ele>18.4</ele>
        <time>2012-05-26T07:36:04Z</time>
      </trkpt>
      <trkpt lat="43.20499" lon="5.51237">
        <ele>18.88</ele>
        <time>2012-05-26T07:36:06Z</time>
      </trkpt>
      <trkpt lat="43.20493" lon="5.51225">
        <ele>19.36</ele>
        <time>2012-05-26T07:36:17Z</time>
      </trkpt>
      <trkpt lat="43.20491" lon="5.51217">
        <ele>20.32</ele>
        <time>2012-05-26T07:36:24Z</time>
      </trkpt>
      <trkpt lat="43.20496" lon="5.51209">
        <ele>22.73</ele>
        <time>2012-05-26T07:36:35Z</time>
      </trkpt>
      <trkpt lat="43.20495" lon="5.51199">
        <ele>24.17</ele>
        <time>2012-05-26T07:36:47Z</time>
      </trkpt>
      <trkpt lat="43.20489" lon="5.51196">
        <ele>24.65</ele>
        <time>2012-05-26T07:36:53Z</time>
      </trkpt>
      <trkpt lat="43.20485" lon="5.51192">
        <ele>23.69</ele>
        <time>2012-05-26T07:36:58Z</time>
      </trkpt>
      <trkpt lat="43.20471" lon="5.51182">
        <ele>25.61</ele>
        <time>2012-05-26T07:37:12Z</time>
      </trkpt>
      <trkpt lat="43.2047" lon="5.5118">
        <ele>27.05</ele>
        <time>2012-05-26T07:37:27Z</time>
      </trkpt>
      <trkpt lat="43.20464" lon="5.51177">
        <ele>29.46</ele>
        <time>2012-05-26T07:37:41Z</time>
      </trkpt>
      <trkpt lat="43.20454" lon="5.51176">
        <ele>31.38</ele>
        <time>2012-05-26T07:37:55Z</time>
      </trkpt>
      <trkpt lat="43.20443" lon="5.51174">
        <ele>30.9</ele>
        <time>2012-05-26T07:38:09Z</time>
      </trkpt>
      <trkpt lat="43.20439" lon="5.5117">
        <ele>30.42</ele>
        <time>2012-05-26T07:38:16Z</time>
      </trkpt>
      <trkpt lat="43.20432" lon="5.51169">
        <ele>29.46</ele>
        <time>2012-05-26T07:38:26Z</time>
      </trkpt>
      <trkpt lat="43.20429" lon="5.51168">
        <ele>29.46</ele>
        <time>2012-05-26T07:38:41Z</time>
      </trkpt>
      <trkpt lat="43.20419" lon="5.51168">
        <ele>28.98</ele>
        <time>2012-05-26T07:38:54Z</time>
      </trkpt>
      <trkpt lat="43.2041" lon="5.51167">
        <ele>29.94</ele>
        <time>2012-05-26T07:39:06Z</time>
      </trkpt>
      <trkpt lat="43.20405" lon="5.51171">
        <ele>30.9</ele>
        <time>2012-05-26T07:39:14Z</time>
      </trkpt>
      <trkpt lat="43.20398" lon="5.51174">
        <ele>31.86</ele>
        <time>2012-05-26T07:39:22Z</time>
      </trkpt>
      <trkpt lat="43.20395" lon="5.51173">
        <ele>31.38</ele>
        <time>2012-05-26T07:39:24Z</time>
      </trkpt>
      <trkpt lat="43.2039" lon="5.51174">
        <ele>30.9</ele>
        <time>2012-05-26T07:39:29Z</time>
      </trkpt>
      <trkpt lat="43.20383" lon="5.51175">
        <ele>30.42</ele>
        <time>2012-05-26T07:39:37Z</time>
      </trkpt>
      <trkpt lat="43.20379" lon="5.51177">
        <ele>30.42</ele>
        <time>2012-05-26T07:39:42Z</time>
      </trkpt>
      <trkpt lat="43.2037" lon="5.51174">
        <ele>30.42</ele>
        <time>2012-05-26T07:39:49Z</time>
      </trkpt>
      <trkpt lat="43.20364" lon="5.51173">
        <ele>30.42</ele>
        <time>2012-05-26T07:39:53Z</time>
      </trkpt>
      <trkpt lat="43.20356" lon="5.51173">
        <ele>30.42</ele>
        <time>2012-05-26T07:39:59Z</time>
      </trkpt>
      <trkpt lat="43.20344" lon="5.51177">
        <ele>28.5</ele>
        <time>2012-05-26T07:40:12Z</time>
      </trkpt>
      <trkpt lat="43.20333" lon="5.51174">
        <ele>26.57</ele>
        <time>2012-05-26T07:40:24Z</time>
      </trkpt>
      <trkpt lat="43.2033" lon="5.51173">
        <ele>26.57</ele>
        <time>2012-05-26T07:40:26Z</time>
      </trkpt>
      <trkpt lat="43.20322" lon="5.51175">
        <ele>26.09</ele>
        <time>2012-05-26T07:40:37Z</time>
      </trkpt>
      <trkpt lat="43.2032" lon="5.51173">
        <ele>25.13</ele>
        <time>2012-05-26T07:40:41Z</time>
      </trkpt>
      <trkpt lat="43.20319" lon="5.51169">
        <ele>24.65</ele>
        <time>2012-05-26T07:40:46Z</time>
      </trkpt>
      <trkpt lat="43.20309" lon="5.51165">
        <ele>24.17</ele>
        <time>2012-05-26T07:40:57Z</time>
      </trkpt>
      <trkpt lat="43.20295" lon="5.51169">
        <ele>24.65</ele>
        <time>2012-05-26T07:41:10Z</time>
      </trkpt>
      <trkpt lat="43.20294" lon="5.51169">
        <ele>24.65</ele>
        <time>2012-05-26T07:41:27Z</time>
      </trkpt>
      <trkpt lat="43.20289" lon="5.51169">
        <ele>25.13</ele>
        <time>2012-05-26T07:41:43Z</time>
      </trkpt>
      <trkpt lat="43.20287" lon="5.51167">
        <ele>25.61</ele>
        <time>2012-05-26T07:42:14Z</time>
      </trkpt>
      <trkpt lat="43.20279" lon="5.51163">
        <ele>27.53</ele>
        <time>2012-05-26T07:42:26Z</time>
      </trkpt>
      <trkpt lat="43.20278" lon="5.51163">
        <ele>27.53</ele>
        <time>2012-05-26T07:42:28Z</time>
      </trkpt>
      <trkpt lat="43.20276" lon="5.51163">
        <ele>28.02</ele>
        <time>2012-05-26T07:42:30Z</time>
      </trkpt>
      <trkpt lat="43.20274" lon="5.51158">
        <ele>28.02</ele>
        <time>2012-05-26T07:42:42Z</time>
      </trkpt>
      <trkpt lat="43.20269" lon="5.51158">
        <ele>30.42</ele>
        <time>2012-05-26T07:42:56Z</time>
      </trkpt>
      <trkpt lat="43.20269" lon="5.51158">
        <ele>29.46</ele>
        <time>2012-05-26T07:42:59Z</time>
      </trkpt>
      <trkpt lat="43.20269" lon="5.51156">
        <ele>28.98</ele>
        <time>2012-05-26T07:43:02Z</time>
      </trkpt>
      <trkpt lat="43.20274" lon="5.51154">
        <ele>26.57</ele>
        <time>2012-05-26T07:43:13Z</time>
      </trkpt>
      <trkpt lat="43.20274" lon="5.51145">
        <ele>25.13</ele>
        <time>2012-05-26T07:43:18Z</time>
      </trkpt>
      <trkpt lat="43.20274" lon="5.51143">
        <ele>25.13</ele>
        <time>2012-05-26T07:43:20Z</time>
      </trkpt>
      <trkpt lat="43.20268" lon="5.51136">
        <ele>23.21</ele>
        <time>2012-05-26T07:43:31Z</time>
      </trkpt>
      <trkpt lat="43.20268" lon="5.51136">
        <ele>23.21</ele>
        <time>2012-05-26T07:43:32Z</time>
      </trkpt>
      <trkpt lat="43.20265" lon="5.5113">
        <ele>21.77</ele>
        <time>2012-05-26T07:43:45Z</time>
      </trkpt>
      <trkpt lat="43.20265" lon="5.5113">
        <ele>21.77</ele>
        <time>2012-05-26T07:44:02Z</time>
      </trkpt>
      <trkpt lat="43.2026" lon="5.51127">
        <ele>21.77</ele>
        <time>2012-05-26T07:44:05Z</time>
      </trkpt>
      <trkpt lat="43.20253" lon="5.5111">
        <ele>20.32</ele>
        <time>2012-05-26T07:44:16Z</time>
      </trkpt>
      <trkpt lat="43.20245" lon="5.51099">
        <ele>20.32</ele>
        <time>2012-05-26T07:44:26Z</time>
      </trkpt>
      <trkpt lat="43.20243" lon="5.51095">
        <ele>20.32</ele>
        <time>2012-05-26T07:44:31Z</time>
      </trkpt>
      <trkpt lat="43.20241" lon="5.51087">
        <ele>20.81</ele>
        <time>2012-05-26T07:44:42Z</time>
      </trkpt>
      <trkpt lat="43.20238" lon="5.51081">
        <ele>21.77</ele>
        <time>2012-05-26T07:44:47Z</time>
      </trkpt>
      <trkpt lat="43.20238" lon="5.51064">
        <ele>22.25</ele>
        <time>2012-05-26T07:44:59Z</time>
      </trkpt>
      <trkpt lat="43.20238" lon="5.51064">
        <ele>22.73</ele>
        <time>2012-05-26T07:45:23Z</time>
      </trkpt>
      <trkpt lat="43.20238" lon="5.51063">
        <ele>22.73</ele>
        <time>2012-05-26T07:46:16Z</time>
      </trkpt>
      <trkpt lat="43.20238" lon="5.51063">
        <ele>22.73</ele>
        <time>2012-05-26T07:46:57Z</time>
      </trkpt>
      <trkpt lat="43.20236" lon="5.51063">
        <ele>23.21</ele>
        <time>2012-05-26T07:47:18Z</time>
      </trkpt>
      <trkpt lat="43.20231" lon="5.51061">
        <ele>22.73</ele>
        <time>2012-05-26T07:47:26Z</time>
      </trkpt>
      <trkpt lat="43.20219" lon="5.51053">
        <ele>23.69</ele>
        <time>2012-05-26T07:47:37Z</time>
      </trkpt>
      <trkpt lat="43.20215" lon="5.51046">
        <ele>24.17</ele>
        <time>2012-05-26T07:47:43Z</time>
      </trkpt>
      <trkpt lat="43.20214" lon="5.51043">
        <ele>23.69</ele>
        <time>2012-05-26T07:47:45Z</time>
      </trkpt>
      <trkpt lat="43.20213" lon="5.51037">
        <ele>22.73</ele>
        <time>2012-05-26T07:47:54Z</time>
      </trkpt>
      <trkpt lat="43.20215" lon="5.5103">
        <ele>20.32</ele>
        <time>2012-05-26T07:48:02Z</time>
      </trkpt>
      <trkpt lat="43.20215" lon="5.51019">
        <ele>17.92</ele>
        <time>2012-05-26T07:48:12Z</time>
      </trkpt>
      <trkpt lat="43.20213" lon="5.51015">
        <ele>17.92</ele>
        <time>2012-05-26T07:48:21Z</time>
      </trkpt>
      <trkpt lat="43.2021" lon="5.51015">
        <ele>18.88</ele>
        <time>2012-05-26T07:48:39Z</time>
      </trkpt>
      <trkpt lat="43.20205" lon="5.51014">
        <ele>17.44</ele>
        <time>2012-05-26T07:48:54Z</time>
      </trkpt>
      <trkpt lat="43.20203" lon="5.51009">
        <ele>15.04</ele>
        <time>2012-05-26T07:49:06Z</time>
      </trkpt>
      <trkpt lat="43.20202" lon="5.51009">
        <ele>15.04</ele>
        <time>2012-05-26T07:49:07Z</time>
      </trkpt>
      <trkpt lat="43.20197" lon="5.51009">
        <ele>15.52</ele>
        <time>2012-05-26T07:49:11Z</time>
      </trkpt>
      <trkpt lat="43.20189" lon="5.51008">
        <ele>17.44</ele>
        <time>2012-05-26T07:49:21Z</time>
      </trkpt>
      <trkpt lat="43.20185" lon="5.51014">
        <ele>19.84</ele>
        <time>2012-05-26T07:49:33Z</time>
      </trkpt>
      <trkpt lat="43.20177" lon="5.51014">
        <ele>22.73</ele>
        <time>2012-05-26T07:49:43Z</time>
      </trkpt>
      <trkpt lat="43.20168" lon="5.51005">
        <ele>22.25</ele>
        <time>2012-05-26T07:49:53Z</time>
      </trkpt>
      <trkpt lat="43.20164" lon="5.50998">
        <ele>22.73</ele>
        <time>2012-05-26T07:50:03Z</time>
      </trkpt>
      <trkpt lat="43.20163" lon="5.50993">
        <ele>22.73</ele>
        <time>2012-05-26T07:50:06Z</time>
      </trkpt>
      <trkpt lat="43.2016" lon="5.50987">
        <ele>22.73</ele>
        <time>2012-05-26T07:50:12Z</time>
      </trkpt>
      <trkpt lat="43.20148" lon="5.50989">
        <ele>21.29</ele>
        <time>2012-05-26T07:50:25Z</time>
      </trkpt>
      <trkpt lat="43.20135" lon="5.50986">
        <ele>19.84</ele>
        <time>2012-05-26T07:50:38Z</time>
      </trkpt>
      <trkpt lat="43.20126" lon="5.50977">
        <ele>20.32</ele>
        <time>2012-05-26T07:50:50Z</time>
      </trkpt>
      <trkpt lat="43.20122" lon="5.50974">
        <ele>19.84</ele>
        <time>2012-05-26T07:51:01Z</time>
      </trkpt>
      <trkpt lat="43.2012" lon="5.50972">
        <ele>19.84</ele>
        <time>2012-05-26T07:51:10Z</time>
      </trkpt>
      <trkpt lat="43.20115" lon="5.5097">
        <ele>19.36</ele>
        <time>2012-05-26T07:51:19Z</time>
      </trkpt>
      <trkpt lat="43.20111" lon="5.50964">
        <ele>18.88</ele>
        <time>2012-05-26T07:51:32Z</time>
      </trkpt>
      <trkpt lat="43.20111" lon="5.50964">
        <ele>19.36</ele>
        <time>2012-05-26T07:51:42Z</time>
      </trkpt>
      <trkpt lat="43.2011" lon="5.50964">
        <ele>19.84</ele>
        <time>2012-05-26T07:51:57Z</time>
      </trkpt>
      <trkpt lat="43.20106" lon="5.50962">
        <ele>18.88</ele>
        <time>2012-05-26T07:52:25Z</time>
      </trkpt>
      <trkpt lat="43.20091" lon="5.5096">
        <ele>17.92</ele>
        <time>2012-05-26T07:52:38Z</time>
      </trkpt>
      <trkpt lat="43.20084" lon="5.50955">
        <ele>17.44</ele>
        <time>2012-05-26T07:52:46Z</time>
      </trkpt>
      <trkpt lat="43.20074" lon="5.50951">
        <ele>17.92</ele>
        <time>2012-05-26T07:52:57Z</time>
      </trkpt>
      <trkpt lat="43.20069" lon="5.50952">
        <ele>16.96</ele>
        <time>2012-05-26T07:53:06Z</time>
      </trkpt>
      <trkpt lat="43.20064" lon="5.50945">
        <ele>16.48</ele>
        <time>2012-05-26T07:53:10Z</time>
      </trkpt>
      <trkpt lat="43.20051" lon="5.50941">
        <ele>15.52</ele>
        <time>2012-05-26T07:53:23Z</time>
      </trkpt>
      <trkpt lat="43.20042" lon="5.5094">
        <ele>14.56</ele>
        <time>2012-05-26T07:53:31Z</time>
      </trkpt>
      <trkpt lat="43.20031" lon="5.50934">
        <ele>13.6</ele>
        <time>2012-05-26T07:53:41Z</time>
      </trkpt>
      <trkpt lat="43.2003" lon="5.50933">
        <ele>13.6</ele>
        <time>2012-05-26T07:53:42Z</time>
      </trkpt>
      <trkpt lat="43.20019" lon="5.50924">
        <ele>13.12</ele>
        <time>2012-05-26T07:53:55Z</time>
      </trkpt>
      <trkpt lat="43.20018" lon="5.50924">
        <ele>13.6</ele>
        <time>2012-05-26T07:54:16Z</time>
      </trkpt>
      <trkpt lat="43.20018" lon="5.50924">
        <ele>13.12</ele>
        <time>2012-05-26T07:54:17Z</time>
      </trkpt>
      <trkpt lat="43.20008" lon="5.50929">
        <ele>11.19</ele>
        <time>2012-05-26T07:54:31Z</time>
      </trkpt>
      <trkpt lat="43.20013" lon="5.50924">
        <ele>11.67</ele>
        <time>2012-05-26T07:55:27Z</time>
      </trkpt>
      <trkpt lat="43.2002" lon="5.50928">
        <ele>13.12</ele>
        <time>2012-05-26T07:55:37Z</time>
      </trkpt>
      <trkpt lat="43.20026" lon="5.50936">
        <ele>14.08</ele>
        <time>2012-05-26T07:55:48Z</time>
      </trkpt>
      <trkpt lat="43.20024" lon="5.50944">
        <ele>16.96</ele>
        <time>2012-05-26T07:56:02Z</time>
      </trkpt>
      <trkpt lat="43.20023" lon="5.5095">
        <ele>19.36</ele>
        <time>2012-05-26T07:56:16Z</time>
      </trkpt>
      <trkpt lat="43.20018" lon="5.50952">
        <ele>21.77</ele>
        <time>2012-05-26T07:56:27Z</time>
      </trkpt>
      <trkpt lat="43.20017" lon="5.50952">
        <ele>21.77</ele>
        <time>2012-05-26T07:56:53Z</time>
      </trkpt>
      <trkpt lat="43.20014" lon="5.50957">
        <ele>23.21</ele>
        <time>2012-05-26T07:57:41Z</time>
      </trkpt>
      <trkpt lat="43.20014" lon="5.50957">
        <ele>23.69</ele>
        <time>2012-05-26T07:57:57Z</time>
      </trkpt>
      <trkpt lat="43.20011" lon="5.50956">
        <ele>24.17</ele>
        <time>2012-05-26T07:58:09Z</time>
      </trkpt>
      <trkpt lat="43.20012" lon="5.50954">
        <ele>24.17</ele>
        <time>2012-05-26T07:58:35Z</time>
      </trkpt>
      <trkpt lat="43.20015" lon="5.50954">
        <ele>23.69</ele>
        <time>2012-05-26T07:58:45Z</time>
      </trkpt>
      <trkpt lat="43.20015" lon="5.50954">
        <ele>22.73</ele>
        <time>2012-05-26T07:59:19Z</time>
      </trkpt>
      <trkpt lat="43.20015" lon="5.50954">
        <ele>23.21</ele>
        <time>2012-05-26T07:59:47Z</time>
      </trkpt>
      <trkpt lat="43.20015" lon="5.50955">
        <ele>23.69</ele>
        <time>2012-05-26T08:00:22Z</time>
      </trkpt>
      <trkpt lat="43.20008" lon="5.5096">
        <ele>25.61</ele>
        <time>2012-05-26T08:00:35Z</time>
      </trkpt>
      <trkpt lat="43.2" lon="5.50965">
        <ele>28.02</ele>
        <time>2012-05-26T08:00:48Z</time>
      </trkpt>
      <trkpt lat="43.19993" lon="5.50968">
        <ele>29.46</ele>
        <time>2012-05-26T08:01:00Z</time>
      </trkpt>
      <trkpt lat="43.19986" lon="5.50968">
        <ele>30.9</ele>
        <time>2012-05-26T08:01:10Z</time>
      </trkpt>
      <trkpt lat="43.1998" lon="5.50969">
        <ele>31.86</ele>
        <time>2012-05-26T08:01:24Z</time>
      </trkpt>
      <trkpt lat="43.19974" lon="5.50971">
        <ele>34.26</ele>
        <time>2012-05-26T08:01:37Z</time>
      </trkpt>
      <trkpt lat="43.19969" lon="5.50971">
        <ele>33.78</ele>
        <time>2012-05-26T08:01:52Z</time>
      </trkpt>
      <trkpt lat="43.19962" lon="5.50973">
        <ele>30.9</ele>
        <time>2012-05-26T08:02:04Z</time>
      </trkpt>
      <trkpt lat="43.1996" lon="5.50974">
        <ele>30.42</ele>
        <time>2012-05-26T08:02:05Z</time>
      </trkpt>
      <trkpt lat="43.19942" lon="5.50983">
        <ele>28.02</ele>
        <time>2012-05-26T08:02:18Z</time>
      </trkpt>
      <trkpt lat="43.19941" lon="5.50984">
        <ele>28.02</ele>
        <time>2012-05-26T08:02:22Z</time>
      </trkpt>
      <trkpt lat="43.19941" lon="5.51002">
        <ele>26.09</ele>
        <time>2012-05-26T08:02:29Z</time>
      </trkpt>
      <trkpt lat="43.1994" lon="5.51006">
        <ele>25.61</ele>
        <time>2012-05-26T08:02:34Z</time>
      </trkpt>
      <trkpt lat="43.19941" lon="5.51021">
        <ele>24.17</ele>
        <time>2012-05-26T08:02:43Z</time>
      </trkpt>
      <trkpt lat="43.19943" lon="5.51022">
        <ele>23.69</ele>
        <time>2012-05-26T08:02:46Z</time>
      </trkpt>
      <trkpt lat="43.19943" lon="5.51036">
        <ele>22.73</ele>
        <time>2012-05-26T08:02:51Z</time>
      </trkpt>
      <trkpt lat="43.19945" lon="5.5104">
        <ele>22.25</ele>
        <time>2012-05-26T08:02:56Z</time>
      </trkpt>
      <trkpt lat="43.19945" lon="5.51054">
        <ele>21.77</ele>
        <time>2012-05-26T08:03:03Z</time>
      </trkpt>
      <trkpt lat="43.19947" lon="5.51058">
        <ele>21.29</ele>
        <time>2012-05-26T08:03:06Z</time>
      </trkpt>
      <trkpt lat="43.1995" lon="5.51074">
        <ele>20.81</ele>
        <time>2012-05-26T08:03:15Z</time>
      </trkpt>
      <trkpt lat="43.19946" lon="5.51083">
        <ele>18.88</ele>
        <time>2012-05-26T08:03:23Z</time>
      </trkpt>
      <trkpt lat="43.19946" lon="5.51083">
        <ele>18.88</ele>
        <time>2012-05-26T08:03:24Z</time>
      </trkpt>
      <trkpt lat="43.19948" lon="5.51093">
        <ele>17.92</ele>
        <time>2012-05-26T08:03:29Z</time>
      </trkpt>
      <trkpt lat="43.19951" lon="5.51098">
        <ele>17.44</ele>
        <time>2012-05-26T08:03:34Z</time>
      </trkpt>
      <trkpt lat="43.19947" lon="5.511">
        <ele>17.92</ele>
        <time>2012-05-26T08:03:45Z</time>
      </trkpt>
      <trkpt lat="43.19947" lon="5.511">
        <ele>17.44</ele>
        <time>2012-05-26T08:04:03Z</time>
      </trkpt>
      <trkpt lat="43.19949" lon="5.511">
        <ele>17.44</ele>
        <time>2012-05-26T08:04:06Z</time>
      </trkpt>
      <trkpt lat="43.19956" lon="5.51102">
        <ele>18.4</ele>
        <time>2012-05-26T08:04:14Z</time>
      </trkpt>
      <trkpt lat="43.19969" lon="5.51111">
        <ele>18.4</ele>
        <time>2012-05-26T08:04:28Z</time>
      </trkpt>
      <trkpt lat="43.19978" lon="5.5113">
        <ele>18.4</ele>
        <time>2012-05-26T08:04:41Z</time>
      </trkpt>
      <trkpt lat="43.19979" lon="5.51134">
        <ele>18.4</ele>
        <time>2012-05-26T08:04:46Z</time>
      </trkpt>
      <trkpt lat="43.1998" lon="5.51137">
        <ele>17.92</ele>
        <time>2012-05-26T08:04:48Z</time>
      </trkpt>
      <trkpt lat="43.19987" lon="5.51145">
        <ele>17.92</ele>
        <time>2012-05-26T08:04:55Z</time>
      </trkpt>
      <trkpt lat="43.19991" lon="5.51149">
        <ele>18.4</ele>
        <time>2012-05-26T08:04:59Z</time>
      </trkpt>
      <trkpt lat="43.20001" lon="5.51161">
        <ele>17.92</ele>
        <time>2012-05-26T08:05:12Z</time>
      </trkpt>
      <trkpt lat="43.20003" lon="5.51169">
        <ele>18.4</ele>
        <time>2012-05-26T08:05:18Z</time>
      </trkpt>
      <trkpt lat="43.20004" lon="5.51183">
        <ele>17.92</ele>
        <time>2012-05-26T08:05:33Z</time>
      </trkpt>
      <trkpt lat="43.20013" lon="5.51193">
        <ele>17.92</ele>
        <time>2012-05-26T08:05:55Z</time>
      </trkpt>
      <trkpt lat="43.20017" lon="5.51199">
        <ele>17.92</ele>
        <time>2012-05-26T08:06:10Z</time>
      </trkpt>
      <trkpt lat="43.20017" lon="5.51199">
        <ele>18.4</ele>
        <time>2012-05-26T08:06:40Z</time>
      </trkpt>
      <trkpt lat="43.2002" lon="5.512">
        <ele>17.92</ele>
        <time>2012-05-26T08:07:07Z</time>
      </trkpt>
      <trkpt lat="43.20025" lon="5.51202">
        <ele>17.44</ele>
        <time>2012-05-26T08:07:12Z</time>
      </trkpt>
      <trkpt lat="43.20033" lon="5.51208">
        <ele>17.92</ele>
        <time>2012-05-26T08:07:22Z</time>
      </trkpt>
      <trkpt lat="43.20039" lon="5.51209">
        <ele>18.4</ele>
        <time>2012-05-26T08:07:38Z</time>
      </trkpt>
      <trkpt lat="43.20045" lon="5.51206">
        <ele>18.4</ele>
        <time>2012-05-26T08:07:53Z</time>
      </trkpt>
      <trkpt lat="43.20059" lon="5.51206">
        <ele>18.88</ele>
        <time>2012-05-26T08:08:07Z</time>
      </trkpt>
      <trkpt lat="43.20077" lon="5.51208">
        <ele>18.4</ele>
        <time>2012-05-26T08:08:20Z</time>
      </trkpt>
      <trkpt lat="43.20088" lon="5.51218">
        <ele>18.88</ele>
        <time>2012-05-26T08:08:31Z</time>
      </trkpt>
      <trkpt lat="43.2009" lon="5.51221">
        <ele>18.4</ele>
        <time>2012-05-26T08:08:33Z</time>
      </trkpt>
      <trkpt lat="43.20103" lon="5.51229">
        <ele>19.36</ele>
        <time>2012-05-26T08:08:47Z</time>
      </trkpt>
      <trkpt lat="43.2011" lon="5.5123">
        <ele>18.4</ele>
        <time>2012-05-26T08:09:00Z</time>
      </trkpt>
      <trkpt lat="43.20109" lon="5.51231">
        <ele>18.4</ele>
        <time>2012-05-26T08:09:17Z</time>
      </trkpt>
      <trkpt lat="43.20109" lon="5.5123">
        <ele>17.92</ele>
        <time>2012-05-26T08:09:55Z</time>
      </trkpt>
      <trkpt lat="43.20114" lon="5.51238">
        <ele>19.36</ele>
        <time>2012-05-26T08:10:20Z</time>
      </trkpt>
      <trkpt lat="43.20117" lon="5.5124">
        <ele>19.36</ele>
        <time>2012-05-26T08:10:26Z</time>
      </trkpt>
      <trkpt lat="43.20125" lon="5.51247">
        <ele>19.84</ele>
        <time>2012-05-26T08:10:34Z</time>
      </trkpt>
      <trkpt lat="43.20129" lon="5.51248">
        <ele>20.32</ele>
        <time>2012-05-26T08:10:37Z</time>
      </trkpt>
      <trkpt lat="43.20133" lon="5.51247">
        <ele>20.32</ele>
        <time>2012-05-26T08:10:40Z</time>
      </trkpt>
      <trkpt lat="43.20145" lon="5.51252">
        <ele>21.29</ele>
        <time>2012-05-26T08:10:52Z</time>
      </trkpt>
      <trkpt lat="43.20155" lon="5.51252">
        <ele>22.73</ele>
        <time>2012-05-26T08:11:01Z</time>
      </trkpt>
      <trkpt lat="43.20163" lon="5.51254">
        <ele>24.17</ele>
        <time>2012-05-26T08:11:10Z</time>
      </trkpt>
      <trkpt lat="43.2017" lon="5.5125">
        <ele>25.61</ele>
        <time>2012-05-26T08:11:19Z</time>
      </trkpt>
      <trkpt lat="43.20185" lon="5.51242">
        <ele>28.02</ele>
        <time>2012-05-26T08:11:32Z</time>
      </trkpt>
      <trkpt lat="43.20189" lon="5.51241">
        <ele>28.5</ele>
        <time>2012-05-26T08:11:36Z</time>
      </trkpt>
      <trkpt lat="43.202" lon="5.51241">
        <ele>29.46</ele>
        <time>2012-05-26T08:11:45Z</time>
      </trkpt>
      <trkpt lat="43.20206" lon="5.51234">
        <ele>31.38</ele>
        <time>2012-05-26T08:11:54Z</time>
      </trkpt>
      <trkpt lat="43.20209" lon="5.51233">
        <ele>31.38</ele>
        <time>2012-05-26T08:11:58Z</time>
      </trkpt>
      <trkpt lat="43.20215" lon="5.51231">
        <ele>33.3</ele>
        <time>2012-05-26T08:12:10Z</time>
      </trkpt>
      <trkpt lat="43.20218" lon="5.51221">
        <ele>33.3</ele>
        <time>2012-05-26T08:12:22Z</time>
      </trkpt>
      <trkpt lat="43.20218" lon="5.51221">
        <ele>33.78</ele>
        <time>2012-05-26T08:13:06Z</time>
      </trkpt>
      <trkpt lat="43.20218" lon="5.51219">
        <ele>33.78</ele>
        <time>2012-05-26T08:13:16Z</time>
      </trkpt>
      <trkpt lat="43.20219" lon="5.51213">
        <ele>34.26</ele>
        <time>2012-05-26T08:13:21Z</time>
      </trkpt>
      <trkpt lat="43.2022" lon="5.51213">
        <ele>34.74</ele>
        <time>2012-05-26T08:13:43Z</time>
      </trkpt>
      <trkpt lat="43.20222" lon="5.51208">
        <ele>35.23</ele>
        <time>2012-05-26T08:13:53Z</time>
      </trkpt>
      <trkpt lat="43.20225" lon="5.51197">
        <ele>36.19</ele>
        <time>2012-05-26T08:14:01Z</time>
      </trkpt>
      <trkpt lat="43.20227" lon="5.51191">
        <ele>36.67</ele>
        <time>2012-05-26T08:14:05Z</time>
      </trkpt>
      <trkpt lat="43.20235" lon="5.51184">
        <ele>36.19</ele>
        <time>2012-05-26T08:14:18Z</time>
      </trkpt>
      <trkpt lat="43.20239" lon="5.51179">
        <ele>36.67</ele>
        <time>2012-05-26T08:15:18Z</time>
      </trkpt>
      <trkpt lat="43.20238" lon="5.51168">
        <ele>36.67</ele>
        <time>2012-05-26T08:15:29Z</time>
      </trkpt>
      <trkpt lat="43.20239" lon="5.51167">
        <ele>36.67</ele>
        <time>2012-05-26T08:15:30Z</time>
      </trkpt>
      <trkpt lat="43.20245" lon="5.51171">
        <ele>34.74</ele>
        <time>2012-05-26T08:15:38Z</time>
      </trkpt>
      <trkpt lat="43.20245" lon="5.5118">
        <ele>33.78</ele>
        <time>2012-05-26T08:15:43Z</time>
      </trkpt>
      <trkpt lat="43.20248" lon="5.51185">
        <ele>32.34</ele>
        <time>2012-05-26T08:15:50Z</time>
      </trkpt>
      <trkpt lat="43.20258" lon="5.51179">
        <ele>31.38</ele>
        <time>2012-05-26T08:15:59Z</time>
      </trkpt>
      <trkpt lat="43.20261" lon="5.51173">
        <ele>28.98</ele>
        <time>2012-05-26T08:16:07Z</time>
      </trkpt>
      <trkpt lat="43.20266" lon="5.51166">
        <ele>26.57</ele>
        <time>2012-05-26T08:16:18Z</time>
      </trkpt>
      <trkpt lat="43.20271" lon="5.51167">
        <ele>25.61</ele>
        <time>2012-05-26T08:16:21Z</time>
      </trkpt>
      <trkpt lat="43.20276" lon="5.51169">
        <ele>24.65</ele>
        <time>2012-05-26T08:16:29Z</time>
      </trkpt>
      <trkpt lat="43.20277" lon="5.5117">
        <ele>24.17</ele>
        <time>2012-05-26T08:16:30Z</time>
      </trkpt>
      <trkpt lat="43.20284" lon="5.5117">
        <ele>23.69</ele>
        <time>2012-05-26T08:16:34Z</time>
      </trkpt>
      <trkpt lat="43.2029" lon="5.51171">
        <ele>23.21</ele>
        <time>2012-05-26T08:16:37Z</time>
      </trkpt>
      <trkpt lat="43.20292" lon="5.5117">
        <ele>22.73</ele>
        <time>2012-05-26T08:16:39Z</time>
      </trkpt>
      <trkpt lat="43.20304" lon="5.51171">
        <ele>22.25</ele>
        <time>2012-05-26T08:16:50Z</time>
      </trkpt>
      <trkpt lat="43.20314" lon="5.51171">
        <ele>23.21</ele>
        <time>2012-05-26T08:17:00Z</time>
      </trkpt>
      <trkpt lat="43.20315" lon="5.5117">
        <ele>22.25</ele>
        <time>2012-05-26T08:17:12Z</time>
      </trkpt>
      <trkpt lat="43.20316" lon="5.51169">
        <ele>22.25</ele>
        <time>2012-05-26T08:17:39Z</time>
      </trkpt>
      <trkpt lat="43.20321" lon="5.5117">
        <ele>22.73</ele>
        <time>2012-05-26T08:17:45Z</time>
      </trkpt>
      <trkpt lat="43.20326" lon="5.51173">
        <ele>24.17</ele>
        <time>2012-05-26T08:17:54Z</time>
      </trkpt>
      <trkpt lat="43.20333" lon="5.51179">
        <ele>25.61</ele>
        <time>2012-05-26T08:18:04Z</time>
      </trkpt>
      <trkpt lat="43.2034" lon="5.5118">
        <ele>26.57</ele>
        <time>2012-05-26T08:18:13Z</time>
      </trkpt>
      <trkpt lat="43.20344" lon="5.51183">
        <ele>27.05</ele>
        <time>2012-05-26T08:18:17Z</time>
      </trkpt>
      <trkpt lat="43.20355" lon="5.51181">
        <ele>28.5</ele>
        <time>2012-05-26T08:18:29Z</time>
      </trkpt>
      <trkpt lat="43.20357" lon="5.5118">
        <ele>28.02</ele>
        <time>2012-05-26T08:18:31Z</time>
      </trkpt>
      <trkpt lat="43.20366" lon="5.51184">
        <ele>28.5</ele>
        <time>2012-05-26T08:18:40Z</time>
      </trkpt>
      <trkpt lat="43.20372" lon="5.5118">
        <ele>28.5</ele>
        <time>2012-05-26T08:18:46Z</time>
      </trkpt>
      <trkpt lat="43.20382" lon="5.51181">
        <ele>28.5</ele>
        <time>2012-05-26T08:18:55Z</time>
      </trkpt>
      <trkpt lat="43.20388" lon="5.5118">
        <ele>28.5</ele>
        <time>2012-05-26T08:18:59Z</time>
      </trkpt>
      <trkpt lat="43.20395" lon="5.51178">
        <ele>28.98</ele>
        <time>2012-05-26T08:19:10Z</time>
      </trkpt>
      <trkpt lat="43.20402" lon="5.51177">
        <ele>28.5</ele>
        <time>2012-05-26T08:19:16Z</time>
      </trkpt>
      <trkpt lat="43.20409" lon="5.51171">
        <ele>27.53</ele>
        <time>2012-05-26T08:19:25Z</time>
      </trkpt>
      <trkpt lat="43.20408" lon="5.51171">
        <ele>27.53</ele>
        <time>2012-05-26T08:19:43Z</time>
      </trkpt>
      <trkpt lat="43.20408" lon="5.51171">
        <ele>28.02</ele>
        <time>2012-05-26T08:20:06Z</time>
      </trkpt>
      <trkpt lat="43.20414" lon="5.51167">
        <ele>27.05</ele>
        <time>2012-05-26T08:20:42Z</time>
      </trkpt>
      <trkpt lat="43.20426" lon="5.51168">
        <ele>26.57</ele>
        <time>2012-05-26T08:20:54Z</time>
      </trkpt>
      <trkpt lat="43.20434" lon="5.51168">
        <ele>26.57</ele>
        <time>2012-05-26T08:21:03Z</time>
      </trkpt>
      <trkpt lat="43.20438" lon="5.51165">
        <ele>28.02</ele>
        <time>2012-05-26T08:21:17Z</time>
      </trkpt>
      <trkpt lat="43.2044" lon="5.51157">
        <ele>25.61</ele>
        <time>2012-05-26T08:21:30Z</time>
      </trkpt>
      <trkpt lat="43.20441" lon="5.51148">
        <ele>22.25</ele>
        <time>2012-05-26T08:21:40Z</time>
      </trkpt>
      <trkpt lat="43.20433" lon="5.51137">
        <ele>20.32</ele>
        <time>2012-05-26T08:21:52Z</time>
      </trkpt>
      <trkpt lat="43.2043" lon="5.51126">
        <ele>16.48</ele>
        <time>2012-05-26T08:22:04Z</time>
      </trkpt>
      <trkpt lat="43.20427" lon="5.51117">
        <ele>13.12</ele>
        <time>2012-05-26T08:22:18Z</time>
      </trkpt>
      <trkpt lat="43.20426" lon="5.51109">
        <ele>10.23</ele>
        <time>2012-05-26T08:22:27Z</time>
      </trkpt>
      <trkpt lat="43.20423" lon="5.51102">
        <ele>7.35</ele>
        <time>2012-05-26T08:22:37Z</time>
      </trkpt>
      <trkpt lat="43.20417" lon="5.51098">
        <ele>5.91</ele>
        <time>2012-05-26T08:22:48Z</time>
      </trkpt>
      <trkpt lat="43.20418" lon="5.51093">
        <ele>4.46</ele>
        <time>2012-05-26T08:22:53Z</time>
      </trkpt>
      <trkpt lat="43.20414" lon="5.51084">
        <ele>2.54</ele>
        <time>2012-05-26T08:23:01Z</time>
      </trkpt>
      <trkpt lat="43.20409" lon="5.51076">
        <ele>2.06</ele>
        <time>2012-05-26T08:23:11Z</time>
      </trkpt>
      <trkpt lat="43.20409" lon="5.51076">
        <ele>1.58</ele>
        <time>2012-05-26T08:23:34Z</time>
      </trkpt>
      <trkpt lat="43.20409" lon="5.51064">
        <ele>2.06</ele>
        <time>2012-05-26T08:23:51Z</time>
      </trkpt>
      <trkpt lat="43.20409" lon="5.51047">
        <ele>2.06</ele>
        <time>2012-05-26T08:24:05Z</time>
      </trkpt>
      <trkpt lat="43.20409" lon="5.51044">
        <ele>3.02</ele>
        <time>2012-05-26T08:24:08Z</time>
      </trkpt>
      <trkpt lat="43.2041" lon="5.51041">
        <ele>2.54</ele>
        <time>2012-05-26T08:24:10Z</time>
      </trkpt>
      <trkpt lat="43.20412" lon="5.51037">
        <ele>2.54</ele>
        <time>2012-05-26T08:24:14Z</time>
      </trkpt>
      <trkpt lat="43.20404" lon="5.51045">
        <ele>3.02</ele>
        <time>2012-05-26T08:24:27Z</time>
      </trkpt>
      <trkpt lat="43.20398" lon="5.51049">
        <ele>2.06</ele>
        <time>2012-05-26T08:24:38Z</time>
      </trkpt>
      <trkpt lat="43.20396" lon="5.51049">
        <ele>2.06</ele>
        <time>2012-05-26T08:25:04Z</time>
      </trkpt>
      <trkpt lat="43.20393" lon="5.51049">
        <ele>3.02</ele>
        <time>2012-05-26T08:26:04Z</time>
      </trkpt>
      <trkpt lat="43.20386" lon="5.51054">
        <ele>3.98</ele>
        <time>2012-05-26T08:26:15Z</time>
      </trkpt>
      <trkpt lat="43.20376" lon="5.51054">
        <ele>5.91</ele>
        <time>2012-05-26T08:26:27Z</time>
      </trkpt>
      <trkpt lat="43.20368" lon="5.51049">
        <ele>8.79</ele>
        <time>2012-05-26T08:26:38Z</time>
      </trkpt>
      <trkpt lat="43.20367" lon="5.51044">
        <ele>11.19</ele>
        <time>2012-05-26T08:26:48Z</time>
      </trkpt>
      <trkpt lat="43.20369" lon="5.51037">
        <ele>13.12</ele>
        <time>2012-05-26T08:27:00Z</time>
      </trkpt>
      <trkpt lat="43.20363" lon="5.5103">
        <ele>15.04</ele>
        <time>2012-05-26T08:27:13Z</time>
      </trkpt>
      <trkpt lat="43.20358" lon="5.51024">
        <ele>17.44</ele>
        <time>2012-05-26T08:27:26Z</time>
      </trkpt>
      <trkpt lat="43.20355" lon="5.5102">
        <ele>19.84</ele>
        <time>2012-05-26T08:27:39Z</time>
      </trkpt>
      <trkpt lat="43.20356" lon="5.51018">
        <ele>21.29</ele>
        <time>2012-05-26T08:27:46Z</time>
      </trkpt>
      <trkpt lat="43.20361" lon="5.51011">
        <ele>23.69</ele>
        <time>2012-05-26T08:27:58Z</time>
      </trkpt>
      <trkpt lat="43.2036" lon="5.51005">
        <ele>26.57</ele>
        <time>2012-05-26T08:28:11Z</time>
      </trkpt>
      <trkpt lat="43.20357" lon="5.50998">
        <ele>28.5</ele>
        <time>2012-05-26T08:28:23Z</time>
      </trkpt>
      <trkpt lat="43.20354" lon="5.50995">
        <ele>29.94</ele>
        <time>2012-05-26T08:28:33Z</time>
      </trkpt>
      <trkpt lat="43.20354" lon="5.50993">
        <ele>29.94</ele>
        <time>2012-05-26T08:28:35Z</time>
      </trkpt>
      <trkpt lat="43.20352" lon="5.50987">
        <ele>32.82</ele>
        <time>2012-05-26T08:28:47Z</time>
      </trkpt>
      <trkpt lat="43.20352" lon="5.50984">
        <ele>32.82</ele>
        <time>2012-05-26T08:28:59Z</time>
      </trkpt>
      <trkpt lat="43.20352" lon="5.50984">
        <ele>32.82</ele>
        <time>2012-05-26T08:29:38Z</time>
      </trkpt>
      <trkpt lat="43.20352" lon="5.50982">
        <ele>33.3</ele>
        <time>2012-05-26T08:30:36Z</time>
      </trkpt>
      <trkpt lat="43.20351" lon="5.50979">
        <ele>34.26</ele>
        <time>2012-05-26T08:32:40Z</time>
      </trkpt>
      <trkpt lat="43.20355" lon="5.50976">
        <ele>34.26</ele>
        <time>2012-05-26T08:32:48Z</time>
      </trkpt>
      <trkpt lat="43.2036" lon="5.50964">
        <ele>36.67</ele>
        <time>2012-05-26T08:32:59Z</time>
      </trkpt>
      <trkpt lat="43.20361" lon="5.50963">
        <ele>36.67</ele>
        <time>2012-05-26T08:33:01Z</time>
      </trkpt>
      <trkpt lat="43.20361" lon="5.5096">
        <ele>37.15</ele>
        <time>2012-05-26T08:33:05Z</time>
      </trkpt>
      <trkpt lat="43.2036" lon="5.50951">
        <ele>39.55</ele>
        <time>2012-05-26T08:33:16Z</time>
      </trkpt>
      <trkpt lat="43.2036" lon="5.50948">
        <ele>40.03</ele>
        <time>2012-05-26T08:33:18Z</time>
      </trkpt>
      <trkpt lat="43.2036" lon="5.50936">
        <ele>41.47</ele>
        <time>2012-05-26T08:33:29Z</time>
      </trkpt>
      <trkpt lat="43.20357" lon="5.50923">
        <ele>43.4</ele>
        <time>2012-05-26T08:33:40Z</time>
      </trkpt>
      <trkpt lat="43.20355" lon="5.50912">
        <ele>45.32</ele>
        <time>2012-05-26T08:33:53Z</time>
      </trkpt>
      <trkpt lat="43.20353" lon="5.50905">
        <ele>47.24</ele>
        <time>2012-05-26T08:34:07Z</time>
      </trkpt>
      <trkpt lat="43.20348" lon="5.50906">
        <ele>49.16</ele>
        <time>2012-05-26T08:34:20Z</time>
      </trkpt>
      <trkpt lat="43.20348" lon="5.509">
        <ele>51.57</ele>
        <time>2012-05-26T08:34:31Z</time>
      </trkpt>
      <trkpt lat="43.20345" lon="5.50893">
        <ele>53.01</ele>
        <time>2012-05-26T08:34:42Z</time>
      </trkpt>
      <trkpt lat="43.20346" lon="5.5089">
        <ele>53.97</ele>
        <time>2012-05-26T08:34:46Z</time>
      </trkpt>
      <trkpt lat="43.20346" lon="5.50887">
        <ele>54.45</ele>
        <time>2012-05-26T08:34:57Z</time>
      </trkpt>
      <trkpt lat="43.20341" lon="5.5088">
        <ele>53.97</ele>
        <time>2012-05-26T08:35:07Z</time>
      </trkpt>
      <trkpt lat="43.20336" lon="5.50868">
        <ele>55.41</ele>
        <time>2012-05-26T08:35:18Z</time>
      </trkpt>
      <trkpt lat="43.20334" lon="5.50865">
        <ele>55.41</ele>
        <time>2012-05-26T08:35:24Z</time>
      </trkpt>
      <trkpt lat="43.2033" lon="5.50857">
        <ele>56.86</ele>
        <time>2012-05-26T08:35:36Z</time>
      </trkpt>
      <trkpt lat="43.20327" lon="5.50854">
        <ele>58.78</ele>
        <time>2012-05-26T08:35:47Z</time>
      </trkpt>
      <trkpt lat="43.20317" lon="5.50854">
        <ele>57.34</ele>
        <time>2012-05-26T08:35:59Z</time>
      </trkpt>
      <trkpt lat="43.20309" lon="5.50858">
        <ele>55.41</ele>
        <time>2012-05-26T08:36:10Z</time>
      </trkpt>
      <trkpt lat="43.20303" lon="5.50858">
        <ele>54.93</ele>
        <time>2012-05-26T08:36:18Z</time>
      </trkpt>
      <trkpt lat="43.20296" lon="5.50856">
        <ele>54.93</ele>
        <time>2012-05-26T08:36:27Z</time>
      </trkpt>
      <trkpt lat="43.20287" lon="5.50849">
        <ele>56.86</ele>
        <time>2012-05-26T08:36:39Z</time>
      </trkpt>
      <trkpt lat="43.20281" lon="5.50844">
        <ele>56.86</ele>
        <time>2012-05-26T08:36:50Z</time>
      </trkpt>
      <trkpt lat="43.20273" lon="5.50834">
        <ele>54.45</ele>
        <time>2012-05-26T08:37:03Z</time>
      </trkpt>
      <trkpt lat="43.2027" lon="5.50831">
        <ele>53.49</ele>
        <time>2012-05-26T08:37:09Z</time>
      </trkpt>
      <trkpt lat="43.20262" lon="5.50822">
        <ele>52.05</ele>
        <time>2012-05-26T08:37:22Z</time>
      </trkpt>
      <trkpt lat="43.20261" lon="5.50821">
        <ele>52.05</ele>
        <time>2012-05-26T08:37:27Z</time>
      </trkpt>
      <trkpt lat="43.20256" lon="5.50808">
        <ele>52.05</ele>
        <time>2012-05-26T08:37:41Z</time>
      </trkpt>
      <trkpt lat="43.20253" lon="5.50806">
        <ele>51.57</ele>
        <time>2012-05-26T08:37:44Z</time>
      </trkpt>
      <trkpt lat="43.20242" lon="5.50795">
        <ele>53.01</ele>
        <time>2012-05-26T08:37:58Z</time>
      </trkpt>
      <trkpt lat="43.20235" lon="5.50795">
        <ele>51.57</ele>
        <time>2012-05-26T08:38:08Z</time>
      </trkpt>
      <trkpt lat="43.20234" lon="5.50796">
        <ele>51.09</ele>
        <time>2012-05-26T08:38:10Z</time>
      </trkpt>
      <trkpt lat="43.20229" lon="5.50801">
        <ele>49.16</ele>
        <time>2012-05-26T08:38:22Z</time>
      </trkpt>
      <trkpt lat="43.20217" lon="5.50803">
        <ele>47.24</ele>
        <time>2012-05-26T08:38:35Z</time>
      </trkpt>
      <trkpt lat="43.20208" lon="5.50801">
        <ele>45.8</ele>
        <time>2012-05-26T08:38:45Z</time>
      </trkpt>
      <trkpt lat="43.20202" lon="5.50799">
        <ele>44.84</ele>
        <time>2012-05-26T08:38:51Z</time>
      </trkpt>
      <trkpt lat="43.20194" lon="5.50789">
        <ele>44.84</ele>
        <time>2012-05-26T08:39:03Z</time>
      </trkpt>
      <trkpt lat="43.20191" lon="5.50786">
        <ele>44.84</ele>
        <time>2012-05-26T08:39:07Z</time>
      </trkpt>
      <trkpt lat="43.20186" lon="5.50778">
        <ele>45.32</ele>
        <time>2012-05-26T08:39:19Z</time>
      </trkpt>
      <trkpt lat="43.20183" lon="5.50773">
        <ele>45.8</ele>
        <time>2012-05-26T08:39:26Z</time>
      </trkpt>
      <trkpt lat="43.20178" lon="5.50765">
        <ele>46.28</ele>
        <time>2012-05-26T08:39:34Z</time>
      </trkpt>
      <trkpt lat="43.20169" lon="5.50754">
        <ele>46.76</ele>
        <time>2012-05-26T08:39:46Z</time>
      </trkpt>
      <trkpt lat="43.20162" lon="5.50741">
        <ele>46.76</ele>
        <time>2012-05-26T08:39:58Z</time>
      </trkpt>
      <trkpt lat="43.20155" lon="5.5073">
        <ele>46.28</ele>
        <time>2012-05-26T08:40:08Z</time>
      </trkpt>
      <trkpt lat="43.20148" lon="5.50718">
        <ele>47.72</ele>
        <time>2012-05-26T08:40:19Z</time>
      </trkpt>
      <trkpt lat="43.20137" lon="5.50708">
        <ele>46.76</ele>
        <time>2012-05-26T08:40:32Z</time>
      </trkpt>
      <trkpt lat="43.20128" lon="5.50702">
        <ele>46.76</ele>
        <time>2012-05-26T08:40:43Z</time>
      </trkpt>
      <trkpt lat="43.20119" lon="5.50697">
        <ele>44.36</ele>
        <time>2012-05-26T08:40:54Z</time>
      </trkpt>
      <trkpt lat="43.20116" lon="5.50693">
        <ele>44.84</ele>
        <time>2012-05-26T08:40:58Z</time>
      </trkpt>
      <trkpt lat="43.20112" lon="5.50694">
        <ele>42.44</ele>
        <time>2012-05-26T08:41:10Z</time>
      </trkpt>
      <trkpt lat="43.20109" lon="5.50695">
        <ele>41.95</ele>
        <time>2012-05-26T08:41:15Z</time>
      </trkpt>
      <trkpt lat="43.20101" lon="5.50693">
        <ele>39.55</ele>
        <time>2012-05-26T08:41:27Z</time>
      </trkpt>
      <trkpt lat="43.20099" lon="5.50694">
        <ele>38.11</ele>
        <time>2012-05-26T08:41:29Z</time>
      </trkpt>
      <trkpt lat="43.20094" lon="5.50693">
        <ele>37.63</ele>
        <time>2012-05-26T08:41:36Z</time>
      </trkpt>
      <trkpt lat="43.20086" lon="5.50698">
        <ele>34.26</ele>
        <time>2012-05-26T08:41:48Z</time>
      </trkpt>
      <trkpt lat="43.20078" lon="5.50696">
        <ele>32.82</ele>
        <time>2012-05-26T08:41:58Z</time>
      </trkpt>
      <trkpt lat="43.20072" lon="5.50697">
        <ele>30.42</ele>
        <time>2012-05-26T08:42:10Z</time>
      </trkpt>
      <trkpt lat="43.20068" lon="5.50698">
        <ele>29.46</ele>
        <time>2012-05-26T08:42:24Z</time>
      </trkpt>
      <trkpt lat="43.2006" lon="5.50704">
        <ele>28.02</ele>
        <time>2012-05-26T08:42:37Z</time>
      </trkpt>
      <trkpt lat="43.20052" lon="5.50702">
        <ele>27.05</ele>
        <time>2012-05-26T08:42:52Z</time>
      </trkpt>
      <trkpt lat="43.20045" lon="5.50701">
        <ele>25.61</ele>
        <time>2012-05-26T08:43:02Z</time>
      </trkpt>
      <trkpt lat="43.20044" lon="5.50693">
        <ele>24.17</ele>
        <time>2012-05-26T08:43:12Z</time>
      </trkpt>
      <trkpt lat="43.20043" lon="5.50691">
        <ele>24.17</ele>
        <time>2012-05-26T08:43:13Z</time>
      </trkpt>
      <trkpt lat="43.2004" lon="5.50679">
        <ele>26.09</ele>
        <time>2012-05-26T08:43:25Z</time>
      </trkpt>
      <trkpt lat="43.20037" lon="5.50674">
        <ele>26.57</ele>
        <time>2012-05-26T08:43:31Z</time>
      </trkpt>
      <trkpt lat="43.20036" lon="5.50672">
        <ele>27.05</ele>
        <time>2012-05-26T08:43:33Z</time>
      </trkpt>
      <trkpt lat="43.20031" lon="5.50663">
        <ele>28.02</ele>
        <time>2012-05-26T08:43:43Z</time>
      </trkpt>
      <trkpt lat="43.20027" lon="5.50652">
        <ele>29.46</ele>
        <time>2012-05-26T08:43:54Z</time>
      </trkpt>
      <trkpt lat="43.20023" lon="5.5064">
        <ele>30.9</ele>
        <time>2012-05-26T08:44:05Z</time>
      </trkpt>
      <trkpt lat="43.2002" lon="5.50634">
        <ele>31.86</ele>
        <time>2012-05-26T08:44:11Z</time>
      </trkpt>
      <trkpt lat="43.2002" lon="5.50625">
        <ele>34.26</ele>
        <time>2012-05-26T08:44:23Z</time>
      </trkpt>
      <trkpt lat="43.2002" lon="5.50623">
        <ele>35.23</ele>
        <time>2012-05-26T08:44:42Z</time>
      </trkpt>
      <trkpt lat="43.20021" lon="5.50622">
        <ele>35.23</ele>
        <time>2012-05-26T08:44:54Z</time>
      </trkpt>
      <trkpt lat="43.2002" lon="5.50618">
        <ele>36.19</ele>
        <time>2012-05-26T08:45:06Z</time>
      </trkpt>
      <trkpt lat="43.20019" lon="5.50611">
        <ele>38.11</ele>
        <time>2012-05-26T08:45:34Z</time>
      </trkpt>
      <trkpt lat="43.20019" lon="5.50603">
        <ele>39.55</ele>
        <time>2012-05-26T08:45:45Z</time>
      </trkpt>
      <trkpt lat="43.2002" lon="5.50599">
        <ele>40.99</ele>
        <time>2012-05-26T08:45:51Z</time>
      </trkpt>
      <trkpt lat="43.20019" lon="5.5059">
        <ele>43.4</ele>
        <time>2012-05-26T08:46:02Z</time>
      </trkpt>
      <trkpt lat="43.20018" lon="5.50589">
        <ele>43.4</ele>
        <time>2012-05-26T08:46:03Z</time>
      </trkpt>
      <trkpt lat="43.20019" lon="5.50578">
        <ele>45.32</ele>
        <time>2012-05-26T08:46:14Z</time>
      </trkpt>
      <trkpt lat="43.20021" lon="5.50577">
        <ele>45.8</ele>
        <time>2012-05-26T08:46:17Z</time>
      </trkpt>
      <trkpt lat="43.20026" lon="5.50575">
        <ele>47.24</ele>
        <time>2012-05-26T08:46:24Z</time>
      </trkpt>
      <trkpt lat="43.20029" lon="5.50563">
        <ele>50.13</ele>
        <time>2012-05-26T08:46:38Z</time>
      </trkpt>
      <trkpt lat="43.20032" lon="5.50557">
        <ele>52.05</ele>
        <time>2012-05-26T08:46:49Z</time>
      </trkpt>
      <trkpt lat="43.20037" lon="5.50549">
        <ele>54.45</ele>
        <time>2012-05-26T08:47:01Z</time>
      </trkpt>
      <trkpt lat="43.20044" lon="5.50543">
        <ele>56.86</ele>
        <time>2012-05-26T08:47:14Z</time>
      </trkpt>
      <trkpt lat="43.20049" lon="5.50536">
        <ele>58.78</ele>
        <time>2012-05-26T08:47:25Z</time>
      </trkpt>
      <trkpt lat="43.20055" lon="5.50529">
        <ele>59.74</ele>
        <time>2012-05-26T08:47:36Z</time>
      </trkpt>
      <trkpt lat="43.2006" lon="5.50516">
        <ele>61.18</ele>
        <time>2012-05-26T08:47:47Z</time>
      </trkpt>
      <trkpt lat="43.20065" lon="5.50509">
        <ele>62.14</ele>
        <time>2012-05-26T08:47:58Z</time>
      </trkpt>
      <trkpt lat="43.2007" lon="5.50499">
        <ele>63.58</ele>
        <time>2012-05-26T08:48:09Z</time>
      </trkpt>
      <trkpt lat="43.20075" lon="5.5049">
        <ele>63.58</ele>
        <time>2012-05-26T08:48:20Z</time>
      </trkpt>
      <trkpt lat="43.20078" lon="5.50477">
        <ele>62.62</ele>
        <time>2012-05-26T08:48:32Z</time>
      </trkpt>
      <trkpt lat="43.20083" lon="5.50462">
        <ele>63.1</ele>
        <time>2012-05-26T08:48:44Z</time>
      </trkpt>
      <trkpt lat="43.20089" lon="5.50447">
        <ele>65.51</ele>
        <time>2012-05-26T08:48:58Z</time>
      </trkpt>
      <trkpt lat="43.20088" lon="5.50441">
        <ele>65.99</ele>
        <time>2012-05-26T08:49:02Z</time>
      </trkpt>
      <trkpt lat="43.20086" lon="5.50438">
        <ele>65.99</ele>
        <time>2012-05-26T08:49:04Z</time>
      </trkpt>
      <trkpt lat="43.20086" lon="5.50427">
        <ele>66.95</ele>
        <time>2012-05-26T08:49:12Z</time>
      </trkpt>
      <trkpt lat="43.20088" lon="5.50415">
        <ele>68.87</ele>
        <time>2012-05-26T08:49:24Z</time>
      </trkpt>
      <trkpt lat="43.20092" lon="5.50407">
        <ele>70.79</ele>
        <time>2012-05-26T08:49:35Z</time>
      </trkpt>
      <trkpt lat="43.20099" lon="5.504">
        <ele>72.72</ele>
        <time>2012-05-26T08:49:47Z</time>
      </trkpt>
      <trkpt lat="43.20105" lon="5.50394">
        <ele>74.64</ele>
        <time>2012-05-26T08:50:01Z</time>
      </trkpt>
      <trkpt lat="43.20111" lon="5.50386">
        <ele>77.04</ele>
        <time>2012-05-26T08:50:12Z</time>
      </trkpt>
      <trkpt lat="43.20117" lon="5.50373">
        <ele>78</ele>
        <time>2012-05-26T08:50:24Z</time>
      </trkpt>
      <trkpt lat="43.20122" lon="5.50369">
        <ele>78.97</ele>
        <time>2012-05-26T08:50:31Z</time>
      </trkpt>
      <trkpt lat="43.2013" lon="5.5036">
        <ele>80.89</ele>
        <time>2012-05-26T08:50:43Z</time>
      </trkpt>
      <trkpt lat="43.20138" lon="5.50353">
        <ele>82.81</ele>
        <time>2012-05-26T08:50:56Z</time>
      </trkpt>
      <trkpt lat="43.20144" lon="5.50347">
        <ele>85.21</ele>
        <time>2012-05-26T08:51:06Z</time>
      </trkpt>
      <trkpt lat="43.20148" lon="5.50332">
        <ele>85.21</ele>
        <time>2012-05-26T08:51:20Z</time>
      </trkpt>
      <trkpt lat="43.20147" lon="5.50318">
        <ele>87.14</ele>
        <time>2012-05-26T08:51:34Z</time>
      </trkpt>
      <trkpt lat="43.20151" lon="5.50304">
        <ele>90.02</ele>
        <time>2012-05-26T08:51:49Z</time>
      </trkpt>
      <trkpt lat="43.20154" lon="5.50291">
        <ele>90.98</ele>
        <time>2012-05-26T08:52:01Z</time>
      </trkpt>
      <trkpt lat="43.20154" lon="5.50285">
        <ele>91.94</ele>
        <time>2012-05-26T08:52:14Z</time>
      </trkpt>
      <trkpt lat="43.20154" lon="5.50285">
        <ele>90.98</ele>
        <time>2012-05-26T08:53:23Z</time>
      </trkpt>
      <trkpt lat="43.2016" lon="5.50277">
        <ele>93.39</ele>
        <time>2012-05-26T08:54:08Z</time>
      </trkpt>
      <trkpt lat="43.20164" lon="5.50269">
        <ele>95.79</ele>
        <time>2012-05-26T08:54:19Z</time>
      </trkpt>
      <trkpt lat="43.2017" lon="5.5026">
        <ele>97.23</ele>
        <time>2012-05-26T08:54:29Z</time>
      </trkpt>
      <trkpt lat="43.20172" lon="5.50253">
        <ele>98.19</ele>
        <time>2012-05-26T08:54:36Z</time>
      </trkpt>
      <trkpt lat="43.20177" lon="5.50239">
        <ele>99.15</ele>
        <time>2012-05-26T08:54:48Z</time>
      </trkpt>
      <trkpt lat="43.20185" lon="5.5023">
        <ele>101.56</ele>
        <time>2012-05-26T08:55:02Z</time>
      </trkpt>
      <trkpt lat="43.20192" lon="5.50222">
        <ele>103.48</ele>
        <time>2012-05-26T08:55:15Z</time>
      </trkpt>
      <trkpt lat="43.202" lon="5.50217">
        <ele>105.88</ele>
        <time>2012-05-26T08:55:27Z</time>
      </trkpt>
      <trkpt lat="43.20204" lon="5.50202">
        <ele>107.81</ele>
        <time>2012-05-26T08:55:41Z</time>
      </trkpt>
      <trkpt lat="43.20207" lon="5.50187">
        <ele>110.21</ele>
        <time>2012-05-26T08:55:56Z</time>
      </trkpt>
      <trkpt lat="43.20212" lon="5.50182">
        <ele>112.13</ele>
        <time>2012-05-26T08:56:09Z</time>
      </trkpt>
      <trkpt lat="43.20216" lon="5.5017">
        <ele>114.05</ele>
        <time>2012-05-26T08:56:21Z</time>
      </trkpt>
      <trkpt lat="43.20221" lon="5.50161">
        <ele>115.5</ele>
        <time>2012-05-26T08:56:30Z</time>
      </trkpt>
      <trkpt lat="43.2023" lon="5.50153">
        <ele>116.94</ele>
        <time>2012-05-26T08:56:42Z</time>
      </trkpt>
      <trkpt lat="43.20243" lon="5.50153">
        <ele>118.38</ele>
        <time>2012-05-26T08:56:55Z</time>
      </trkpt>
      <trkpt lat="43.20258" lon="5.50154">
        <ele>120.78</ele>
        <time>2012-05-26T08:57:10Z</time>
      </trkpt>
      <trkpt lat="43.20261" lon="5.50151">
        <ele>121.26</ele>
        <time>2012-05-26T08:57:19Z</time>
      </trkpt>
      <trkpt lat="43.20258" lon="5.5015">
        <ele>121.26</ele>
        <time>2012-05-26T08:57:36Z</time>
      </trkpt>
      <trkpt lat="43.2026" lon="5.5015">
        <ele>121.26</ele>
        <time>2012-05-26T08:58:22Z</time>
      </trkpt>
      <trkpt lat="43.20271" lon="5.5015">
        <ele>122.22</ele>
        <time>2012-05-26T08:58:35Z</time>
      </trkpt>
      <trkpt lat="43.20275" lon="5.5015">
        <ele>122.71</ele>
        <time>2012-05-26T08:58:54Z</time>
      </trkpt>
      <trkpt lat="43.20283" lon="5.50147">
        <ele>123.67</ele>
        <time>2012-05-26T08:59:41Z</time>
      </trkpt>
      <trkpt lat="43.20294" lon="5.50142">
        <ele>124.63</ele>
        <time>2012-05-26T08:59:56Z</time>
      </trkpt>
      <trkpt lat="43.20303" lon="5.50139">
        <ele>125.59</ele>
        <time>2012-05-26T09:00:06Z</time>
      </trkpt>
      <trkpt lat="43.20313" lon="5.50131">
        <ele>126.55</ele>
        <time>2012-05-26T09:00:17Z</time>
      </trkpt>
      <trkpt lat="43.20323" lon="5.50131">
        <ele>128.95</ele>
        <time>2012-05-26T09:00:31Z</time>
      </trkpt>
      <trkpt lat="43.20335" lon="5.50122">
        <ele>129.92</ele>
        <time>2012-05-26T09:00:44Z</time>
      </trkpt>
      <trkpt lat="43.20344" lon="5.50117">
        <ele>130.88</ele>
        <time>2012-05-26T09:00:52Z</time>
      </trkpt>
      <trkpt lat="43.20344" lon="5.50113">
        <ele>130.88</ele>
        <time>2012-05-26T09:00:54Z</time>
      </trkpt>
      <trkpt lat="43.20347" lon="5.50103">
        <ele>129.92</ele>
        <time>2012-05-26T09:01:04Z</time>
      </trkpt>
      <trkpt lat="43.20347" lon="5.50091">
        <ele>128.47</ele>
        <time>2012-05-26T09:01:13Z</time>
      </trkpt>
      <trkpt lat="43.20347" lon="5.50088">
        <ele>127.51</ele>
        <time>2012-05-26T09:01:15Z</time>
      </trkpt>
      <trkpt lat="43.20348" lon="5.50082">
        <ele>127.99</ele>
        <time>2012-05-26T09:01:19Z</time>
      </trkpt>
      <trkpt lat="43.20347" lon="5.50078">
        <ele>127.99</ele>
        <time>2012-05-26T09:01:22Z</time>
      </trkpt>
      <trkpt lat="43.20347" lon="5.50073">
        <ele>127.51</ele>
        <time>2012-05-26T09:01:25Z</time>
      </trkpt>
      <trkpt lat="43.2034" lon="5.50063">
        <ele>126.55</ele>
        <time>2012-05-26T09:01:35Z</time>
      </trkpt>
      <trkpt lat="43.20335" lon="5.50046">
        <ele>127.51</ele>
        <time>2012-05-26T09:01:48Z</time>
      </trkpt>
      <trkpt lat="43.20335" lon="5.50038">
        <ele>128.47</ele>
        <time>2012-05-26T09:01:53Z</time>
      </trkpt>
      <trkpt lat="43.20334" lon="5.50031">
        <ele>128.95</ele>
        <time>2012-05-26T09:01:58Z</time>
      </trkpt>
      <trkpt lat="43.20331" lon="5.50018">
        <ele>128.95</ele>
        <time>2012-05-26T09:02:10Z</time>
      </trkpt>
      <trkpt lat="43.20331" lon="5.50019">
        <ele>128.95</ele>
        <time>2012-05-26T09:02:21Z</time>
      </trkpt>
      <trkpt lat="43.20331" lon="5.50019">
        <ele>128.47</ele>
        <time>2012-05-26T09:03:01Z</time>
      </trkpt>
      <trkpt lat="43.20331" lon="5.5002">
        <ele>129.43</ele>
        <time>2012-05-26T09:03:46Z</time>
      </trkpt>
      <trkpt lat="43.20331" lon="5.5002">
        <ele>128.95</ele>
        <time>2012-05-26T09:04:50Z</time>
      </trkpt>
      <trkpt lat="43.20331" lon="5.5002">
        <ele>129.43</ele>
        <time>2012-05-26T09:05:34Z</time>
      </trkpt>
      <trkpt lat="43.20333" lon="5.50022">
        <ele>128.95</ele>
        <time>2012-05-26T09:06:07Z</time>
      </trkpt>
      <trkpt lat="43.20333" lon="5.5002">
        <ele>129.92</ele>
        <time>2012-05-26T09:06:34Z</time>
      </trkpt>
      <trkpt lat="43.20332" lon="5.50022">
        <ele>129.43</ele>
        <time>2012-05-26T09:07:04Z</time>
      </trkpt>
      <trkpt lat="43.20332" lon="5.50022">
        <ele>129.92</ele>
        <time>2012-05-26T09:07:18Z</time>
      </trkpt>
      <trkpt lat="43.20332" lon="5.50022">
        <ele>128.47</ele>
        <time>2012-05-26T09:07:31Z</time>
      </trkpt>
      <trkpt lat="43.20332" lon="5.50023">
        <ele>130.4</ele>
        <time>2012-05-26T09:08:23Z</time>
      </trkpt>
      <trkpt lat="43.20338" lon="5.50026">
        <ele>130.88</ele>
        <time>2012-05-26T09:08:35Z</time>
      </trkpt>
      <trkpt lat="43.20345" lon="5.50025">
        <ele>131.84</ele>
        <time>2012-05-26T09:08:43Z</time>
      </trkpt>
      <trkpt lat="43.20347" lon="5.50023">
        <ele>132.32</ele>
        <time>2012-05-26T09:08:45Z</time>
      </trkpt>
      <trkpt lat="43.20352" lon="5.50013">
        <ele>133.28</ele>
        <time>2012-05-26T09:08:56Z</time>
      </trkpt>
      <trkpt lat="43.20354" lon="5.50006">
        <ele>132.32</ele>
        <time>2012-05-26T09:09:16Z</time>
      </trkpt>
      <trkpt lat="43.20363" lon="5.49998">
        <ele>133.28</ele>
        <time>2012-05-26T09:09:28Z</time>
      </trkpt>
      <trkpt lat="43.20366" lon="5.49994">
        <ele>133.28</ele>
        <time>2012-05-26T09:09:33Z</time>
      </trkpt>
      <trkpt lat="43.2037" lon="5.49979">
        <ele>132.32</ele>
        <time>2012-05-26T09:09:46Z</time>
      </trkpt>
      <trkpt lat="43.20373" lon="5.4997">
        <ele>131.84</ele>
        <time>2012-05-26T09:09:57Z</time>
      </trkpt>
      <trkpt lat="43.20376" lon="5.49956">
        <ele>131.36</ele>
        <time>2012-05-26T09:10:06Z</time>
      </trkpt>
      <trkpt lat="43.20379" lon="5.49951">
        <ele>132.32</ele>
        <time>2012-05-26T09:10:10Z</time>
      </trkpt>
      <trkpt lat="43.20379" lon="5.49948">
        <ele>132.32</ele>
        <time>2012-05-26T09:10:12Z</time>
      </trkpt>
      <trkpt lat="43.20382" lon="5.49942">
        <ele>133.28</ele>
        <time>2012-05-26T09:10:17Z</time>
      </trkpt>
      <trkpt lat="43.20386" lon="5.49934">
        <ele>135.68</ele>
        <time>2012-05-26T09:10:29Z</time>
      </trkpt>
      <trkpt lat="43.20386" lon="5.49933">
        <ele>135.2</ele>
        <time>2012-05-26T09:10:42Z</time>
      </trkpt>
      <trkpt lat="43.20385" lon="5.49935">
        <ele>134.24</ele>
        <time>2012-05-26T09:10:52Z</time>
      </trkpt>
      <trkpt lat="43.20381" lon="5.49943">
        <ele>132.32</ele>
        <time>2012-05-26T09:11:03Z</time>
      </trkpt>
      <trkpt lat="43.20381" lon="5.49945">
        <ele>131.84</ele>
        <time>2012-05-26T09:11:04Z</time>
      </trkpt>
      <trkpt lat="43.2038" lon="5.49948">
        <ele>131.84</ele>
        <time>2012-05-26T09:11:06Z</time>
      </trkpt>
      <trkpt lat="43.20377" lon="5.49956">
        <ele>131.36</ele>
        <time>2012-05-26T09:11:10Z</time>
      </trkpt>
      <trkpt lat="43.20374" lon="5.49969">
        <ele>132.32</ele>
        <time>2012-05-26T09:11:19Z</time>
      </trkpt>
      <trkpt lat="43.20369" lon="5.49977">
        <ele>132.8</ele>
        <time>2012-05-26T09:11:28Z</time>
      </trkpt>
      <trkpt lat="43.20368" lon="5.49977">
        <ele>132.32</ele>
        <time>2012-05-26T09:11:34Z</time>
      </trkpt>
      <trkpt lat="43.20365" lon="5.49975">
        <ele>129.43</ele>
        <time>2012-05-26T09:11:47Z</time>
      </trkpt>
      <trkpt lat="43.20364" lon="5.49976">
        <ele>128.47</ele>
        <time>2012-05-26T09:11:51Z</time>
      </trkpt>
      <trkpt lat="43.20358" lon="5.49974">
        <ele>127.03</ele>
        <time>2012-05-26T09:12:00Z</time>
      </trkpt>
      <trkpt lat="43.20355" lon="5.4998">
        <ele>126.55</ele>
        <time>2012-05-26T09:12:04Z</time>
      </trkpt>
      <trkpt lat="43.20354" lon="5.49985">
        <ele>127.51</ele>
        <time>2012-05-26T09:12:12Z</time>
      </trkpt>
      <trkpt lat="43.20348" lon="5.49995">
        <ele>127.51</ele>
        <time>2012-05-26T09:12:24Z</time>
      </trkpt>
      <trkpt lat="43.20347" lon="5.50002">
        <ele>127.99</ele>
        <time>2012-05-26T09:12:33Z</time>
      </trkpt>
      <trkpt lat="43.20343" lon="5.50004">
        <ele>126.55</ele>
        <time>2012-05-26T09:12:42Z</time>
      </trkpt>
      <trkpt lat="43.20342" lon="5.50008">
        <ele>126.55</ele>
        <time>2012-05-26T09:12:48Z</time>
      </trkpt>
      <trkpt lat="43.2034" lon="5.50007">
        <ele>127.03</ele>
        <time>2012-05-26T09:12:55Z</time>
      </trkpt>
      <trkpt lat="43.20337" lon="5.50008">
        <ele>126.55</ele>
        <time>2012-05-26T09:13:00Z</time>
      </trkpt>
      <trkpt lat="43.20331" lon="5.50005">
        <ele>124.63</ele>
        <time>2012-05-26T09:13:09Z</time>
      </trkpt>
      <trkpt lat="43.20326" lon="5.50007">
        <ele>124.15</ele>
        <time>2012-05-26T09:13:25Z</time>
      </trkpt>
      <trkpt lat="43.20316" lon="5.50005">
        <ele>126.07</ele>
        <time>2012-05-26T09:13:35Z</time>
      </trkpt>
      <trkpt lat="43.20315" lon="5.50006">
        <ele>126.07</ele>
        <time>2012-05-26T09:13:38Z</time>
      </trkpt>
      <trkpt lat="43.20312" lon="5.50004">
        <ele>126.07</ele>
        <time>2012-05-26T09:13:46Z</time>
      </trkpt>
      <trkpt lat="43.2031" lon="5.50008">
        <ele>125.59</ele>
        <time>2012-05-26T09:13:50Z</time>
      </trkpt>
      <trkpt lat="43.20308" lon="5.50005">
        <ele>125.59</ele>
        <time>2012-05-26T09:13:55Z</time>
      </trkpt>
      <trkpt lat="43.20303" lon="5.50004">
        <ele>124.63</ele>
        <time>2012-05-26T09:14:06Z</time>
      </trkpt>
      <trkpt lat="43.20304" lon="5.50005">
        <ele>125.11</ele>
        <time>2012-05-26T09:14:12Z</time>
      </trkpt>
      <trkpt lat="43.20306" lon="5.50005">
        <ele>125.11</ele>
        <time>2012-05-26T09:14:22Z</time>
      </trkpt>
      <trkpt lat="43.20305" lon="5.5001">
        <ele>123.19</ele>
        <time>2012-05-26T09:14:33Z</time>
      </trkpt>
      <trkpt lat="43.20305" lon="5.50022">
        <ele>121.74</ele>
        <time>2012-05-26T09:14:53Z</time>
      </trkpt>
      <trkpt lat="43.20299" lon="5.5002">
        <ele>119.34</ele>
        <time>2012-05-26T09:15:00Z</time>
      </trkpt>
      <trkpt lat="43.20292" lon="5.50021">
        <ele>117.42</ele>
        <time>2012-05-26T09:15:12Z</time>
      </trkpt>
      <trkpt lat="43.20292" lon="5.50025">
        <ele>116.46</ele>
        <time>2012-05-26T09:15:25Z</time>
      </trkpt>
      <trkpt lat="43.20292" lon="5.50031">
        <ele>114.05</ele>
        <time>2012-05-26T09:15:37Z</time>
      </trkpt>
      <trkpt lat="43.20292" lon="5.50032">
        <ele>114.05</ele>
        <time>2012-05-26T09:15:38Z</time>
      </trkpt>
      <trkpt lat="43.20294" lon="5.50046">
        <ele>112.61</ele>
        <time>2012-05-26T09:15:50Z</time>
      </trkpt>
      <trkpt lat="43.2029" lon="5.50052">
        <ele>109.73</ele>
        <time>2012-05-26T09:15:59Z</time>
      </trkpt>
      <trkpt lat="43.2029" lon="5.5006">
        <ele>108.29</ele>
        <time>2012-05-26T09:16:06Z</time>
      </trkpt>
      <trkpt lat="43.20292" lon="5.50065">
        <ele>107.81</ele>
        <time>2012-05-26T09:16:18Z</time>
      </trkpt>
      <trkpt lat="43.20292" lon="5.50064">
        <ele>107.32</ele>
        <time>2012-05-26T09:16:45Z</time>
      </trkpt>
      <trkpt lat="43.20294" lon="5.50067">
        <ele>107.32</ele>
        <time>2012-05-26T09:18:08Z</time>
      </trkpt>
      <trkpt lat="43.20294" lon="5.50076">
        <ele>104.92</ele>
        <time>2012-05-26T09:18:23Z</time>
      </trkpt>
      <trkpt lat="43.20296" lon="5.50078">
        <ele>104.92</ele>
        <time>2012-05-26T09:18:41Z</time>
      </trkpt>
      <trkpt lat="43.20295" lon="5.50077">
        <ele>104.44</ele>
        <time>2012-05-26T09:19:34Z</time>
      </trkpt>
      <trkpt lat="43.20293" lon="5.50082">
        <ele>102.04</ele>
        <time>2012-05-26T09:19:46Z</time>
      </trkpt>
      <trkpt lat="43.20287" lon="5.50083">
        <ele>100.11</ele>
        <time>2012-05-26T09:19:59Z</time>
      </trkpt>
      <trkpt lat="43.20284" lon="5.50084">
        <ele>98.67</ele>
        <time>2012-05-26T09:20:10Z</time>
      </trkpt>
      <trkpt lat="43.20282" lon="5.50077">
        <ele>96.75</ele>
        <time>2012-05-26T09:20:22Z</time>
      </trkpt>
      <trkpt lat="43.20277" lon="5.50072">
        <ele>94.35</ele>
        <time>2012-05-26T09:20:34Z</time>
      </trkpt>
      <trkpt lat="43.20273" lon="5.50073">
        <ele>92.42</ele>
        <time>2012-05-26T09:20:45Z</time>
      </trkpt>
      <trkpt lat="43.20268" lon="5.50071">
        <ele>90.5</ele>
        <time>2012-05-26T09:20:56Z</time>
      </trkpt>
      <trkpt lat="43.20263" lon="5.50071">
        <ele>87.62</ele>
        <time>2012-05-26T09:21:08Z</time>
      </trkpt>
      <trkpt lat="43.20262" lon="5.50069">
        <ele>87.14</ele>
        <time>2012-05-26T09:21:27Z</time>
      </trkpt>
      <trkpt lat="43.20257" lon="5.50069">
        <ele>85.69</ele>
        <time>2012-05-26T09:22:25Z</time>
      </trkpt>
      <trkpt lat="43.20252" lon="5.50063">
        <ele>82.81</ele>
        <time>2012-05-26T09:22:39Z</time>
      </trkpt>
      <trkpt lat="43.20248" lon="5.5006">
        <ele>80.89</ele>
        <time>2012-05-26T09:22:53Z</time>
      </trkpt>
      <trkpt lat="43.20245" lon="5.5006">
        <ele>79.93</ele>
        <time>2012-05-26T09:23:00Z</time>
      </trkpt>
      <trkpt lat="43.20241" lon="5.50053">
        <ele>77.52</ele>
        <time>2012-05-26T09:23:15Z</time>
      </trkpt>
      <trkpt lat="43.20241" lon="5.50053">
        <ele>77.52</ele>
        <time>2012-05-26T09:23:19Z</time>
      </trkpt>
      <trkpt lat="43.20241" lon="5.50051">
        <ele>78</ele>
        <time>2012-05-26T09:23:40Z</time>
      </trkpt>
      <trkpt lat="43.20241" lon="5.50048">
        <ele>76.08</ele>
        <time>2012-05-26T09:24:51Z</time>
      </trkpt>
      <trkpt lat="43.20237" lon="5.5004">
        <ele>76.56</ele>
        <time>2012-05-26T09:25:03Z</time>
      </trkpt>
      <trkpt lat="43.20233" lon="5.50029">
        <ele>75.6</ele>
        <time>2012-05-26T09:25:14Z</time>
      </trkpt>
      <trkpt lat="43.20232" lon="5.50027">
        <ele>74.64</ele>
        <time>2012-05-26T09:25:47Z</time>
      </trkpt>
      <trkpt lat="43.20232" lon="5.50028">
        <ele>74.64</ele>
        <time>2012-05-26T09:27:31Z</time>
      </trkpt>
      <trkpt lat="43.20232" lon="5.50028">
        <ele>74.16</ele>
        <time>2012-05-26T09:27:39Z</time>
      </trkpt>
      <trkpt lat="43.2023" lon="5.50026">
        <ele>71.76</ele>
        <time>2012-05-26T09:27:50Z</time>
      </trkpt>
      <trkpt lat="43.2023" lon="5.50026">
        <ele>69.83</ele>
        <time>2012-05-26T09:28:04Z</time>
      </trkpt>
      <trkpt lat="43.2023" lon="5.50026">
        <ele>69.35</ele>
        <time>2012-05-26T09:28:11Z</time>
      </trkpt>
      <trkpt lat="43.20229" lon="5.50023">
        <ele>69.83</ele>
        <time>2012-05-26T09:28:28Z</time>
      </trkpt>
      <trkpt lat="43.20227" lon="5.50025">
        <ele>69.83</ele>
        <time>2012-05-26T09:29:00Z</time>
      </trkpt>
      <trkpt lat="43.20224" lon="5.50021">
        <ele>69.35</ele>
        <time>2012-05-26T09:29:15Z</time>
      </trkpt>
      <trkpt lat="43.2022" lon="5.50022">
        <ele>69.35</ele>
        <time>2012-05-26T09:29:29Z</time>
      </trkpt>
      <trkpt lat="43.20217" lon="5.50022">
        <ele>67.91</ele>
        <time>2012-05-26T09:29:42Z</time>
      </trkpt>
      <trkpt lat="43.2022" lon="5.50024">
        <ele>69.83</ele>
        <time>2012-05-26T09:30:11Z</time>
      </trkpt>
      <trkpt lat="43.20221" lon="5.50024">
        <ele>72.24</ele>
        <time>2012-05-26T09:30:19Z</time>
      </trkpt>
      <trkpt lat="43.20221" lon="5.50024">
        <ele>72.72</ele>
        <time>2012-05-26T09:30:34Z</time>
      </trkpt>
      <trkpt lat="43.20227" lon="5.50023">
        <ele>74.64</ele>
        <time>2012-05-26T09:30:50Z</time>
      </trkpt>
      <trkpt lat="43.20231" lon="5.50031">
        <ele>77.04</ele>
        <time>2012-05-26T09:31:06Z</time>
      </trkpt>
      <trkpt lat="43.2024" lon="5.50041">
        <ele>78.48</ele>
        <time>2012-05-26T09:31:19Z</time>
      </trkpt>
      <trkpt lat="43.20241" lon="5.50048">
        <ele>78.48</ele>
        <time>2012-05-26T09:31:30Z</time>
      </trkpt>
      <trkpt lat="43.20246" lon="5.50062">
        <ele>79.93</ele>
        <time>2012-05-26T09:31:45Z</time>
      </trkpt>
      <trkpt lat="43.2025" lon="5.50063">
        <ele>82.33</ele>
        <time>2012-05-26T09:31:58Z</time>
      </trkpt>
      <trkpt lat="43.20255" lon="5.50068">
        <ele>84.25</ele>
        <time>2012-05-26T09:32:08Z</time>
      </trkpt>
      <trkpt lat="43.20262" lon="5.50071">
        <ele>86.66</ele>
        <time>2012-05-26T09:32:19Z</time>
      </trkpt>
      <trkpt lat="43.20265" lon="5.50069">
        <ele>88.58</ele>
        <time>2012-05-26T09:32:34Z</time>
      </trkpt>
      <trkpt lat="43.20271" lon="5.50071">
        <ele>91.46</ele>
        <time>2012-05-26T09:32:47Z</time>
      </trkpt>
      <trkpt lat="43.20275" lon="5.50072">
        <ele>92.9</ele>
        <time>2012-05-26T09:32:59Z</time>
      </trkpt>
      <trkpt lat="43.20281" lon="5.50074">
        <ele>95.79</ele>
        <time>2012-05-26T09:33:12Z</time>
      </trkpt>
      <trkpt lat="43.20286" lon="5.50082">
        <ele>97.71</ele>
        <time>2012-05-26T09:33:22Z</time>
      </trkpt>
      <trkpt lat="43.20289" lon="5.50085">
        <ele>99.63</ele>
        <time>2012-05-26T09:33:34Z</time>
      </trkpt>
      <trkpt lat="43.20291" lon="5.50084">
        <ele>102.52</ele>
        <time>2012-05-26T09:33:50Z</time>
      </trkpt>
      <trkpt lat="43.20294" lon="5.50082">
        <ele>103.96</ele>
        <time>2012-05-26T09:34:02Z</time>
      </trkpt>
      <trkpt lat="43.20297" lon="5.50078">
        <ele>105.88</ele>
        <time>2012-05-26T09:34:13Z</time>
      </trkpt>
      <trkpt lat="43.20297" lon="5.50078">
        <ele>105.88</ele>
        <time>2012-05-26T09:34:29Z</time>
      </trkpt>
      <trkpt lat="43.20296" lon="5.50075">
        <ele>106.36</ele>
        <time>2012-05-26T09:34:32Z</time>
      </trkpt>
      <trkpt lat="43.20293" lon="5.5006">
        <ele>107.32</ele>
        <time>2012-05-26T09:34:42Z</time>
      </trkpt>
      <trkpt lat="43.20295" lon="5.50057">
        <ele>110.21</ele>
        <time>2012-05-26T09:34:52Z</time>
      </trkpt>
      <trkpt lat="43.20295" lon="5.50057">
        <ele>112.13</ele>
        <time>2012-05-26T09:35:04Z</time>
      </trkpt>
      <trkpt lat="43.20295" lon="5.50048">
        <ele>114.05</ele>
        <time>2012-05-26T09:35:15Z</time>
      </trkpt>
      <trkpt lat="43.20296" lon="5.50034">
        <ele>115.5</ele>
        <time>2012-05-26T09:35:25Z</time>
      </trkpt>
      <trkpt lat="43.20299" lon="5.50031">
        <ele>118.38</ele>
        <time>2012-05-26T09:35:38Z</time>
      </trkpt>
      <trkpt lat="43.20305" lon="5.50031">
        <ele>120.78</ele>
        <time>2012-05-26T09:35:50Z</time>
      </trkpt>
      <trkpt lat="43.20313" lon="5.50029">
        <ele>122.22</ele>
        <time>2012-05-26T09:36:00Z</time>
      </trkpt>
      <trkpt lat="43.20317" lon="5.50033">
        <ele>123.67</ele>
        <time>2012-05-26T09:36:12Z</time>
      </trkpt>
      <trkpt lat="43.20323" lon="5.5004">
        <ele>127.03</ele>
        <time>2012-05-26T09:36:25Z</time>
      </trkpt>
      <trkpt lat="43.20336" lon="5.50052">
        <ele>127.51</ele>
        <time>2012-05-26T09:36:38Z</time>
      </trkpt>
      <trkpt lat="43.20337" lon="5.50042">
        <ele>128.95</ele>
        <time>2012-05-26T09:36:51Z</time>
      </trkpt>
      <trkpt lat="43.20337" lon="5.50042">
        <ele>128.47</ele>
        <time>2012-05-26T09:37:32Z</time>
      </trkpt>
      <trkpt lat="43.20337" lon="5.50041">
        <ele>128.47</ele>
        <time>2012-05-26T09:38:12Z</time>
      </trkpt>
      <trkpt lat="43.20337" lon="5.50041">
        <ele>128.47</ele>
        <time>2012-05-26T09:38:35Z</time>
      </trkpt>
      <trkpt lat="43.20337" lon="5.50041">
        <ele>127.99</ele>
        <time>2012-05-26T09:39:16Z</time>
      </trkpt>
      <trkpt lat="43.20338" lon="5.5004">
        <ele>127.99</ele>
        <time>2012-05-26T09:39:34Z</time>
      </trkpt>
      <trkpt lat="43.20338" lon="5.50038">
        <ele>128.47</ele>
        <time>2012-05-26T09:39:58Z</time>
      </trkpt>
      <trkpt lat="43.20338" lon="5.50038">
        <ele>128.47</ele>
        <time>2012-05-26T09:40:01Z</time>
      </trkpt>
      <trkpt lat="43.2034" lon="5.50037">
        <ele>129.92</ele>
        <time>2012-05-26T09:40:06Z</time>
      </trkpt>
      <trkpt lat="43.20345" lon="5.50032">
        <ele>130.4</ele>
        <time>2012-05-26T09:40:12Z</time>
      </trkpt>
      <trkpt lat="43.20351" lon="5.50021">
        <ele>131.36</ele>
        <time>2012-05-26T09:40:21Z</time>
      </trkpt>
      <trkpt lat="43.20354" lon="5.5001">
        <ele>131.36</ele>
        <time>2012-05-26T09:40:29Z</time>
      </trkpt>
      <trkpt lat="43.2036" lon="5.50003">
        <ele>130.88</ele>
        <time>2012-05-26T09:40:36Z</time>
      </trkpt>
      <trkpt lat="43.20362" lon="5.50001">
        <ele>130.88</ele>
        <time>2012-05-26T09:40:39Z</time>
      </trkpt>
      <trkpt lat="43.2037" lon="5.49986">
        <ele>130.4</ele>
        <time>2012-05-26T09:40:52Z</time>
      </trkpt>
      <trkpt lat="43.20372" lon="5.49976">
        <ele>129.92</ele>
        <time>2012-05-26T09:41:03Z</time>
      </trkpt>
      <trkpt lat="43.20374" lon="5.49965">
        <ele>129.92</ele>
        <time>2012-05-26T09:41:09Z</time>
      </trkpt>
      <trkpt lat="43.20382" lon="5.49947">
        <ele>130.4</ele>
        <time>2012-05-26T09:41:20Z</time>
      </trkpt>
      <trkpt lat="43.20388" lon="5.49936">
        <ele>132.32</ele>
        <time>2012-05-26T09:41:30Z</time>
      </trkpt>
      <trkpt lat="43.20392" lon="5.49929">
        <ele>133.76</ele>
        <time>2012-05-26T09:41:37Z</time>
      </trkpt>
      <trkpt lat="43.20392" lon="5.49923">
        <ele>134.24</ele>
        <time>2012-05-26T09:41:42Z</time>
      </trkpt>
      <trkpt lat="43.20388" lon="5.49917">
        <ele>133.28</ele>
        <time>2012-05-26T09:41:47Z</time>
      </trkpt>
      <trkpt lat="43.20387" lon="5.49911">
        <ele>132.8</ele>
        <time>2012-05-26T09:41:52Z</time>
      </trkpt>
      <trkpt lat="43.20387" lon="5.49909">
        <ele>133.28</ele>
        <time>2012-05-26T09:41:53Z</time>
      </trkpt>
      <trkpt lat="43.2039" lon="5.4989">
        <ele>135.2</ele>
        <time>2012-05-26T09:42:06Z</time>
      </trkpt>
      <trkpt lat="43.20391" lon="5.4988">
        <ele>136.16</ele>
        <time>2012-05-26T09:42:15Z</time>
      </trkpt>
      <trkpt lat="43.20388" lon="5.49867">
        <ele>136.64</ele>
        <time>2012-05-26T09:42:27Z</time>
      </trkpt>
      <trkpt lat="43.20387" lon="5.49852">
        <ele>136.64</ele>
        <time>2012-05-26T09:42:39Z</time>
      </trkpt>
      <trkpt lat="43.20389" lon="5.4985">
        <ele>137.13</ele>
        <time>2012-05-26T09:43:13Z</time>
      </trkpt>
      <trkpt lat="43.20393" lon="5.49852">
        <ele>138.57</ele>
        <time>2012-05-26T09:43:24Z</time>
      </trkpt>
      <trkpt lat="43.20396" lon="5.49849">
        <ele>139.53</ele>
        <time>2012-05-26T09:43:27Z</time>
      </trkpt>
      <trkpt lat="43.20406" lon="5.49844">
        <ele>140.97</ele>
        <time>2012-05-26T09:43:38Z</time>
      </trkpt>
      <trkpt lat="43.20417" lon="5.49846">
        <ele>142.41</ele>
        <time>2012-05-26T09:43:50Z</time>
      </trkpt>
      <trkpt lat="43.20422" lon="5.49842">
        <ele>142.89</ele>
        <time>2012-05-26T09:43:58Z</time>
      </trkpt>
      <trkpt lat="43.20429" lon="5.49842">
        <ele>143.85</ele>
        <time>2012-05-26T09:44:08Z</time>
      </trkpt>
      <trkpt lat="43.20435" lon="5.49847">
        <ele>144.34</ele>
        <time>2012-05-26T09:44:23Z</time>
      </trkpt>
      <trkpt lat="43.20435" lon="5.49847">
        <ele>145.3</ele>
        <time>2012-05-26T09:45:23Z</time>
      </trkpt>
      <trkpt lat="43.20435" lon="5.49848">
        <ele>144.34</ele>
        <time>2012-05-26T09:45:44Z</time>
      </trkpt>
      <trkpt lat="43.20436" lon="5.49848">
        <ele>145.78</ele>
        <time>2012-05-26T09:46:13Z</time>
      </trkpt>
      <trkpt lat="43.20437" lon="5.49845">
        <ele>144.82</ele>
        <time>2012-05-26T09:47:19Z</time>
      </trkpt>
      <trkpt lat="43.20438" lon="5.49841">
        <ele>144.82</ele>
        <time>2012-05-26T09:47:22Z</time>
      </trkpt>
      <trkpt lat="43.20445" lon="5.49834">
        <ele>145.78</ele>
        <time>2012-05-26T09:47:31Z</time>
      </trkpt>
      <trkpt lat="43.20448" lon="5.49824">
        <ele>146.26</ele>
        <time>2012-05-26T09:47:37Z</time>
      </trkpt>
      <trkpt lat="43.2045" lon="5.49819">
        <ele>146.74</ele>
        <time>2012-05-26T09:47:42Z</time>
      </trkpt>
      <trkpt lat="43.20455" lon="5.49815">
        <ele>147.22</ele>
        <time>2012-05-26T09:47:45Z</time>
      </trkpt>
      <trkpt lat="43.20457" lon="5.49813">
        <ele>148.18</ele>
        <time>2012-05-26T09:47:47Z</time>
      </trkpt>
      <trkpt lat="43.20462" lon="5.49811">
        <ele>147.7</ele>
        <time>2012-05-26T09:47:53Z</time>
      </trkpt>
      <trkpt lat="43.20466" lon="5.49809">
        <ele>148.18</ele>
        <time>2012-05-26T09:47:57Z</time>
      </trkpt>
      <trkpt lat="43.20467" lon="5.49807">
        <ele>148.18</ele>
        <time>2012-05-26T09:48:00Z</time>
      </trkpt>
      <trkpt lat="43.20472" lon="5.49801">
        <ele>147.7</ele>
        <time>2012-05-26T09:48:09Z</time>
      </trkpt>
      <trkpt lat="43.20473" lon="5.49799">
        <ele>147.7</ele>
        <time>2012-05-26T09:48:11Z</time>
      </trkpt>
      <trkpt lat="43.20477" lon="5.49796">
        <ele>147.22</ele>
        <time>2012-05-26T09:48:17Z</time>
      </trkpt>
      <trkpt lat="43.20478" lon="5.49797">
        <ele>147.22</ele>
        <time>2012-05-26T09:48:25Z</time>
      </trkpt>
      <trkpt lat="43.20477" lon="5.49799">
        <ele>146.74</ele>
        <time>2012-05-26T09:48:28Z</time>
      </trkpt>
      <trkpt lat="43.20476" lon="5.49806">
        <ele>146.26</ele>
        <time>2012-05-26T09:48:39Z</time>
      </trkpt>
      <trkpt lat="43.20475" lon="5.49808">
        <ele>146.26</ele>
        <time>2012-05-26T09:48:50Z</time>
      </trkpt>
      <trkpt lat="43.20471" lon="5.49818">
        <ele>145.78</ele>
        <time>2012-05-26T09:48:59Z</time>
      </trkpt>
      <trkpt lat="43.20467" lon="5.4982">
        <ele>145.78</ele>
        <time>2012-05-26T09:49:02Z</time>
      </trkpt>
      <trkpt lat="43.20466" lon="5.49822">
        <ele>146.26</ele>
        <time>2012-05-26T09:49:04Z</time>
      </trkpt>
      <trkpt lat="43.20467" lon="5.49839">
        <ele>144.82</ele>
        <time>2012-05-26T09:49:16Z</time>
      </trkpt>
      <trkpt lat="43.20465" lon="5.49849">
        <ele>144.34</ele>
        <time>2012-05-26T09:49:23Z</time>
      </trkpt>
      <trkpt lat="43.20462" lon="5.49859">
        <ele>144.34</ele>
        <time>2012-05-26T09:49:29Z</time>
      </trkpt>
      <trkpt lat="43.20463" lon="5.49873">
        <ele>144.82</ele>
        <time>2012-05-26T09:49:37Z</time>
      </trkpt>
      <trkpt lat="43.20459" lon="5.49882">
        <ele>143.85</ele>
        <time>2012-05-26T09:49:43Z</time>
      </trkpt>
      <trkpt lat="43.20461" lon="5.49895">
        <ele>143.85</ele>
        <time>2012-05-26T09:49:53Z</time>
      </trkpt>
      <trkpt lat="43.20467" lon="5.49907">
        <ele>142.89</ele>
        <time>2012-05-26T09:50:03Z</time>
      </trkpt>
      <trkpt lat="43.2047" lon="5.49924">
        <ele>142.41</ele>
        <time>2012-05-26T09:50:13Z</time>
      </trkpt>
      <trkpt lat="43.20471" lon="5.49935">
        <ele>142.41</ele>
        <time>2012-05-26T09:50:21Z</time>
      </trkpt>
      <trkpt lat="43.20472" lon="5.49954">
        <ele>142.89</ele>
        <time>2012-05-26T09:50:31Z</time>
      </trkpt>
      <trkpt lat="43.20473" lon="5.49969">
        <ele>143.37</ele>
        <time>2012-05-26T09:50:41Z</time>
      </trkpt>
      <trkpt lat="43.20476" lon="5.49987">
        <ele>143.37</ele>
        <time>2012-05-26T09:50:51Z</time>
      </trkpt>
      <trkpt lat="43.20477" lon="5.50003">
        <ele>143.85</ele>
        <time>2012-05-26T09:51:01Z</time>
      </trkpt>
      <trkpt lat="43.20477" lon="5.50004">
        <ele>143.85</ele>
        <time>2012-05-26T09:51:02Z</time>
      </trkpt>
      <trkpt lat="43.20479" lon="5.50016">
        <ele>143.85</ele>
        <time>2012-05-26T09:51:08Z</time>
      </trkpt>
      <trkpt lat="43.20477" lon="5.50022">
        <ele>144.34</ele>
        <time>2012-05-26T09:51:13Z</time>
      </trkpt>
      <trkpt lat="43.20478" lon="5.50028">
        <ele>144.34</ele>
        <time>2012-05-26T09:51:29Z</time>
      </trkpt>
      <trkpt lat="43.20478" lon="5.50028">
        <ele>143.85</ele>
        <time>2012-05-26T09:51:33Z</time>
      </trkpt>
      <trkpt lat="43.20482" lon="5.50038">
        <ele>144.34</ele>
        <time>2012-05-26T09:51:40Z</time>
      </trkpt>
      <trkpt lat="43.2049" lon="5.50055">
        <ele>144.34</ele>
        <time>2012-05-26T09:51:51Z</time>
      </trkpt>
      <trkpt lat="43.20494" lon="5.50069">
        <ele>144.82</ele>
        <time>2012-05-26T09:52:03Z</time>
      </trkpt>
      <trkpt lat="43.20495" lon="5.50089">
        <ele>145.78</ele>
        <time>2012-05-26T09:52:13Z</time>
      </trkpt>
      <trkpt lat="43.20495" lon="5.50097">
        <ele>145.78</ele>
        <time>2012-05-26T09:52:18Z</time>
      </trkpt>
      <trkpt lat="43.20495" lon="5.50117">
        <ele>146.26</ele>
        <time>2012-05-26T09:52:31Z</time>
      </trkpt>
      <trkpt lat="43.20497" lon="5.50128">
        <ele>146.74</ele>
        <time>2012-05-26T09:52:37Z</time>
      </trkpt>
      <trkpt lat="43.20502" lon="5.5014">
        <ele>147.22</ele>
        <time>2012-05-26T09:52:46Z</time>
      </trkpt>
      <trkpt lat="43.20513" lon="5.50152">
        <ele>147.22</ele>
        <time>2012-05-26T09:52:56Z</time>
      </trkpt>
      <trkpt lat="43.20524" lon="5.50166">
        <ele>147.7</ele>
        <time>2012-05-26T09:53:07Z</time>
      </trkpt>
      <trkpt lat="43.20527" lon="5.50168">
        <ele>147.7</ele>
        <time>2012-05-26T09:53:11Z</time>
      </trkpt>
      <trkpt lat="43.20539" lon="5.5018">
        <ele>146.26</ele>
        <time>2012-05-26T09:53:22Z</time>
      </trkpt>
      <trkpt lat="43.20551" lon="5.50187">
        <ele>144.34</ele>
        <time>2012-05-26T09:53:33Z</time>
      </trkpt>
      <trkpt lat="43.2056" lon="5.50194">
        <ele>142.41</ele>
        <time>2012-05-26T09:53:42Z</time>
      </trkpt>
      <trkpt lat="43.20574" lon="5.502">
        <ele>139.53</ele>
        <time>2012-05-26T09:53:54Z</time>
      </trkpt>
      <trkpt lat="43.20577" lon="5.50202">
        <ele>139.05</ele>
        <time>2012-05-26T09:53:57Z</time>
      </trkpt>
      <trkpt lat="43.20588" lon="5.50206">
        <ele>136.64</ele>
        <time>2012-05-26T09:54:08Z</time>
      </trkpt>
      <trkpt lat="43.20601" lon="5.50208">
        <ele>133.76</ele>
        <time>2012-05-26T09:54:19Z</time>
      </trkpt>
      <trkpt lat="43.20612" lon="5.50207">
        <ele>132.8</ele>
        <time>2012-05-26T09:54:28Z</time>
      </trkpt>
      <trkpt lat="43.20626" lon="5.50203">
        <ele>132.8</ele>
        <time>2012-05-26T09:54:40Z</time>
      </trkpt>
      <trkpt lat="43.20633" lon="5.50198">
        <ele>133.28</ele>
        <time>2012-05-26T09:54:46Z</time>
      </trkpt>
      <trkpt lat="43.2064" lon="5.50181">
        <ele>132.32</ele>
        <time>2012-05-26T09:54:57Z</time>
      </trkpt>
      <trkpt lat="43.20644" lon="5.50169">
        <ele>132.32</ele>
        <time>2012-05-26T09:55:09Z</time>
      </trkpt>
      <trkpt lat="43.20646" lon="5.50165">
        <ele>131.36</ele>
        <time>2012-05-26T09:55:14Z</time>
      </trkpt>
      <trkpt lat="43.20645" lon="5.5016">
        <ele>129.92</ele>
        <time>2012-05-26T09:55:21Z</time>
      </trkpt>
      <trkpt lat="43.20647" lon="5.50155">
        <ele>128.47</ele>
        <time>2012-05-26T09:55:34Z</time>
      </trkpt>
      <trkpt lat="43.2065" lon="5.50154">
        <ele>128.47</ele>
        <time>2012-05-26T09:55:46Z</time>
      </trkpt>
      <trkpt lat="43.20649" lon="5.50154">
        <ele>128.47</ele>
        <time>2012-05-26T09:56:01Z</time>
      </trkpt>
      <trkpt lat="43.20651" lon="5.50151">
        <ele>127.03</ele>
        <time>2012-05-26T09:56:06Z</time>
      </trkpt>
      <trkpt lat="43.20653" lon="5.50147">
        <ele>127.51</ele>
        <time>2012-05-26T09:56:10Z</time>
      </trkpt>
      <trkpt lat="43.20656" lon="5.50146">
        <ele>127.03</ele>
        <time>2012-05-26T09:56:12Z</time>
      </trkpt>
      <trkpt lat="43.20664" lon="5.50146">
        <ele>124.63</ele>
        <time>2012-05-26T09:56:24Z</time>
      </trkpt>
      <trkpt lat="43.20667" lon="5.50146">
        <ele>122.22</ele>
        <time>2012-05-26T09:56:36Z</time>
      </trkpt>
      <trkpt lat="43.20669" lon="5.5014">
        <ele>119.82</ele>
        <time>2012-05-26T09:56:45Z</time>
      </trkpt>
      <trkpt lat="43.20668" lon="5.50139">
        <ele>119.82</ele>
        <time>2012-05-26T09:56:46Z</time>
      </trkpt>
      <trkpt lat="43.20669" lon="5.50136">
        <ele>116.94</ele>
        <time>2012-05-26T09:56:57Z</time>
      </trkpt>
      <trkpt lat="43.20673" lon="5.50129">
        <ele>114.53</ele>
        <time>2012-05-26T09:57:08Z</time>
      </trkpt>
      <trkpt lat="43.20672" lon="5.50125">
        <ele>112.13</ele>
        <time>2012-05-26T09:57:17Z</time>
      </trkpt>
      <trkpt lat="43.2067" lon="5.50123">
        <ele>111.65</ele>
        <time>2012-05-26T09:57:35Z</time>
      </trkpt>
      <trkpt lat="43.20668" lon="5.5012">
        <ele>109.73</ele>
        <time>2012-05-26T09:58:03Z</time>
      </trkpt>
      <trkpt lat="43.20665" lon="5.50115">
        <ele>106.36</ele>
        <time>2012-05-26T09:58:14Z</time>
      </trkpt>
      <trkpt lat="43.2067" lon="5.50109">
        <ele>104.44</ele>
        <time>2012-05-26T09:58:24Z</time>
      </trkpt>
      <trkpt lat="43.20675" lon="5.50103">
        <ele>101.08</ele>
        <time>2012-05-26T09:58:33Z</time>
      </trkpt>
      <trkpt lat="43.20682" lon="5.501">
        <ele>99.15</ele>
        <time>2012-05-26T09:58:42Z</time>
      </trkpt>
      <trkpt lat="43.20686" lon="5.50094">
        <ele>96.75</ele>
        <time>2012-05-26T09:58:54Z</time>
      </trkpt>
      <trkpt lat="43.20689" lon="5.50089">
        <ele>94.35</ele>
        <time>2012-05-26T09:59:07Z</time>
      </trkpt>
      <trkpt lat="43.20689" lon="5.50089">
        <ele>94.83</ele>
        <time>2012-05-26T09:59:29Z</time>
      </trkpt>
      <trkpt lat="43.20689" lon="5.50089">
        <ele>93.87</ele>
        <time>2012-05-26T09:59:44Z</time>
      </trkpt>
      <trkpt lat="43.20689" lon="5.50085">
        <ele>91.94</ele>
        <time>2012-05-26T09:59:56Z</time>
      </trkpt>
      <trkpt lat="43.20689" lon="5.50085">
        <ele>90.5</ele>
        <time>2012-05-26T10:00:02Z</time>
      </trkpt>
      <trkpt lat="43.20687" lon="5.50081">
        <ele>89.54</ele>
        <time>2012-05-26T10:00:20Z</time>
      </trkpt>
      <trkpt lat="43.20688" lon="5.50083">
        <ele>89.54</ele>
        <time>2012-05-26T10:00:43Z</time>
      </trkpt>
      <trkpt lat="43.20688" lon="5.50082">
        <ele>89.54</ele>
        <time>2012-05-26T10:01:09Z</time>
      </trkpt>
      <trkpt lat="43.20688" lon="5.50082">
        <ele>89.54</ele>
        <time>2012-05-26T10:01:50Z</time>
      </trkpt>
      <trkpt lat="43.20688" lon="5.5008">
        <ele>87.62</ele>
        <time>2012-05-26T10:02:09Z</time>
      </trkpt>
      <trkpt lat="43.2069" lon="5.50072">
        <ele>85.21</ele>
        <time>2012-05-26T10:02:28Z</time>
      </trkpt>
      <trkpt lat="43.20689" lon="5.50067">
        <ele>82.81</ele>
        <time>2012-05-26T10:02:46Z</time>
      </trkpt>
      <trkpt lat="43.20688" lon="5.50061">
        <ele>80.89</ele>
        <time>2012-05-26T10:03:00Z</time>
      </trkpt>
      <trkpt lat="43.20687" lon="5.50058">
        <ele>79.45</ele>
        <time>2012-05-26T10:03:10Z</time>
      </trkpt>
      <trkpt lat="43.2068" lon="5.50059">
        <ele>77.52</ele>
        <time>2012-05-26T10:03:23Z</time>
      </trkpt>
      <trkpt lat="43.20676" lon="5.50059">
        <ele>74.64</ele>
        <time>2012-05-26T10:03:33Z</time>
      </trkpt>
      <trkpt lat="43.20673" lon="5.50053">
        <ele>72.24</ele>
        <time>2012-05-26T10:03:43Z</time>
      </trkpt>
      <trkpt lat="43.2067" lon="5.50051">
        <ele>71.27</ele>
        <time>2012-05-26T10:03:47Z</time>
      </trkpt>
      <trkpt lat="43.20666" lon="5.50044">
        <ele>69.35</ele>
        <time>2012-05-26T10:03:57Z</time>
      </trkpt>
      <trkpt lat="43.20667" lon="5.50042">
        <ele>68.39</ele>
        <time>2012-05-26T10:04:00Z</time>
      </trkpt>
      <trkpt lat="43.20665" lon="5.50038">
        <ele>66.95</ele>
        <time>2012-05-26T10:04:04Z</time>
      </trkpt>
      <trkpt lat="43.20661" lon="5.5003">
        <ele>65.03</ele>
        <time>2012-05-26T10:04:16Z</time>
      </trkpt>
      <trkpt lat="43.20654" lon="5.50024">
        <ele>62.14</ele>
        <time>2012-05-26T10:04:28Z</time>
      </trkpt>
      <trkpt lat="43.20655" lon="5.50023">
        <ele>61.66</ele>
        <time>2012-05-26T10:04:45Z</time>
      </trkpt>
      <trkpt lat="43.20655" lon="5.50023">
        <ele>59.26</ele>
        <time>2012-05-26T10:05:06Z</time>
      </trkpt>
      <trkpt lat="43.20655" lon="5.50023">
        <ele>55.89</ele>
        <time>2012-05-26T10:05:25Z</time>
      </trkpt>
      <trkpt lat="43.20655" lon="5.50023">
        <ele>53.01</ele>
        <time>2012-05-26T10:05:37Z</time>
      </trkpt>
      <trkpt lat="43.20655" lon="5.50023">
        <ele>50.61</ele>
        <time>2012-05-26T10:05:52Z</time>
      </trkpt>
      <trkpt lat="43.20655" lon="5.50023">
        <ele>48.2</ele>
        <time>2012-05-26T10:06:04Z</time>
      </trkpt>
      <trkpt lat="43.20655" lon="5.50023">
        <ele>45.32</ele>
        <time>2012-05-26T10:06:15Z</time>
      </trkpt>
      <trkpt lat="43.20655" lon="5.50023">
        <ele>44.36</ele>
        <time>2012-05-26T10:06:21Z</time>
      </trkpt>
      <trkpt lat="43.20658" lon="5.50019">
        <ele>41.95</ele>
        <time>2012-05-26T10:06:32Z</time>
      </trkpt>
      <trkpt lat="43.20658" lon="5.50019">
        <ele>39.07</ele>
        <time>2012-05-26T10:06:43Z</time>
      </trkpt>
      <trkpt lat="43.20658" lon="5.50019">
        <ele>35.71</ele>
        <time>2012-05-26T10:06:55Z</time>
      </trkpt>
      <trkpt lat="43.20658" lon="5.50019">
        <ele>32.82</ele>
        <time>2012-05-26T10:07:08Z</time>
      </trkpt>
      <trkpt lat="43.20659" lon="5.50018">
        <ele>30.9</ele>
        <time>2012-05-26T10:07:17Z</time>
      </trkpt>
      <trkpt lat="43.2066" lon="5.50015">
        <ele>28.98</ele>
        <time>2012-05-26T10:07:26Z</time>
      </trkpt>
      <trkpt lat="43.20658" lon="5.5">
        <ele>27.53</ele>
        <time>2012-05-26T10:07:37Z</time>
      </trkpt>
      <trkpt lat="43.20657" lon="5.49996">
        <ele>27.05</ele>
        <time>2012-05-26T10:07:43Z</time>
      </trkpt>
      <trkpt lat="43.20657" lon="5.4999">
        <ele>27.05</ele>
        <time>2012-05-26T10:07:45Z</time>
      </trkpt>
      <trkpt lat="43.2065" lon="5.49977">
        <ele>25.61</ele>
        <time>2012-05-26T10:07:53Z</time>
      </trkpt>
      <trkpt lat="43.20611" lon="5.49908">
        <ele>26.09</ele>
        <time>2012-05-26T10:08:11Z</time>
      </trkpt>
      <trkpt lat="43.20608" lon="5.49901">
        <ele>27.05</ele>
        <time>2012-05-26T10:09:20Z</time>
      </trkpt>
      <trkpt lat="43.20611" lon="5.49901">
        <ele>28.02</ele>
        <time>2012-05-26T10:09:47Z</time>
      </trkpt>
      <trkpt lat="43.20611" lon="5.49901">
        <ele>28.02</ele>
        <time>2012-05-26T10:10:06Z</time>
      </trkpt>
      <trkpt lat="43.20611" lon="5.49901">
        <ele>29.94</ele>
        <time>2012-05-26T10:11:05Z</time>
      </trkpt>
      <trkpt lat="43.20611" lon="5.49901">
        <ele>30.42</ele>
        <time>2012-05-26T10:12:04Z</time>
      </trkpt>
      <trkpt lat="43.20611" lon="5.499">
        <ele>31.38</ele>
        <time>2012-05-26T10:12:48Z</time>
      </trkpt>
      <trkpt lat="43.20611" lon="5.49896">
        <ele>30.9</ele>
        <time>2012-05-26T10:13:22Z</time>
      </trkpt>
      <trkpt lat="43.20615" lon="5.4989">
        <ele>29.94</ele>
        <time>2012-05-26T10:13:31Z</time>
      </trkpt>
      <trkpt lat="43.2062" lon="5.49885">
        <ele>29.94</ele>
        <time>2012-05-26T10:13:35Z</time>
      </trkpt>
      <trkpt lat="43.20623" lon="5.49871">
        <ele>29.46</ele>
        <time>2012-05-26T10:13:43Z</time>
      </trkpt>
      <trkpt lat="43.20628" lon="5.49853">
        <ele>28.98</ele>
        <time>2012-05-26T10:13:57Z</time>
      </trkpt>
      <trkpt lat="43.2063" lon="5.49847">
        <ele>28.98</ele>
        <time>2012-05-26T10:14:02Z</time>
      </trkpt>
      <trkpt lat="43.20633" lon="5.49837">
        <ele>28.98</ele>
        <time>2012-05-26T10:14:06Z</time>
      </trkpt>
      <trkpt lat="43.20637" lon="5.4982">
        <ele>28.5</ele>
        <time>2012-05-26T10:14:18Z</time>
      </trkpt>
      <trkpt lat="43.20643" lon="5.498">
        <ele>28.5</ele>
        <time>2012-05-26T10:14:29Z</time>
      </trkpt>
      <trkpt lat="43.20646" lon="5.49787">
        <ele>28.5</ele>
        <time>2012-05-26T10:14:37Z</time>
      </trkpt>
      <trkpt lat="43.20647" lon="5.49775">
        <ele>28.02</ele>
        <time>2012-05-26T10:14:42Z</time>
      </trkpt>
      <trkpt lat="43.20644" lon="5.49755">
        <ele>27.53</ele>
        <time>2012-05-26T10:14:53Z</time>
      </trkpt>
      <trkpt lat="43.20643" lon="5.49743">
        <ele>26.57</ele>
        <time>2012-05-26T10:15:05Z</time>
      </trkpt>
      <trkpt lat="43.20638" lon="5.49738">
        <ele>25.13</ele>
        <time>2012-05-26T10:15:17Z</time>
      </trkpt>
      <trkpt lat="43.2063" lon="5.49733">
        <ele>24.17</ele>
        <time>2012-05-26T10:15:25Z</time>
      </trkpt>
      <trkpt lat="43.20616" lon="5.4973">
        <ele>24.17</ele>
        <time>2012-05-26T10:15:40Z</time>
      </trkpt>
      <trkpt lat="43.20608" lon="5.49725">
        <ele>23.21</ele>
        <time>2012-05-26T10:15:46Z</time>
      </trkpt>
      <trkpt lat="43.20589" lon="5.49712">
        <ele>22.73</ele>
        <time>2012-05-26T10:16:01Z</time>
      </trkpt>
      <trkpt lat="43.20579" lon="5.49702">
        <ele>23.21</ele>
        <time>2012-05-26T10:16:15Z</time>
      </trkpt>
      <trkpt lat="43.20574" lon="5.49667">
        <ele>22.73</ele>
        <time>2012-05-26T10:16:26Z</time>
      </trkpt>
      <trkpt lat="43.20567" lon="5.4966">
        <ele>22.73</ele>
        <time>2012-05-26T10:16:30Z</time>
      </trkpt>
      <trkpt lat="43.20554" lon="5.49654">
        <ele>21.29</ele>
        <time>2012-05-26T10:16:40Z</time>
      </trkpt>
      <trkpt lat="43.20544" lon="5.4965">
        <ele>20.81</ele>
        <time>2012-05-26T10:16:48Z</time>
      </trkpt>
      <trkpt lat="43.20535" lon="5.49647">
        <ele>19.84</ele>
        <time>2012-05-26T10:16:51Z</time>
      </trkpt>
      <trkpt lat="43.20523" lon="5.49646">
        <ele>18.88</ele>
        <time>2012-05-26T10:17:03Z</time>
      </trkpt>
      <trkpt lat="43.20513" lon="5.49651">
        <ele>17.44</ele>
        <time>2012-05-26T10:17:16Z</time>
      </trkpt>
      <trkpt lat="43.20504" lon="5.49649">
        <ele>17.92</ele>
        <time>2012-05-26T10:17:29Z</time>
      </trkpt>
      <trkpt lat="43.20489" lon="5.49646">
        <ele>16</ele>
        <time>2012-05-26T10:17:41Z</time>
      </trkpt>
      <trkpt lat="43.20472" lon="5.49642">
        <ele>15.04</ele>
        <time>2012-05-26T10:17:50Z</time>
      </trkpt>
      <trkpt lat="43.20466" lon="5.49641">
        <ele>14.56</ele>
        <time>2012-05-26T10:17:54Z</time>
      </trkpt>
      <trkpt lat="43.2046" lon="5.4964">
        <ele>14.08</ele>
        <time>2012-05-26T10:17:58Z</time>
      </trkpt>
      <trkpt lat="43.20447" lon="5.49642">
        <ele>14.08</ele>
        <time>2012-05-26T10:18:11Z</time>
      </trkpt>
      <trkpt lat="43.20446" lon="5.49642">
        <ele>13.12</ele>
        <time>2012-05-26T10:18:15Z</time>
      </trkpt>
      <trkpt lat="43.20433" lon="5.49636">
        <ele>12.63</ele>
        <time>2012-05-26T10:18:27Z</time>
      </trkpt>
      <trkpt lat="43.2042" lon="5.49629">
        <ele>12.63</ele>
        <time>2012-05-26T10:18:40Z</time>
      </trkpt>
      <trkpt lat="43.20401" lon="5.49629">
        <ele>12.15</ele>
        <time>2012-05-26T10:18:52Z</time>
      </trkpt>
      <trkpt lat="43.20389" lon="5.49633">
        <ele>11.19</ele>
        <time>2012-05-26T10:19:02Z</time>
      </trkpt>
      <trkpt lat="43.20385" lon="5.49635">
        <ele>10.71</ele>
        <time>2012-05-26T10:19:06Z</time>
      </trkpt>
      <trkpt lat="43.2037" lon="5.4964">
        <ele>10.23</ele>
        <time>2012-05-26T10:19:18Z</time>
      </trkpt>
      <trkpt lat="43.20357" lon="5.49648">
        <ele>9.27</ele>
        <time>2012-05-26T10:19:31Z</time>
      </trkpt>
      <trkpt lat="43.20355" lon="5.49648">
        <ele>9.27</ele>
        <time>2012-05-26T10:19:44Z</time>
      </trkpt>
      <trkpt lat="43.20351" lon="5.49649">
        <ele>8.79</ele>
        <time>2012-05-26T10:19:58Z</time>
      </trkpt>
      <trkpt lat="43.20346" lon="5.49651">
        <ele>8.31</ele>
        <time>2012-05-26T10:20:02Z</time>
      </trkpt>
      <trkpt lat="43.20341" lon="5.49652">
        <ele>8.31</ele>
        <time>2012-05-26T10:20:21Z</time>
      </trkpt>
      <trkpt lat="43.20335" lon="5.49655">
        <ele>8.31</ele>
        <time>2012-05-26T10:20:34Z</time>
      </trkpt>
      <trkpt lat="43.20332" lon="5.49656">
        <ele>7.35</ele>
        <time>2012-05-26T10:20:44Z</time>
      </trkpt>
      <trkpt lat="43.20326" lon="5.49665">
        <ele>7.35</ele>
        <time>2012-05-26T10:20:51Z</time>
      </trkpt>
      <trkpt lat="43.20314" lon="5.49672">
        <ele>6.87</ele>
        <time>2012-05-26T10:20:59Z</time>
      </trkpt>
      <trkpt lat="43.20284" lon="5.49675">
        <ele>6.87</ele>
        <time>2012-05-26T10:21:13Z</time>
      </trkpt>
      <trkpt lat="43.20283" lon="5.49676">
        <ele>6.87</ele>
        <time>2012-05-26T10:21:31Z</time>
      </trkpt>
      <trkpt lat="43.20275" lon="5.49679">
        <ele>6.87</ele>
        <time>2012-05-26T10:21:55Z</time>
      </trkpt>
      <trkpt lat="43.20268" lon="5.49683">
        <ele>6.87</ele>
        <time>2012-05-26T10:22:00Z</time>
      </trkpt>
      <trkpt lat="43.20264" lon="5.49685">
        <ele>6.39</ele>
        <time>2012-05-26T10:22:03Z</time>
      </trkpt>
      <trkpt lat="43.20263" lon="5.49686">
        <ele>6.87</ele>
        <time>2012-05-26T10:22:04Z</time>
      </trkpt>
      <trkpt lat="43.20255" lon="5.49708">
        <ele>6.39</ele>
        <time>2012-05-26T10:22:18Z</time>
      </trkpt>
      <trkpt lat="43.20253" lon="5.49712">
        <ele>6.39</ele>
        <time>2012-05-26T10:22:28Z</time>
      </trkpt>
      <trkpt lat="43.20248" lon="5.49725">
        <ele>6.39</ele>
        <time>2012-05-26T10:22:37Z</time>
      </trkpt>
      <trkpt lat="43.20242" lon="5.4974">
        <ele>5.91</ele>
        <time>2012-05-26T10:22:50Z</time>
      </trkpt>
      <trkpt lat="43.20244" lon="5.4976">
        <ele>6.39</ele>
        <time>2012-05-26T10:23:01Z</time>
      </trkpt>
      <trkpt lat="43.20242" lon="5.49768">
        <ele>6.39</ele>
        <time>2012-05-26T10:23:11Z</time>
      </trkpt>
      <trkpt lat="43.20241" lon="5.49772">
        <ele>6.87</ele>
        <time>2012-05-26T10:23:23Z</time>
      </trkpt>
      <trkpt lat="43.20241" lon="5.49773">
        <ele>7.35</ele>
        <time>2012-05-26T10:24:22Z</time>
      </trkpt>
      <trkpt lat="43.20239" lon="5.49779">
        <ele>7.35</ele>
        <time>2012-05-26T10:25:58Z</time>
      </trkpt>
      <trkpt lat="43.20216" lon="5.49824">
        <ele>7.35</ele>
        <time>2012-05-26T10:26:53Z</time>
      </trkpt>
      <trkpt lat="43.20215" lon="5.49814">
        <ele>6.87</ele>
        <time>2012-05-26T10:27:06Z</time>
      </trkpt>
      <trkpt lat="43.20212" lon="5.49808">
        <ele>6.39</ele>
        <time>2012-05-26T10:27:11Z</time>
      </trkpt>
      <trkpt lat="43.20211" lon="5.49798">
        <ele>8.31</ele>
        <time>2012-05-26T10:27:20Z</time>
      </trkpt>
      <trkpt lat="43.20211" lon="5.49801">
        <ele>7.35</ele>
        <time>2012-05-26T10:27:25Z</time>
      </trkpt>
      <trkpt lat="43.20211" lon="5.49808">
        <ele>8.31</ele>
        <time>2012-05-26T10:27:35Z</time>
      </trkpt>
      <trkpt lat="43.2021" lon="5.49807">
        <ele>9.75</ele>
        <time>2012-05-26T10:27:47Z</time>
      </trkpt>
      <trkpt lat="43.20212" lon="5.49809">
        <ele>8.31</ele>
        <time>2012-05-26T10:27:51Z</time>
      </trkpt>
      <trkpt lat="43.20207" lon="5.49821">
        <ele>6.87</ele>
        <time>2012-05-26T10:28:05Z</time>
      </trkpt>
      <trkpt lat="43.20206" lon="5.49824">
        <ele>6.87</ele>
        <time>2012-05-26T10:28:09Z</time>
      </trkpt>
      <trkpt lat="43.20202" lon="5.49834">
        <ele>7.83</ele>
        <time>2012-05-26T10:28:22Z</time>
      </trkpt>
      <trkpt lat="43.20202" lon="5.49834">
        <ele>7.35</ele>
        <time>2012-05-26T10:28:39Z</time>
      </trkpt>
      <trkpt lat="43.20202" lon="5.49835">
        <ele>5.42</ele>
        <time>2012-05-26T10:28:55Z</time>
      </trkpt>
      <trkpt lat="43.202" lon="5.49837">
        <ele>7.35</ele>
        <time>2012-05-26T10:29:03Z</time>
      </trkpt>
      <trkpt lat="43.20198" lon="5.49838">
        <ele>7.83</ele>
        <time>2012-05-26T10:29:15Z</time>
      </trkpt>
      <trkpt lat="43.20203" lon="5.49844">
        <ele>7.83</ele>
        <time>2012-05-26T10:29:27Z</time>
      </trkpt>
      <trkpt lat="43.20204" lon="5.49839">
        <ele>7.83</ele>
        <time>2012-05-26T10:29:47Z</time>
      </trkpt>
      <trkpt lat="43.202" lon="5.49841">
        <ele>7.35</ele>
        <time>2012-05-26T10:29:59Z</time>
      </trkpt>
      <trkpt lat="43.20199" lon="5.49837">
        <ele>8.79</ele>
        <time>2012-05-26T10:30:11Z</time>
      </trkpt>
      <trkpt lat="43.20201" lon="5.49833">
        <ele>8.79</ele>
        <time>2012-05-26T10:30:22Z</time>
      </trkpt>
      <trkpt lat="43.20197" lon="5.49833">
        <ele>7.83</ele>
        <time>2012-05-26T10:30:38Z</time>
      </trkpt>
      <trkpt lat="43.20199" lon="5.49832">
        <ele>6.39</ele>
        <time>2012-05-26T10:30:53Z</time>
      </trkpt>
      <trkpt lat="43.20199" lon="5.49831">
        <ele>8.31</ele>
        <time>2012-05-26T10:31:09Z</time>
      </trkpt>
      <trkpt lat="43.20199" lon="5.49831">
        <ele>6.87</ele>
        <time>2012-05-26T10:31:21Z</time>
      </trkpt>
      <trkpt lat="43.20199" lon="5.49831">
        <ele>6.87</ele>
        <time>2012-05-26T10:31:23Z</time>
      </trkpt>
      <trkpt lat="43.20198" lon="5.49827">
        <ele>7.35</ele>
        <time>2012-05-26T10:31:31Z</time>
      </trkpt>
      <trkpt lat="43.20229" lon="5.49807">
        <ele>8.31</ele>
        <time>2012-05-26T10:31:41Z</time>
      </trkpt>
      <trkpt lat="43.20228" lon="5.49806">
        <ele>7.83</ele>
        <time>2012-05-26T10:31:58Z</time>
      </trkpt>
      <trkpt lat="43.20233" lon="5.49807">
        <ele>7.35</ele>
        <time>2012-05-26T10:32:12Z</time>
      </trkpt>
      <trkpt lat="43.20232" lon="5.49804">
        <ele>7.83</ele>
        <time>2012-05-26T10:32:21Z</time>
      </trkpt>
      <trkpt lat="43.20228" lon="5.49794">
        <ele>7.83</ele>
        <time>2012-05-26T10:32:31Z</time>
      </trkpt>
      <trkpt lat="43.20224" lon="5.49804">
        <ele>6.87</ele>
        <time>2012-05-26T10:32:43Z</time>
      </trkpt>
      <trkpt lat="43.20234" lon="5.49797">
        <ele>6.39</ele>
        <time>2012-05-26T10:32:52Z</time>
      </trkpt>
      <trkpt lat="43.20245" lon="5.49797">
        <ele>6.39</ele>
        <time>2012-05-26T10:33:04Z</time>
      </trkpt>
      <trkpt lat="43.20244" lon="5.49801">
        <ele>2.06</ele>
        <time>2012-05-26T10:33:20Z</time>
      </trkpt>
      <trkpt lat="43.20244" lon="5.49801">
        <ele>5.91</ele>
        <time>2012-05-26T10:33:21Z</time>
      </trkpt>
      <trkpt lat="43.20244" lon="5.49801">
        <ele>5.42</ele>
        <time>2012-05-26T10:33:24Z</time>
      </trkpt>
      <trkpt lat="43.20244" lon="5.49801">
        <ele>33.78</ele>
        <time>2012-05-26T11:23:48Z</time>
      </trkpt>
      <trkpt lat="43.20244" lon="5.49801">
        <ele>6.87</ele>
        <time>2012-05-26T11:23:49Z</time>
      </trkpt>
      <trkpt lat="43.20244" lon="5.49801">
        <ele>6.87</ele>
        <time>2012-05-26T11:23:50Z</time>
      </trkpt>
      <trkpt lat="43.20256" lon="5.49795">
        <ele>6.87</ele>
        <time>2012-05-26T11:24:01Z</time>
      </trkpt>
      <trkpt lat="43.20237" lon="5.49786">
        <ele>6.87</ele>
        <time>2012-05-26T11:26:10Z</time>
      </trkpt>
      <trkpt lat="43.20232" lon="5.49789">
        <ele>9.75</ele>
        <time>2012-05-26T11:26:23Z</time>
      </trkpt>
      <trkpt lat="43.20232" lon="5.49789">
        <ele>7.35</ele>
        <time>2012-05-26T11:26:26Z</time>
      </trkpt>
      <trkpt lat="43.20231" lon="5.49793">
        <ele>3.02</ele>
        <time>2012-05-26T11:27:39Z</time>
      </trkpt>
      <trkpt lat="43.20231" lon="5.49793">
        <ele>9.75</ele>
        <time>2012-05-26T11:27:40Z</time>
      </trkpt>
      <trkpt lat="43.20231" lon="5.49793">
        <ele>6.39</ele>
        <time>2012-05-26T11:27:41Z</time>
      </trkpt>
      <trkpt lat="43.20231" lon="5.49754">
        <ele>6.39</ele>
        <time>2012-05-26T11:28:08Z</time>
      </trkpt>
      <trkpt lat="43.20242" lon="5.49737">
        <ele>6.87</ele>
        <time>2012-05-26T11:28:51Z</time>
      </trkpt>
      <trkpt lat="43.20237" lon="5.49718">
        <ele>5.91</ele>
        <time>2012-05-26T11:29:15Z</time>
      </trkpt>
      <trkpt lat="43.20273" lon="5.497">
        <ele>5.91</ele>
        <time>2012-05-26T11:29:28Z</time>
      </trkpt>
      <trkpt lat="43.20286" lon="5.49694">
        <ele>5.91</ele>
        <time>2012-05-26T11:29:42Z</time>
      </trkpt>
      <trkpt lat="43.20289" lon="5.49692">
        <ele>5.42</ele>
        <time>2012-05-26T11:29:44Z</time>
      </trkpt>
      <trkpt lat="43.20303" lon="5.49686">
        <ele>5.91</ele>
        <time>2012-05-26T11:29:58Z</time>
      </trkpt>
      <trkpt lat="43.20303" lon="5.49686">
        <ele>6.87</ele>
        <time>2012-05-26T11:30:13Z</time>
      </trkpt>
      <trkpt lat="43.20328" lon="5.49668">
        <ele>6.39</ele>
        <time>2012-05-26T11:30:27Z</time>
      </trkpt>
      <trkpt lat="43.20354" lon="5.49661">
        <ele>6.39</ele>
        <time>2012-05-26T11:30:41Z</time>
      </trkpt>
      <trkpt lat="43.20363" lon="5.49658">
        <ele>6.87</ele>
        <time>2012-05-26T11:30:48Z</time>
      </trkpt>
      <trkpt lat="43.20369" lon="5.49657">
        <ele>6.87</ele>
        <time>2012-05-26T11:30:54Z</time>
      </trkpt>
      <trkpt lat="43.20379" lon="5.49647">
        <ele>7.83</ele>
        <time>2012-05-26T11:31:06Z</time>
      </trkpt>
      <trkpt lat="43.2038" lon="5.49646">
        <ele>7.83</ele>
        <time>2012-05-26T11:31:23Z</time>
      </trkpt>
      <trkpt lat="43.20396" lon="5.49637">
        <ele>8.31</ele>
        <time>2012-05-26T11:31:39Z</time>
      </trkpt>
      <trkpt lat="43.2041" lon="5.49635">
        <ele>9.27</ele>
        <time>2012-05-26T11:31:56Z</time>
      </trkpt>
      <trkpt lat="43.20412" lon="5.49636">
        <ele>9.27</ele>
        <time>2012-05-26T11:32:05Z</time>
      </trkpt>
      <trkpt lat="43.20421" lon="5.4964">
        <ele>9.75</ele>
        <time>2012-05-26T11:32:11Z</time>
      </trkpt>
      <trkpt lat="43.2043" lon="5.49643">
        <ele>9.27</ele>
        <time>2012-05-26T11:32:24Z</time>
      </trkpt>
      <trkpt lat="43.20437" lon="5.49643">
        <ele>8.79</ele>
        <time>2012-05-26T11:32:28Z</time>
      </trkpt>
      <trkpt lat="43.20447" lon="5.49643">
        <ele>9.27</ele>
        <time>2012-05-26T11:32:33Z</time>
      </trkpt>
      <trkpt lat="43.20452" lon="5.49637">
        <ele>11.19</ele>
        <time>2012-05-26T11:32:43Z</time>
      </trkpt>
      <trkpt lat="43.20457" lon="5.49637">
        <ele>12.15</ele>
        <time>2012-05-26T11:32:53Z</time>
      </trkpt>
      <trkpt lat="43.20465" lon="5.49642">
        <ele>11.67</ele>
        <time>2012-05-26T11:32:59Z</time>
      </trkpt>
      <trkpt lat="43.20471" lon="5.49643">
        <ele>11.67</ele>
        <time>2012-05-26T11:33:04Z</time>
      </trkpt>
      <trkpt lat="43.20471" lon="5.49643">
        <ele>12.63</ele>
        <time>2012-05-26T11:33:16Z</time>
      </trkpt>
      <trkpt lat="43.20489" lon="5.49646">
        <ele>13.12</ele>
        <time>2012-05-26T11:33:30Z</time>
      </trkpt>
      <trkpt lat="43.20502" lon="5.49651">
        <ele>13.6</ele>
        <time>2012-05-26T11:33:43Z</time>
      </trkpt>
      <trkpt lat="43.20515" lon="5.49655">
        <ele>14.08</ele>
        <time>2012-05-26T11:33:56Z</time>
      </trkpt>
      <trkpt lat="43.20524" lon="5.49658">
        <ele>15.52</ele>
        <time>2012-05-26T11:34:09Z</time>
      </trkpt>
      <trkpt lat="43.20526" lon="5.49659">
        <ele>16.96</ele>
        <time>2012-05-26T11:34:19Z</time>
      </trkpt>
      <trkpt lat="43.20539" lon="5.49665">
        <ele>17.92</ele>
        <time>2012-05-26T11:34:32Z</time>
      </trkpt>
      <trkpt lat="43.20548" lon="5.49668">
        <ele>18.4</ele>
        <time>2012-05-26T11:34:38Z</time>
      </trkpt>
      <trkpt lat="43.20556" lon="5.49684">
        <ele>18.88</ele>
        <time>2012-05-26T11:34:52Z</time>
      </trkpt>
      <trkpt lat="43.20565" lon="5.49701">
        <ele>19.36</ele>
        <time>2012-05-26T11:35:10Z</time>
      </trkpt>
      <trkpt lat="43.20582" lon="5.49704">
        <ele>19.36</ele>
        <time>2012-05-26T11:35:27Z</time>
      </trkpt>
      <trkpt lat="43.2058" lon="5.4971">
        <ele>19.36</ele>
        <time>2012-05-26T11:35:49Z</time>
      </trkpt>
      <trkpt lat="43.206" lon="5.49725">
        <ele>19.84</ele>
        <time>2012-05-26T11:36:10Z</time>
      </trkpt>
      <trkpt lat="43.20607" lon="5.49722">
        <ele>20.81</ele>
        <time>2012-05-26T11:36:23Z</time>
      </trkpt>
      <trkpt lat="43.2062" lon="5.49722">
        <ele>20.81</ele>
        <time>2012-05-26T11:36:27Z</time>
      </trkpt>
      <trkpt lat="43.20635" lon="5.49715">
        <ele>22.25</ele>
        <time>2012-05-26T11:36:37Z</time>
      </trkpt>
      <trkpt lat="43.20644" lon="5.49722">
        <ele>22.73</ele>
        <time>2012-05-26T11:36:44Z</time>
      </trkpt>
      <trkpt lat="43.20647" lon="5.49745">
        <ele>23.21</ele>
        <time>2012-05-26T11:36:59Z</time>
      </trkpt>
      <trkpt lat="43.20648" lon="5.49753">
        <ele>23.21</ele>
        <time>2012-05-26T11:37:03Z</time>
      </trkpt>
      <trkpt lat="43.20647" lon="5.49772">
        <ele>23.69</ele>
        <time>2012-05-26T11:37:17Z</time>
      </trkpt>
      <trkpt lat="43.20643" lon="5.49786">
        <ele>23.69</ele>
        <time>2012-05-26T11:37:29Z</time>
      </trkpt>
      <trkpt lat="43.20635" lon="5.49803">
        <ele>24.17</ele>
        <time>2012-05-26T11:37:40Z</time>
      </trkpt>
      <trkpt lat="43.20634" lon="5.49806">
        <ele>24.65</ele>
        <time>2012-05-26T11:37:43Z</time>
      </trkpt>
      <trkpt lat="43.20642" lon="5.49825">
        <ele>24.65</ele>
        <time>2012-05-26T11:37:55Z</time>
      </trkpt>
      <trkpt lat="43.20633" lon="5.49844">
        <ele>25.61</ele>
        <time>2012-05-26T11:38:08Z</time>
      </trkpt>
      <trkpt lat="43.20634" lon="5.49846">
        <ele>26.09</ele>
        <time>2012-05-26T11:38:09Z</time>
      </trkpt>
      <trkpt lat="43.20616" lon="5.49868">
        <ele>26.09</ele>
        <time>2012-05-26T11:38:19Z</time>
      </trkpt>
      <trkpt lat="43.20616" lon="5.49872">
        <ele>26.09</ele>
        <time>2012-05-26T11:38:21Z</time>
      </trkpt>
      <trkpt lat="43.20615" lon="5.49877">
        <ele>26.09</ele>
        <time>2012-05-26T11:38:24Z</time>
      </trkpt>
      <trkpt lat="43.20615" lon="5.49879">
        <ele>26.09</ele>
        <time>2012-05-26T11:38:26Z</time>
      </trkpt>
      <trkpt lat="43.20615" lon="5.49891">
        <ele>27.05</ele>
        <time>2012-05-26T11:38:34Z</time>
      </trkpt>
      <trkpt lat="43.20612" lon="5.49898">
        <ele>28.02</ele>
        <time>2012-05-26T11:38:45Z</time>
      </trkpt>
      <trkpt lat="43.20611" lon="5.49898">
        <ele>28.98</ele>
        <time>2012-05-26T11:39:07Z</time>
      </trkpt>
      <trkpt lat="43.2061" lon="5.49898">
        <ele>27.05</ele>
        <time>2012-05-26T11:39:33Z</time>
      </trkpt>
      <trkpt lat="43.20609" lon="5.499">
        <ele>27.53</ele>
        <time>2012-05-26T11:40:01Z</time>
      </trkpt>
      <trkpt lat="43.20609" lon="5.499">
        <ele>27.05</ele>
        <time>2012-05-26T11:40:34Z</time>
      </trkpt>
      <trkpt lat="43.20609" lon="5.49899">
        <ele>28.02</ele>
        <time>2012-05-26T11:40:42Z</time>
      </trkpt>
      <trkpt lat="43.20614" lon="5.49902">
        <ele>27.05</ele>
        <time>2012-05-26T11:41:04Z</time>
      </trkpt>
      <trkpt lat="43.20613" lon="5.49899">
        <ele>26.57</ele>
        <time>2012-05-26T11:41:27Z</time>
      </trkpt>
      <trkpt lat="43.20612" lon="5.49901">
        <ele>26.57</ele>
        <time>2012-05-26T11:41:45Z</time>
      </trkpt>
      <trkpt lat="43.20613" lon="5.4991">
        <ele>27.53</ele>
        <time>2012-05-26T11:42:02Z</time>
      </trkpt>
      <trkpt lat="43.20613" lon="5.49911">
        <ele>27.05</ele>
        <time>2012-05-26T11:42:19Z</time>
      </trkpt>
      <trkpt lat="43.20613" lon="5.49914">
        <ele>27.05</ele>
        <time>2012-05-26T11:42:41Z</time>
      </trkpt>
      <trkpt lat="43.20618" lon="5.49913">
        <ele>27.05</ele>
        <time>2012-05-26T11:42:56Z</time>
      </trkpt>
      <trkpt lat="43.20632" lon="5.49914">
        <ele>27.53</ele>
        <time>2012-05-26T11:43:09Z</time>
      </trkpt>
      <trkpt lat="43.20629" lon="5.49915">
        <ele>27.05</ele>
        <time>2012-05-26T11:43:32Z</time>
      </trkpt>
      <trkpt lat="43.20625" lon="5.49918">
        <ele>27.53</ele>
        <time>2012-05-26T11:43:48Z</time>
      </trkpt>
      <trkpt lat="43.2063" lon="5.49914">
        <ele>28.5</ele>
        <time>2012-05-26T11:44:00Z</time>
      </trkpt>
      <trkpt lat="43.20641" lon="5.49906">
        <ele>29.46</ele>
        <time>2012-05-26T11:44:08Z</time>
      </trkpt>
      <trkpt lat="43.2066" lon="5.49896">
        <ele>30.42</ele>
        <time>2012-05-26T11:44:21Z</time>
      </trkpt>
      <trkpt lat="43.20664" lon="5.4989">
        <ele>30.9</ele>
        <time>2012-05-26T11:44:25Z</time>
      </trkpt>
      <trkpt lat="43.20676" lon="5.49876">
        <ele>31.86</ele>
        <time>2012-05-26T11:44:38Z</time>
      </trkpt>
      <trkpt lat="43.20677" lon="5.49875">
        <ele>32.34</ele>
        <time>2012-05-26T11:44:45Z</time>
      </trkpt>
      <trkpt lat="43.20682" lon="5.49867">
        <ele>32.34</ele>
        <time>2012-05-26T11:44:51Z</time>
      </trkpt>
      <trkpt lat="43.20689" lon="5.49859">
        <ele>32.82</ele>
        <time>2012-05-26T11:44:59Z</time>
      </trkpt>
      <trkpt lat="43.20704" lon="5.4985">
        <ele>34.26</ele>
        <time>2012-05-26T11:45:12Z</time>
      </trkpt>
      <trkpt lat="43.2071" lon="5.49839">
        <ele>35.71</ele>
        <time>2012-05-26T11:45:25Z</time>
      </trkpt>
      <trkpt lat="43.20712" lon="5.49837">
        <ele>34.74</ele>
        <time>2012-05-26T11:45:27Z</time>
      </trkpt>
      <trkpt lat="43.20718" lon="5.49818">
        <ele>37.15</ele>
        <time>2012-05-26T11:45:43Z</time>
      </trkpt>
      <trkpt lat="43.2072" lon="5.4981">
        <ele>38.11</ele>
        <time>2012-05-26T11:45:50Z</time>
      </trkpt>
      <trkpt lat="43.2073" lon="5.49798">
        <ele>39.55</ele>
        <time>2012-05-26T11:46:04Z</time>
      </trkpt>
      <trkpt lat="43.20743" lon="5.49785">
        <ele>40.51</ele>
        <time>2012-05-26T11:46:19Z</time>
      </trkpt>
      <trkpt lat="43.20746" lon="5.49779">
        <ele>40.03</ele>
        <time>2012-05-26T11:46:26Z</time>
      </trkpt>
      <trkpt lat="43.20777" lon="5.49765">
        <ele>40.99</ele>
        <time>2012-05-26T11:46:43Z</time>
      </trkpt>
      <trkpt lat="43.20793" lon="5.49757">
        <ele>40.51</ele>
        <time>2012-05-26T11:46:53Z</time>
      </trkpt>
      <trkpt lat="43.20805" lon="5.4975">
        <ele>41.47</ele>
        <time>2012-05-26T11:47:03Z</time>
      </trkpt>
      <trkpt lat="43.20816" lon="5.4974">
        <ele>41.95</ele>
        <time>2012-05-26T11:47:15Z</time>
      </trkpt>
      <trkpt lat="43.20829" lon="5.49729">
        <ele>43.4</ele>
        <time>2012-05-26T11:47:28Z</time>
      </trkpt>
      <trkpt lat="43.20833" lon="5.49727">
        <ele>43.4</ele>
        <time>2012-05-26T11:47:32Z</time>
      </trkpt>
      <trkpt lat="43.20856" lon="5.49722">
        <ele>45.32</ele>
        <time>2012-05-26T11:47:47Z</time>
      </trkpt>
      <trkpt lat="43.20865" lon="5.49717">
        <ele>46.76</ele>
        <time>2012-05-26T11:47:54Z</time>
      </trkpt>
      <trkpt lat="43.20868" lon="5.49717">
        <ele>45.8</ele>
        <time>2012-05-26T11:47:56Z</time>
      </trkpt>
      <trkpt lat="43.20879" lon="5.49712">
        <ele>47.24</ele>
        <time>2012-05-26T11:48:06Z</time>
      </trkpt>
      <trkpt lat="43.2089" lon="5.49703">
        <ele>48.2</ele>
        <time>2012-05-26T11:48:20Z</time>
      </trkpt>
      <trkpt lat="43.20906" lon="5.49701">
        <ele>49.16</ele>
        <time>2012-05-26T11:48:33Z</time>
      </trkpt>
      <trkpt lat="43.20928" lon="5.49696">
        <ele>51.09</ele>
        <time>2012-05-26T11:48:48Z</time>
      </trkpt>
      <trkpt lat="43.20943" lon="5.49692">
        <ele>52.05</ele>
        <time>2012-05-26T11:49:02Z</time>
      </trkpt>
      <trkpt lat="43.20965" lon="5.49695">
        <ele>53.49</ele>
        <time>2012-05-26T11:49:16Z</time>
      </trkpt>
      <trkpt lat="43.20979" lon="5.49698">
        <ele>53.97</ele>
        <time>2012-05-26T11:49:27Z</time>
      </trkpt>
      <trkpt lat="43.20994" lon="5.49694">
        <ele>54.93</ele>
        <time>2012-05-26T11:49:43Z</time>
      </trkpt>
      <trkpt lat="43.21" lon="5.49683">
        <ele>56.37</ele>
        <time>2012-05-26T11:49:57Z</time>
      </trkpt>
      <trkpt lat="43.21008" lon="5.49671">
        <ele>57.34</ele>
        <time>2012-05-26T11:50:08Z</time>
      </trkpt>
      <trkpt lat="43.21014" lon="5.49666">
        <ele>57.34</ele>
        <time>2012-05-26T11:50:12Z</time>
      </trkpt>
      <trkpt lat="43.21027" lon="5.49663">
        <ele>58.3</ele>
        <time>2012-05-26T11:50:23Z</time>
      </trkpt>
      <trkpt lat="43.21044" lon="5.4967">
        <ele>58.3</ele>
        <time>2012-05-26T11:50:36Z</time>
      </trkpt>
      <trkpt lat="43.21061" lon="5.4968">
        <ele>59.26</ele>
        <time>2012-05-26T11:50:48Z</time>
      </trkpt>
      <trkpt lat="43.21085" lon="5.49692">
        <ele>59.74</ele>
        <time>2012-05-26T11:51:03Z</time>
      </trkpt>
      <trkpt lat="43.21097" lon="5.49706">
        <ele>61.18</ele>
        <time>2012-05-26T11:51:15Z</time>
      </trkpt>
      <trkpt lat="43.21104" lon="5.49713">
        <ele>61.18</ele>
        <time>2012-05-26T11:51:24Z</time>
      </trkpt>
      <trkpt lat="43.21118" lon="5.49718">
        <ele>62.62</ele>
        <time>2012-05-26T11:51:36Z</time>
      </trkpt>
      <trkpt lat="43.21135" lon="5.49714">
        <ele>63.58</ele>
        <time>2012-05-26T11:51:50Z</time>
      </trkpt>
      <trkpt lat="43.21141" lon="5.49706">
        <ele>64.07</ele>
        <time>2012-05-26T11:51:55Z</time>
      </trkpt>
      <trkpt lat="43.21143" lon="5.49704">
        <ele>64.07</ele>
        <time>2012-05-26T11:51:57Z</time>
      </trkpt>
      <trkpt lat="43.21147" lon="5.49693">
        <ele>65.51</ele>
        <time>2012-05-26T11:52:03Z</time>
      </trkpt>
      <trkpt lat="43.21148" lon="5.49692">
        <ele>65.99</ele>
        <time>2012-05-26T11:52:05Z</time>
      </trkpt>
      <trkpt lat="43.21152" lon="5.49688">
        <ele>66.95</ele>
        <time>2012-05-26T11:52:09Z</time>
      </trkpt>
      <trkpt lat="43.21155" lon="5.49684">
        <ele>67.43</ele>
        <time>2012-05-26T11:52:13Z</time>
      </trkpt>
      <trkpt lat="43.21156" lon="5.49681">
        <ele>67.91</ele>
        <time>2012-05-26T11:52:19Z</time>
      </trkpt>
      <trkpt lat="43.21159" lon="5.49676">
        <ele>68.39</ele>
        <time>2012-05-26T11:52:23Z</time>
      </trkpt>
      <trkpt lat="43.21169" lon="5.49667">
        <ele>69.83</ele>
        <time>2012-05-26T11:52:33Z</time>
      </trkpt>
      <trkpt lat="43.21167" lon="5.49665">
        <ele>69.83</ele>
        <time>2012-05-26T11:52:44Z</time>
      </trkpt>
      <trkpt lat="43.21166" lon="5.49663">
        <ele>70.31</ele>
        <time>2012-05-26T11:52:59Z</time>
      </trkpt>
      <trkpt lat="43.21159" lon="5.49657">
        <ele>73.2</ele>
        <time>2012-05-26T11:53:13Z</time>
      </trkpt>
      <trkpt lat="43.21152" lon="5.49648">
        <ele>74.64</ele>
        <time>2012-05-26T11:53:24Z</time>
      </trkpt>
      <trkpt lat="43.21147" lon="5.49638">
        <ele>77.52</ele>
        <time>2012-05-26T11:53:37Z</time>
      </trkpt>
      <trkpt lat="43.21148" lon="5.49629">
        <ele>79.45</ele>
        <time>2012-05-26T11:53:50Z</time>
      </trkpt>
      <trkpt lat="43.21143" lon="5.49616">
        <ele>81.37</ele>
        <time>2012-05-26T11:54:01Z</time>
      </trkpt>
      <trkpt lat="43.21136" lon="5.49604">
        <ele>83.77</ele>
        <time>2012-05-26T11:54:13Z</time>
      </trkpt>
      <trkpt lat="43.21134" lon="5.49593">
        <ele>86.18</ele>
        <time>2012-05-26T11:54:25Z</time>
      </trkpt>
      <trkpt lat="43.21137" lon="5.49581">
        <ele>88.1</ele>
        <time>2012-05-26T11:54:41Z</time>
      </trkpt>
      <trkpt lat="43.21139" lon="5.49567">
        <ele>90.98</ele>
        <time>2012-05-26T11:54:52Z</time>
      </trkpt>
      <trkpt lat="43.21134" lon="5.49559">
        <ele>92.42</ele>
        <time>2012-05-26T11:55:06Z</time>
      </trkpt>
      <trkpt lat="43.21125" lon="5.49545">
        <ele>95.31</ele>
        <time>2012-05-26T11:55:22Z</time>
      </trkpt>
      <trkpt lat="43.21117" lon="5.49531">
        <ele>97.71</ele>
        <time>2012-05-26T11:55:37Z</time>
      </trkpt>
      <trkpt lat="43.21115" lon="5.49515">
        <ele>100.11</ele>
        <time>2012-05-26T11:55:53Z</time>
      </trkpt>
      <trkpt lat="43.21117" lon="5.495">
        <ele>102.04</ele>
        <time>2012-05-26T11:56:07Z</time>
      </trkpt>
      <trkpt lat="43.21119" lon="5.49489">
        <ele>103.48</ele>
        <time>2012-05-26T11:56:19Z</time>
      </trkpt>
      <trkpt lat="43.21121" lon="5.49482">
        <ele>104.92</ele>
        <time>2012-05-26T11:56:26Z</time>
      </trkpt>
      <trkpt lat="43.2112" lon="5.49466">
        <ele>107.32</ele>
        <time>2012-05-26T11:56:39Z</time>
      </trkpt>
      <trkpt lat="43.21122" lon="5.49452">
        <ele>108.77</ele>
        <time>2012-05-26T11:56:52Z</time>
      </trkpt>
      <trkpt lat="43.21122" lon="5.49446">
        <ele>109.25</ele>
        <time>2012-05-26T11:56:58Z</time>
      </trkpt>
      <trkpt lat="43.21119" lon="5.49429">
        <ele>112.13</ele>
        <time>2012-05-26T11:57:13Z</time>
      </trkpt>
      <trkpt lat="43.21115" lon="5.49414">
        <ele>113.57</ele>
        <time>2012-05-26T11:57:26Z</time>
      </trkpt>
      <trkpt lat="43.21109" lon="5.49398">
        <ele>115.01</ele>
        <time>2012-05-26T11:57:42Z</time>
      </trkpt>
      <trkpt lat="43.21108" lon="5.49396">
        <ele>115.98</ele>
        <time>2012-05-26T11:57:44Z</time>
      </trkpt>
      <trkpt lat="43.21101" lon="5.49376">
        <ele>118.38</ele>
        <time>2012-05-26T11:58:01Z</time>
      </trkpt>
      <trkpt lat="43.211" lon="5.49372">
        <ele>118.38</ele>
        <time>2012-05-26T11:58:04Z</time>
      </trkpt>
      <trkpt lat="43.21093" lon="5.49354">
        <ele>120.3</ele>
        <time>2012-05-26T11:58:19Z</time>
      </trkpt>
      <trkpt lat="43.21092" lon="5.49349">
        <ele>121.26</ele>
        <time>2012-05-26T11:58:23Z</time>
      </trkpt>
      <trkpt lat="43.21092" lon="5.49334">
        <ele>123.19</ele>
        <time>2012-05-26T11:58:37Z</time>
      </trkpt>
      <trkpt lat="43.21086" lon="5.49315">
        <ele>125.11</ele>
        <time>2012-05-26T11:58:54Z</time>
      </trkpt>
      <trkpt lat="43.2108" lon="5.49297">
        <ele>127.03</ele>
        <time>2012-05-26T11:59:08Z</time>
      </trkpt>
      <trkpt lat="43.21079" lon="5.49282">
        <ele>128.95</ele>
        <time>2012-05-26T11:59:21Z</time>
      </trkpt>
      <trkpt lat="43.21071" lon="5.49267">
        <ele>129.92</ele>
        <time>2012-05-26T11:59:36Z</time>
      </trkpt>
      <trkpt lat="43.2107" lon="5.49249">
        <ele>132.32</ele>
        <time>2012-05-26T11:59:51Z</time>
      </trkpt>
      <trkpt lat="43.21067" lon="5.49234">
        <ele>134.24</ele>
        <time>2012-05-26T12:00:04Z</time>
      </trkpt>
      <trkpt lat="43.21061" lon="5.49211">
        <ele>136.64</ele>
        <time>2012-05-26T12:00:22Z</time>
      </trkpt>
      <trkpt lat="43.21066" lon="5.49197">
        <ele>138.09</ele>
        <time>2012-05-26T12:00:35Z</time>
      </trkpt>
      <trkpt lat="43.21076" lon="5.49188">
        <ele>140.97</ele>
        <time>2012-05-26T12:00:48Z</time>
      </trkpt>
      <trkpt lat="43.21089" lon="5.49176">
        <ele>142.41</ele>
        <time>2012-05-26T12:01:01Z</time>
      </trkpt>
      <trkpt lat="43.2109" lon="5.49175">
        <ele>142.89</ele>
        <time>2012-05-26T12:01:02Z</time>
      </trkpt>
      <trkpt lat="43.21097" lon="5.49162">
        <ele>144.34</ele>
        <time>2012-05-26T12:01:15Z</time>
      </trkpt>
      <trkpt lat="43.21109" lon="5.49152">
        <ele>145.78</ele>
        <time>2012-05-26T12:01:29Z</time>
      </trkpt>
      <trkpt lat="43.21114" lon="5.49141">
        <ele>147.7</ele>
        <time>2012-05-26T12:01:41Z</time>
      </trkpt>
      <trkpt lat="43.21127" lon="5.49129">
        <ele>149.14</ele>
        <time>2012-05-26T12:01:55Z</time>
      </trkpt>
      <trkpt lat="43.21131" lon="5.49117">
        <ele>151.06</ele>
        <time>2012-05-26T12:02:08Z</time>
      </trkpt>
      <trkpt lat="43.21138" lon="5.49102">
        <ele>153.47</ele>
        <time>2012-05-26T12:02:22Z</time>
      </trkpt>
      <trkpt lat="43.21131" lon="5.49099">
        <ele>155.87</ele>
        <time>2012-05-26T12:02:34Z</time>
      </trkpt>
      <trkpt lat="43.21128" lon="5.49098">
        <ele>155.87</ele>
        <time>2012-05-26T12:02:37Z</time>
      </trkpt>
      <trkpt lat="43.21125" lon="5.491">
        <ele>156.35</ele>
        <time>2012-05-26T12:02:41Z</time>
      </trkpt>
      <trkpt lat="43.21109" lon="5.49104">
        <ele>158.75</ele>
        <time>2012-05-26T12:02:56Z</time>
      </trkpt>
      <trkpt lat="43.21092" lon="5.49107">
        <ele>160.68</ele>
        <time>2012-05-26T12:03:11Z</time>
      </trkpt>
      <trkpt lat="43.21077" lon="5.49109">
        <ele>162.6</ele>
        <time>2012-05-26T12:03:25Z</time>
      </trkpt>
      <trkpt lat="43.21072" lon="5.4911">
        <ele>163.56</ele>
        <time>2012-05-26T12:03:30Z</time>
      </trkpt>
      <trkpt lat="43.21057" lon="5.4911">
        <ele>165.48</ele>
        <time>2012-05-26T12:03:45Z</time>
      </trkpt>
      <trkpt lat="43.21045" lon="5.49113">
        <ele>167.41</ele>
        <time>2012-05-26T12:03:58Z</time>
      </trkpt>
      <trkpt lat="43.21036" lon="5.49114">
        <ele>167.89</ele>
        <time>2012-05-26T12:04:06Z</time>
      </trkpt>
      <trkpt lat="43.21027" lon="5.49119">
        <ele>167.89</ele>
        <time>2012-05-26T12:04:14Z</time>
      </trkpt>
      <trkpt lat="43.21021" lon="5.49121">
        <ele>167.89</ele>
        <time>2012-05-26T12:04:19Z</time>
      </trkpt>
      <trkpt lat="43.21017" lon="5.49122">
        <ele>167.89</ele>
        <time>2012-05-26T12:04:22Z</time>
      </trkpt>
      <trkpt lat="43.21015" lon="5.49123">
        <ele>167.41</ele>
        <time>2012-05-26T12:04:24Z</time>
      </trkpt>
      <trkpt lat="43.21014" lon="5.49121">
        <ele>167.89</ele>
        <time>2012-05-26T12:04:26Z</time>
      </trkpt>
      <trkpt lat="43.21013" lon="5.49118">
        <ele>167.41</ele>
        <time>2012-05-26T12:04:38Z</time>
      </trkpt>
      <trkpt lat="43.21018" lon="5.49111">
        <ele>167.41</ele>
        <time>2012-05-26T12:04:48Z</time>
      </trkpt>
      <trkpt lat="43.2102" lon="5.4911">
        <ele>167.41</ele>
        <time>2012-05-26T12:04:58Z</time>
      </trkpt>
      <trkpt lat="43.21024" lon="5.49109">
        <ele>167.89</ele>
        <time>2012-05-26T12:05:15Z</time>
      </trkpt>
      <trkpt lat="43.21024" lon="5.49109">
        <ele>168.85</ele>
        <time>2012-05-26T12:05:51Z</time>
      </trkpt>
      <trkpt lat="43.21021" lon="5.49109">
        <ele>168.37</ele>
        <time>2012-05-26T12:06:12Z</time>
      </trkpt>
      <trkpt lat="43.2102" lon="5.4911">
        <ele>168.37</ele>
        <time>2012-05-26T12:06:26Z</time>
      </trkpt>
      <trkpt lat="43.21015" lon="5.49117">
        <ele>168.37</ele>
        <time>2012-05-26T12:06:38Z</time>
      </trkpt>
      <trkpt lat="43.21012" lon="5.49113">
        <ele>166.93</ele>
        <time>2012-05-26T12:07:07Z</time>
      </trkpt>
      <trkpt lat="43.2101" lon="5.4911">
        <ele>165.96</ele>
        <time>2012-05-26T12:07:18Z</time>
      </trkpt>
      <trkpt lat="43.21009" lon="5.49108">
        <ele>165.48</ele>
        <time>2012-05-26T12:07:42Z</time>
      </trkpt>
      <trkpt lat="43.21009" lon="5.49108">
        <ele>165.96</ele>
        <time>2012-05-26T12:09:14Z</time>
      </trkpt>
      <trkpt lat="43.21009" lon="5.49108">
        <ele>166.45</ele>
        <time>2012-05-26T12:09:26Z</time>
      </trkpt>
      <trkpt lat="43.2101" lon="5.49108">
        <ele>166.45</ele>
        <time>2012-05-26T12:09:38Z</time>
      </trkpt>
      <trkpt lat="43.21016" lon="5.49087">
        <ele>165.48</ele>
        <time>2012-05-26T12:09:50Z</time>
      </trkpt>
      <trkpt lat="43.2102" lon="5.49081">
        <ele>164.52</ele>
        <time>2012-05-26T12:09:54Z</time>
      </trkpt>
      <trkpt lat="43.21021" lon="5.49074">
        <ele>164.52</ele>
        <time>2012-05-26T12:09:58Z</time>
      </trkpt>
      <trkpt lat="43.21021" lon="5.49071">
        <ele>164.04</ele>
        <time>2012-05-26T12:10:04Z</time>
      </trkpt>
      <trkpt lat="43.21023" lon="5.49063">
        <ele>163.08</ele>
        <time>2012-05-26T12:10:09Z</time>
      </trkpt>
      <trkpt lat="43.21025" lon="5.49056">
        <ele>163.08</ele>
        <time>2012-05-26T12:10:14Z</time>
      </trkpt>
      <trkpt lat="43.21028" lon="5.49033">
        <ele>161.64</ele>
        <time>2012-05-26T12:10:27Z</time>
      </trkpt>
      <trkpt lat="43.2103" lon="5.49027">
        <ele>161.64</ele>
        <time>2012-05-26T12:10:33Z</time>
      </trkpt>
      <trkpt lat="43.21044" lon="5.49007">
        <ele>160.2</ele>
        <time>2012-05-26T12:10:49Z</time>
      </trkpt>
      <trkpt lat="43.21056" lon="5.48985">
        <ele>157.31</ele>
        <time>2012-05-26T12:11:05Z</time>
      </trkpt>
      <trkpt lat="43.21061" lon="5.48967">
        <ele>155.39</ele>
        <time>2012-05-26T12:11:18Z</time>
      </trkpt>
      <trkpt lat="43.21064" lon="5.48961">
        <ele>154.91</ele>
        <time>2012-05-26T12:11:22Z</time>
      </trkpt>
      <trkpt lat="43.21068" lon="5.48946">
        <ele>154.91</ele>
        <time>2012-05-26T12:11:31Z</time>
      </trkpt>
      <trkpt lat="43.21073" lon="5.48931">
        <ele>155.39</ele>
        <time>2012-05-26T12:11:42Z</time>
      </trkpt>
      <trkpt lat="43.21072" lon="5.48925">
        <ele>155.39</ele>
        <time>2012-05-26T12:11:46Z</time>
      </trkpt>
      <trkpt lat="43.21074" lon="5.48905">
        <ele>154.43</ele>
        <time>2012-05-26T12:11:58Z</time>
      </trkpt>
      <trkpt lat="43.21069" lon="5.48887">
        <ele>151.06</ele>
        <time>2012-05-26T12:12:11Z</time>
      </trkpt>
      <trkpt lat="43.21056" lon="5.48882">
        <ele>147.7</ele>
        <time>2012-05-26T12:12:23Z</time>
      </trkpt>
      <trkpt lat="43.21054" lon="5.4888">
        <ele>147.7</ele>
        <time>2012-05-26T12:12:25Z</time>
      </trkpt>
      <trkpt lat="43.21049" lon="5.48875">
        <ele>146.26</ele>
        <time>2012-05-26T12:12:31Z</time>
      </trkpt>
      <trkpt lat="43.21049" lon="5.48862">
        <ele>145.3</ele>
        <time>2012-05-26T12:12:37Z</time>
      </trkpt>
      <trkpt lat="43.21052" lon="5.48856">
        <ele>144.82</ele>
        <time>2012-05-26T12:12:45Z</time>
      </trkpt>
      <trkpt lat="43.21061" lon="5.48843">
        <ele>142.89</ele>
        <time>2012-05-26T12:12:53Z</time>
      </trkpt>
      <trkpt lat="43.21062" lon="5.48842">
        <ele>142.89</ele>
        <time>2012-05-26T12:12:56Z</time>
      </trkpt>
      <trkpt lat="43.21076" lon="5.48831">
        <ele>140.01</ele>
        <time>2012-05-26T12:13:06Z</time>
      </trkpt>
      <trkpt lat="43.21081" lon="5.48822">
        <ele>139.05</ele>
        <time>2012-05-26T12:13:15Z</time>
      </trkpt>
      <trkpt lat="43.21082" lon="5.48821">
        <ele>138.57</ele>
        <time>2012-05-26T12:13:16Z</time>
      </trkpt>
      <trkpt lat="43.21091" lon="5.48814">
        <ele>137.61</ele>
        <time>2012-05-26T12:13:26Z</time>
      </trkpt>
      <trkpt lat="43.21105" lon="5.48801">
        <ele>136.16</ele>
        <time>2012-05-26T12:13:38Z</time>
      </trkpt>
      <trkpt lat="43.2111" lon="5.48796">
        <ele>135.2</ele>
        <time>2012-05-26T12:13:44Z</time>
      </trkpt>
      <trkpt lat="43.21108" lon="5.48787">
        <ele>130.88</ele>
        <time>2012-05-26T12:13:49Z</time>
      </trkpt>
      <trkpt lat="43.21108" lon="5.48786">
        <ele>136.16</ele>
        <time>2012-05-26T12:13:50Z</time>
      </trkpt>
      <trkpt lat="43.21107" lon="5.48784">
        <ele>135.2</ele>
        <time>2012-05-26T12:13:51Z</time>
      </trkpt>
      <trkpt lat="43.21099" lon="5.4878">
        <ele>133.28</ele>
        <time>2012-05-26T12:14:02Z</time>
      </trkpt>
      <trkpt lat="43.21081" lon="5.48788">
        <ele>132.32</ele>
        <time>2012-05-26T12:14:17Z</time>
      </trkpt>
      <trkpt lat="43.21078" lon="5.48786">
        <ele>131.36</ele>
        <time>2012-05-26T12:14:31Z</time>
      </trkpt>
      <trkpt lat="43.21079" lon="5.48784">
        <ele>132.32</ele>
        <time>2012-05-26T12:15:01Z</time>
      </trkpt>
      <trkpt lat="43.21079" lon="5.48785">
        <ele>132.32</ele>
        <time>2012-05-26T12:16:06Z</time>
      </trkpt>
      <trkpt lat="43.21079" lon="5.48784">
        <ele>131.84</ele>
        <time>2012-05-26T12:17:36Z</time>
      </trkpt>
      <trkpt lat="43.21071" lon="5.48778">
        <ele>132.8</ele>
        <time>2012-05-26T12:17:56Z</time>
      </trkpt>
      <trkpt lat="43.21064" lon="5.48776">
        <ele>134.24</ele>
        <time>2012-05-26T12:18:11Z</time>
      </trkpt>
      <trkpt lat="43.21042" lon="5.48769">
        <ele>137.13</ele>
        <time>2012-05-26T12:18:28Z</time>
      </trkpt>
      <trkpt lat="43.21035" lon="5.4877">
        <ele>138.09</ele>
        <time>2012-05-26T12:18:33Z</time>
      </trkpt>
      <trkpt lat="43.2102" lon="5.48776">
        <ele>140.97</ele>
        <time>2012-05-26T12:18:50Z</time>
      </trkpt>
      <trkpt lat="43.21009" lon="5.48788">
        <ele>142.89</ele>
        <time>2012-05-26T12:19:05Z</time>
      </trkpt>
      <trkpt lat="43.21002" lon="5.48798">
        <ele>145.78</ele>
        <time>2012-05-26T12:19:17Z</time>
      </trkpt>
      <trkpt lat="43.20998" lon="5.48807">
        <ele>147.7</ele>
        <time>2012-05-26T12:19:28Z</time>
      </trkpt>
      <trkpt lat="43.2099" lon="5.48812">
        <ele>150.1</ele>
        <time>2012-05-26T12:19:41Z</time>
      </trkpt>
      <trkpt lat="43.20984" lon="5.4882">
        <ele>152.51</ele>
        <time>2012-05-26T12:19:52Z</time>
      </trkpt>
      <trkpt lat="43.20976" lon="5.48826">
        <ele>154.43</ele>
        <time>2012-05-26T12:20:04Z</time>
      </trkpt>
      <trkpt lat="43.20969" lon="5.48836">
        <ele>157.79</ele>
        <time>2012-05-26T12:20:19Z</time>
      </trkpt>
      <trkpt lat="43.20961" lon="5.48843">
        <ele>159.72</ele>
        <time>2012-05-26T12:20:34Z</time>
      </trkpt>
      <trkpt lat="43.20955" lon="5.48847">
        <ele>161.64</ele>
        <time>2012-05-26T12:20:45Z</time>
      </trkpt>
      <trkpt lat="43.20951" lon="5.48851">
        <ele>162.6</ele>
        <time>2012-05-26T12:20:51Z</time>
      </trkpt>
      <trkpt lat="43.20939" lon="5.48857">
        <ele>164.52</ele>
        <time>2012-05-26T12:21:05Z</time>
      </trkpt>
      <trkpt lat="43.20942" lon="5.48844">
        <ele>166.45</ele>
        <time>2012-05-26T12:21:20Z</time>
      </trkpt>
      <trkpt lat="43.20941" lon="5.4884">
        <ele>167.41</ele>
        <time>2012-05-26T12:21:24Z</time>
      </trkpt>
      <trkpt lat="43.20947" lon="5.48826">
        <ele>169.81</ele>
        <time>2012-05-26T12:21:38Z</time>
      </trkpt>
      <trkpt lat="43.2095" lon="5.48814">
        <ele>172.69</ele>
        <time>2012-05-26T12:21:54Z</time>
      </trkpt>
      <trkpt lat="43.20949" lon="5.48799">
        <ele>174.62</ele>
        <time>2012-05-26T12:22:09Z</time>
      </trkpt>
      <trkpt lat="43.20949" lon="5.48792">
        <ele>177.02</ele>
        <time>2012-05-26T12:22:22Z</time>
      </trkpt>
      <trkpt lat="43.2095" lon="5.48776">
        <ele>179.9</ele>
        <time>2012-05-26T12:22:35Z</time>
      </trkpt>
      <trkpt lat="43.2095" lon="5.48761">
        <ele>182.31</ele>
        <time>2012-05-26T12:22:49Z</time>
      </trkpt>
      <trkpt lat="43.20952" lon="5.48749">
        <ele>183.75</ele>
        <time>2012-05-26T12:23:03Z</time>
      </trkpt>
      <trkpt lat="43.20954" lon="5.4874">
        <ele>185.67</ele>
        <time>2012-05-26T12:23:14Z</time>
      </trkpt>
      <trkpt lat="43.20952" lon="5.48727">
        <ele>188.56</ele>
        <time>2012-05-26T12:23:29Z</time>
      </trkpt>
      <trkpt lat="43.20958" lon="5.48712">
        <ele>190.96</ele>
        <time>2012-05-26T12:23:42Z</time>
      </trkpt>
      <trkpt lat="43.20957" lon="5.48703">
        <ele>192.4</ele>
        <time>2012-05-26T12:23:51Z</time>
      </trkpt>
      <trkpt lat="43.20956" lon="5.48697">
        <ele>193.36</ele>
        <time>2012-05-26T12:23:56Z</time>
      </trkpt>
      <trkpt lat="43.20959" lon="5.48684">
        <ele>194.32</ele>
        <time>2012-05-26T12:24:07Z</time>
      </trkpt>
      <trkpt lat="43.20961" lon="5.48679">
        <ele>195.28</ele>
        <time>2012-05-26T12:24:12Z</time>
      </trkpt>
      <trkpt lat="43.20964" lon="5.48668">
        <ele>196.25</ele>
        <time>2012-05-26T12:24:24Z</time>
      </trkpt>
      <trkpt lat="43.20966" lon="5.48656">
        <ele>198.65</ele>
        <time>2012-05-26T12:24:38Z</time>
      </trkpt>
      <trkpt lat="43.20969" lon="5.48645">
        <ele>200.09</ele>
        <time>2012-05-26T12:24:51Z</time>
      </trkpt>
      <trkpt lat="43.20972" lon="5.48632">
        <ele>202.01</ele>
        <time>2012-05-26T12:25:05Z</time>
      </trkpt>
      <trkpt lat="43.20975" lon="5.48622">
        <ele>203.94</ele>
        <time>2012-05-26T12:25:19Z</time>
      </trkpt>
      <trkpt lat="43.20974" lon="5.48608">
        <ele>206.34</ele>
        <time>2012-05-26T12:25:39Z</time>
      </trkpt>
      <trkpt lat="43.20979" lon="5.48594">
        <ele>208.26</ele>
        <time>2012-05-26T12:25:51Z</time>
      </trkpt>
      <trkpt lat="43.20985" lon="5.4858">
        <ele>209.22</ele>
        <time>2012-05-26T12:26:03Z</time>
      </trkpt>
      <trkpt lat="43.20988" lon="5.48573">
        <ele>210.67</ele>
        <time>2012-05-26T12:26:10Z</time>
      </trkpt>
      <trkpt lat="43.20999" lon="5.48558">
        <ele>213.55</ele>
        <time>2012-05-26T12:26:27Z</time>
      </trkpt>
      <trkpt lat="43.21007" lon="5.48545">
        <ele>215.47</ele>
        <time>2012-05-26T12:26:42Z</time>
      </trkpt>
      <trkpt lat="43.21015" lon="5.48535">
        <ele>217.4</ele>
        <time>2012-05-26T12:26:53Z</time>
      </trkpt>
      <trkpt lat="43.21024" lon="5.48524">
        <ele>218.84</ele>
        <time>2012-05-26T12:27:06Z</time>
      </trkpt>
      <trkpt lat="43.21026" lon="5.4852">
        <ele>219.8</ele>
        <time>2012-05-26T12:27:10Z</time>
      </trkpt>
      <trkpt lat="43.21031" lon="5.48501">
        <ele>221.72</ele>
        <time>2012-05-26T12:27:25Z</time>
      </trkpt>
      <trkpt lat="43.21034" lon="5.48485">
        <ele>224.12</ele>
        <time>2012-05-26T12:27:38Z</time>
      </trkpt>
      <trkpt lat="43.2104" lon="5.48469">
        <ele>225.57</ele>
        <time>2012-05-26T12:27:52Z</time>
      </trkpt>
      <trkpt lat="43.21041" lon="5.48463">
        <ele>226.05</ele>
        <time>2012-05-26T12:27:56Z</time>
      </trkpt>
      <trkpt lat="43.21042" lon="5.48441">
        <ele>227.49</ele>
        <time>2012-05-26T12:28:11Z</time>
      </trkpt>
      <trkpt lat="43.21042" lon="5.48431">
        <ele>230.37</ele>
        <time>2012-05-26T12:28:20Z</time>
      </trkpt>
      <trkpt lat="43.2104" lon="5.48422">
        <ele>226.53</ele>
        <time>2012-05-26T12:28:27Z</time>
      </trkpt>
      <trkpt lat="43.21038" lon="5.48417">
        <ele>229.41</ele>
        <time>2012-05-26T12:28:32Z</time>
      </trkpt>
      <trkpt lat="43.21035" lon="5.48414">
        <ele>228.45</ele>
        <time>2012-05-26T12:28:50Z</time>
      </trkpt>
      <trkpt lat="43.21035" lon="5.48414">
        <ele>229.41</ele>
        <time>2012-05-26T12:29:38Z</time>
      </trkpt>
      <trkpt lat="43.21034" lon="5.48414">
        <ele>229.89</ele>
        <time>2012-05-26T12:30:11Z</time>
      </trkpt>
      <trkpt lat="43.21033" lon="5.4841">
        <ele>229.41</ele>
        <time>2012-05-26T12:30:52Z</time>
      </trkpt>
      <trkpt lat="43.2103" lon="5.484">
        <ele>228.93</ele>
        <time>2012-05-26T12:31:01Z</time>
      </trkpt>
      <trkpt lat="43.21024" lon="5.48381">
        <ele>228.45</ele>
        <time>2012-05-26T12:31:15Z</time>
      </trkpt>
      <trkpt lat="43.21023" lon="5.48378">
        <ele>228.45</ele>
        <time>2012-05-26T12:31:24Z</time>
      </trkpt>
      <trkpt lat="43.21023" lon="5.48378">
        <ele>228.45</ele>
        <time>2012-05-26T12:31:45Z</time>
      </trkpt>
      <trkpt lat="43.21023" lon="5.48379">
        <ele>228.45</ele>
        <time>2012-05-26T12:32:09Z</time>
      </trkpt>
      <trkpt lat="43.21033" lon="5.48377">
        <ele>229.41</ele>
        <time>2012-05-26T12:32:23Z</time>
      </trkpt>
      <trkpt lat="43.21035" lon="5.48376">
        <ele>230.85</ele>
        <time>2012-05-26T12:32:43Z</time>
      </trkpt>
      <trkpt lat="43.21035" lon="5.48376">
        <ele>230.85</ele>
        <time>2012-05-26T12:33:22Z</time>
      </trkpt>
      <trkpt lat="43.21035" lon="5.48376">
        <ele>231.33</ele>
        <time>2012-05-26T12:35:36Z</time>
      </trkpt>
      <trkpt lat="43.21034" lon="5.48377">
        <ele>231.33</ele>
        <time>2012-05-26T12:37:08Z</time>
      </trkpt>
      <trkpt lat="43.21033" lon="5.48377">
        <ele>231.33</ele>
        <time>2012-05-26T12:38:02Z</time>
      </trkpt>
      <trkpt lat="43.21027" lon="5.48382">
        <ele>230.37</ele>
        <time>2012-05-26T12:38:44Z</time>
      </trkpt>
      <trkpt lat="43.21024" lon="5.48371">
        <ele>228.45</ele>
        <time>2012-05-26T12:38:57Z</time>
      </trkpt>
      <trkpt lat="43.21022" lon="5.48351">
        <ele>227.01</ele>
        <time>2012-05-26T12:39:12Z</time>
      </trkpt>
      <trkpt lat="43.21024" lon="5.48332">
        <ele>225.09</ele>
        <time>2012-05-26T12:39:25Z</time>
      </trkpt>
      <trkpt lat="43.21024" lon="5.48309">
        <ele>223.16</ele>
        <time>2012-05-26T12:39:40Z</time>
      </trkpt>
      <trkpt lat="43.21024" lon="5.4829">
        <ele>220.28</ele>
        <time>2012-05-26T12:39:52Z</time>
      </trkpt>
      <trkpt lat="43.21022" lon="5.48266">
        <ele>219.32</ele>
        <time>2012-05-26T12:40:07Z</time>
      </trkpt>
      <trkpt lat="43.21021" lon="5.48256">
        <ele>219.32</ele>
        <time>2012-05-26T12:40:21Z</time>
      </trkpt>
      <trkpt lat="43.21021" lon="5.48256">
        <ele>219.32</ele>
        <time>2012-05-26T12:40:58Z</time>
      </trkpt>
      <trkpt lat="43.21019" lon="5.48236">
        <ele>217.88</ele>
        <time>2012-05-26T12:41:11Z</time>
      </trkpt>
      <trkpt lat="43.21018" lon="5.48228">
        <ele>216.43</ele>
        <time>2012-05-26T12:41:17Z</time>
      </trkpt>
      <trkpt lat="43.21018" lon="5.48223">
        <ele>215.95</ele>
        <time>2012-05-26T12:41:20Z</time>
      </trkpt>
      <trkpt lat="43.21018" lon="5.48219">
        <ele>215.95</ele>
        <time>2012-05-26T12:41:22Z</time>
      </trkpt>
      <trkpt lat="43.21016" lon="5.48215">
        <ele>215.47</ele>
        <time>2012-05-26T12:41:24Z</time>
      </trkpt>
      <trkpt lat="43.21015" lon="5.48204">
        <ele>214.99</ele>
        <time>2012-05-26T12:41:38Z</time>
      </trkpt>
      <trkpt lat="43.21017" lon="5.48194">
        <ele>214.99</ele>
        <time>2012-05-26T12:41:43Z</time>
      </trkpt>
      <trkpt lat="43.21016" lon="5.48188">
        <ele>214.51</ele>
        <time>2012-05-26T12:41:47Z</time>
      </trkpt>
      <trkpt lat="43.21016" lon="5.48177">
        <ele>212.59</ele>
        <time>2012-05-26T12:41:55Z</time>
      </trkpt>
      <trkpt lat="43.21007" lon="5.48159">
        <ele>209.7</ele>
        <time>2012-05-26T12:42:06Z</time>
      </trkpt>
      <trkpt lat="43.21001" lon="5.48142">
        <ele>207.78</ele>
        <time>2012-05-26T12:42:19Z</time>
      </trkpt>
      <trkpt lat="43.20998" lon="5.48134">
        <ele>206.82</ele>
        <time>2012-05-26T12:42:23Z</time>
      </trkpt>
      <trkpt lat="43.20991" lon="5.48112">
        <ele>205.38</ele>
        <time>2012-05-26T12:42:35Z</time>
      </trkpt>
      <trkpt lat="43.20988" lon="5.48107">
        <ele>204.9</ele>
        <time>2012-05-26T12:42:38Z</time>
      </trkpt>
      <trkpt lat="43.20986" lon="5.48105">
        <ele>204.42</ele>
        <time>2012-05-26T12:42:40Z</time>
      </trkpt>
      <trkpt lat="43.20984" lon="5.48103">
        <ele>203.46</ele>
        <time>2012-05-26T12:42:42Z</time>
      </trkpt>
      <trkpt lat="43.20982" lon="5.48102">
        <ele>202.98</ele>
        <time>2012-05-26T12:42:44Z</time>
      </trkpt>
      <trkpt lat="43.2098" lon="5.48099">
        <ele>202.98</ele>
        <time>2012-05-26T12:42:46Z</time>
      </trkpt>
      <trkpt lat="43.20977" lon="5.48084">
        <ele>201.05</ele>
        <time>2012-05-26T12:42:56Z</time>
      </trkpt>
      <trkpt lat="43.20971" lon="5.48083">
        <ele>201.05</ele>
        <time>2012-05-26T12:43:10Z</time>
      </trkpt>
      <trkpt lat="43.20972" lon="5.48101">
        <ele>199.13</ele>
        <time>2012-05-26T12:43:24Z</time>
      </trkpt>
      <trkpt lat="43.20973" lon="5.48106">
        <ele>199.13</ele>
        <time>2012-05-26T12:43:27Z</time>
      </trkpt>
      <trkpt lat="43.2097" lon="5.48124">
        <ele>198.65</ele>
        <time>2012-05-26T12:43:37Z</time>
      </trkpt>
      <trkpt lat="43.20966" lon="5.4814">
        <ele>201.05</ele>
        <time>2012-05-26T12:43:50Z</time>
      </trkpt>
      <trkpt lat="43.20966" lon="5.48142">
        <ele>201.05</ele>
        <time>2012-05-26T12:43:52Z</time>
      </trkpt>
      <trkpt lat="43.20968" lon="5.48149">
        <ele>202.49</ele>
        <time>2012-05-26T12:43:58Z</time>
      </trkpt>
      <trkpt lat="43.2096" lon="5.48168">
        <ele>201.05</ele>
        <time>2012-05-26T12:44:10Z</time>
      </trkpt>
      <trkpt lat="43.20959" lon="5.48171">
        <ele>200.57</ele>
        <time>2012-05-26T12:44:12Z</time>
      </trkpt>
      <trkpt lat="43.20952" lon="5.4819">
        <ele>201.53</ele>
        <time>2012-05-26T12:44:25Z</time>
      </trkpt>
      <trkpt lat="43.20943" lon="5.48204">
        <ele>200.09</ele>
        <time>2012-05-26T12:44:38Z</time>
      </trkpt>
      <trkpt lat="43.20943" lon="5.48208">
        <ele>199.13</ele>
        <time>2012-05-26T12:44:42Z</time>
      </trkpt>
      <trkpt lat="43.20932" lon="5.4823">
        <ele>198.65</ele>
        <time>2012-05-26T12:44:55Z</time>
      </trkpt>
      <trkpt lat="43.20921" lon="5.4824">
        <ele>198.65</ele>
        <time>2012-05-26T12:45:07Z</time>
      </trkpt>
      <trkpt lat="43.20915" lon="5.4824">
        <ele>198.65</ele>
        <time>2012-05-26T12:45:13Z</time>
      </trkpt>
      <trkpt lat="43.20903" lon="5.4823">
        <ele>199.61</ele>
        <time>2012-05-26T12:45:25Z</time>
      </trkpt>
      <trkpt lat="43.20901" lon="5.48225">
        <ele>199.61</ele>
        <time>2012-05-26T12:45:29Z</time>
      </trkpt>
      <trkpt lat="43.20892" lon="5.48205">
        <ele>199.61</ele>
        <time>2012-05-26T12:45:44Z</time>
      </trkpt>
      <trkpt lat="43.20884" lon="5.48188">
        <ele>197.69</ele>
        <time>2012-05-26T12:45:57Z</time>
      </trkpt>
      <trkpt lat="43.20874" lon="5.48173">
        <ele>195.77</ele>
        <time>2012-05-26T12:46:10Z</time>
      </trkpt>
      <trkpt lat="43.20873" lon="5.48173">
        <ele>195.28</ele>
        <time>2012-05-26T12:46:11Z</time>
      </trkpt>
      <trkpt lat="43.2087" lon="5.48166">
        <ele>195.77</ele>
        <time>2012-05-26T12:46:16Z</time>
      </trkpt>
      <trkpt lat="43.20864" lon="5.48155">
        <ele>195.28</ele>
        <time>2012-05-26T12:46:25Z</time>
      </trkpt>
      <trkpt lat="43.20857" lon="5.48147">
        <ele>195.77</ele>
        <time>2012-05-26T12:46:33Z</time>
      </trkpt>
      <trkpt lat="43.20843" lon="5.48135">
        <ele>194.32</ele>
        <time>2012-05-26T12:46:48Z</time>
      </trkpt>
      <trkpt lat="43.20829" lon="5.48122">
        <ele>193.36</ele>
        <time>2012-05-26T12:47:02Z</time>
      </trkpt>
      <trkpt lat="43.20827" lon="5.48118">
        <ele>193.36</ele>
        <time>2012-05-26T12:47:05Z</time>
      </trkpt>
      <trkpt lat="43.20816" lon="5.48103">
        <ele>193.36</ele>
        <time>2012-05-26T12:47:19Z</time>
      </trkpt>
      <trkpt lat="43.20814" lon="5.4809">
        <ele>191.92</ele>
        <time>2012-05-26T12:47:30Z</time>
      </trkpt>
      <trkpt lat="43.20814" lon="5.48082">
        <ele>190.48</ele>
        <time>2012-05-26T12:47:36Z</time>
      </trkpt>
      <trkpt lat="43.20817" lon="5.48064">
        <ele>188.56</ele>
        <time>2012-05-26T12:47:49Z</time>
      </trkpt>
      <trkpt lat="43.20812" lon="5.48049">
        <ele>186.15</ele>
        <time>2012-05-26T12:48:03Z</time>
      </trkpt>
      <trkpt lat="43.20808" lon="5.48043">
        <ele>184.71</ele>
        <time>2012-05-26T12:48:13Z</time>
      </trkpt>
      <trkpt lat="43.20806" lon="5.48041">
        <ele>184.71</ele>
        <time>2012-05-26T12:48:15Z</time>
      </trkpt>
      <trkpt lat="43.20801" lon="5.48038">
        <ele>183.27</ele>
        <time>2012-05-26T12:48:19Z</time>
      </trkpt>
      <trkpt lat="43.20787" lon="5.48029">
        <ele>180.87</ele>
        <time>2012-05-26T12:48:33Z</time>
      </trkpt>
      <trkpt lat="43.20787" lon="5.48038">
        <ele>180.38</ele>
        <time>2012-05-26T12:48:43Z</time>
      </trkpt>
      <trkpt lat="43.2078" lon="5.48051">
        <ele>182.79</ele>
        <time>2012-05-26T12:48:57Z</time>
      </trkpt>
      <trkpt lat="43.20777" lon="5.48051">
        <ele>184.71</ele>
        <time>2012-05-26T12:49:14Z</time>
      </trkpt>
      <trkpt lat="43.20773" lon="5.4805">
        <ele>188.08</ele>
        <time>2012-05-26T12:49:26Z</time>
      </trkpt>
      <trkpt lat="43.20769" lon="5.48054">
        <ele>190.48</ele>
        <time>2012-05-26T12:49:38Z</time>
      </trkpt>
      <trkpt lat="43.20766" lon="5.4806">
        <ele>192.4</ele>
        <time>2012-05-26T12:49:47Z</time>
      </trkpt>
      <trkpt lat="43.20764" lon="5.48066">
        <ele>193.84</ele>
        <time>2012-05-26T12:50:00Z</time>
      </trkpt>
      <trkpt lat="43.20756" lon="5.48074">
        <ele>197.21</ele>
        <time>2012-05-26T12:50:12Z</time>
      </trkpt>
      <trkpt lat="43.20752" lon="5.48079">
        <ele>199.13</ele>
        <time>2012-05-26T12:50:23Z</time>
      </trkpt>
      <trkpt lat="43.20747" lon="5.48087">
        <ele>201.53</ele>
        <time>2012-05-26T12:50:35Z</time>
      </trkpt>
      <trkpt lat="43.20744" lon="5.48085">
        <ele>202.98</ele>
        <time>2012-05-26T12:50:41Z</time>
      </trkpt>
      <trkpt lat="43.20741" lon="5.48086">
        <ele>205.86</ele>
        <time>2012-05-26T12:50:51Z</time>
      </trkpt>
      <trkpt lat="43.20737" lon="5.4809">
        <ele>207.3</ele>
        <time>2012-05-26T12:51:01Z</time>
      </trkpt>
      <trkpt lat="43.20735" lon="5.48091">
        <ele>209.7</ele>
        <time>2012-05-26T12:51:12Z</time>
      </trkpt>
      <trkpt lat="43.20731" lon="5.48093">
        <ele>211.63</ele>
        <time>2012-05-26T12:51:25Z</time>
      </trkpt>
      <trkpt lat="43.20727" lon="5.48096">
        <ele>214.03</ele>
        <time>2012-05-26T12:51:35Z</time>
      </trkpt>
      <trkpt lat="43.20722" lon="5.48103">
        <ele>215.47</ele>
        <time>2012-05-26T12:51:47Z</time>
      </trkpt>
      <trkpt lat="43.20717" lon="5.48107">
        <ele>217.88</ele>
        <time>2012-05-26T12:51:58Z</time>
      </trkpt>
      <trkpt lat="43.20715" lon="5.48123">
        <ele>218.36</ele>
        <time>2012-05-26T12:52:11Z</time>
      </trkpt>
      <trkpt lat="43.20715" lon="5.48125">
        <ele>218.36</ele>
        <time>2012-05-26T12:52:12Z</time>
      </trkpt>
      <trkpt lat="43.20714" lon="5.48136">
        <ele>219.8</ele>
        <time>2012-05-26T12:52:22Z</time>
      </trkpt>
      <trkpt lat="43.20711" lon="5.48139">
        <ele>222.68</ele>
        <time>2012-05-26T12:52:34Z</time>
      </trkpt>
      <trkpt lat="43.20711" lon="5.48138">
        <ele>222.68</ele>
        <time>2012-05-26T12:52:36Z</time>
      </trkpt>
      <trkpt lat="43.20708" lon="5.48133">
        <ele>223.64</ele>
        <time>2012-05-26T12:52:48Z</time>
      </trkpt>
      <trkpt lat="43.20708" lon="5.48133">
        <ele>223.16</ele>
        <time>2012-05-26T12:53:28Z</time>
      </trkpt>
      <trkpt lat="43.20708" lon="5.48133">
        <ele>223.64</ele>
        <time>2012-05-26T12:54:16Z</time>
      </trkpt>
      <trkpt lat="43.20708" lon="5.48133">
        <ele>223.64</ele>
        <time>2012-05-26T12:54:56Z</time>
      </trkpt>
      <trkpt lat="43.20708" lon="5.48134">
        <ele>224.12</ele>
        <time>2012-05-26T12:56:05Z</time>
      </trkpt>
      <trkpt lat="43.2071" lon="5.48137">
        <ele>222.68</ele>
        <time>2012-05-26T12:56:19Z</time>
      </trkpt>
      <trkpt lat="43.20711" lon="5.48139">
        <ele>222.68</ele>
        <time>2012-05-26T12:56:35Z</time>
      </trkpt>
      <trkpt lat="43.20711" lon="5.48139">
        <ele>223.64</ele>
        <time>2012-05-26T12:56:50Z</time>
      </trkpt>
      <trkpt lat="43.20708" lon="5.48138">
        <ele>224.61</ele>
        <time>2012-05-26T12:57:06Z</time>
      </trkpt>
      <trkpt lat="43.20707" lon="5.4814">
        <ele>224.12</ele>
        <time>2012-05-26T12:58:52Z</time>
      </trkpt>
      <trkpt lat="43.20709" lon="5.48144">
        <ele>224.61</ele>
        <time>2012-05-26T13:00:35Z</time>
      </trkpt>
      <trkpt lat="43.20708" lon="5.48145">
        <ele>224.61</ele>
        <time>2012-05-26T13:02:01Z</time>
      </trkpt>
      <trkpt lat="43.20708" lon="5.48145">
        <ele>224.61</ele>
        <time>2012-05-26T13:03:47Z</time>
      </trkpt>
      <trkpt lat="43.20707" lon="5.48146">
        <ele>225.09</ele>
        <time>2012-05-26T13:04:26Z</time>
      </trkpt>
      <trkpt lat="43.20711" lon="5.48148">
        <ele>224.61</ele>
        <time>2012-05-26T13:04:34Z</time>
      </trkpt>
      <trkpt lat="43.20713" lon="5.48147">
        <ele>224.61</ele>
        <time>2012-05-26T13:04:52Z</time>
      </trkpt>
      <trkpt lat="43.20715" lon="5.48153">
        <ele>223.64</ele>
        <time>2012-05-26T13:05:04Z</time>
      </trkpt>
      <trkpt lat="43.20721" lon="5.48167">
        <ele>223.16</ele>
        <time>2012-05-26T13:05:14Z</time>
      </trkpt>
      <trkpt lat="43.2072" lon="5.48171">
        <ele>223.16</ele>
        <time>2012-05-26T13:05:17Z</time>
      </trkpt>
      <trkpt lat="43.20721" lon="5.48185">
        <ele>223.64</ele>
        <time>2012-05-26T13:05:29Z</time>
      </trkpt>
      <trkpt lat="43.2072" lon="5.48199">
        <ele>224.12</ele>
        <time>2012-05-26T13:05:42Z</time>
      </trkpt>
      <trkpt lat="43.20722" lon="5.48213">
        <ele>223.16</ele>
        <time>2012-05-26T13:05:56Z</time>
      </trkpt>
      <trkpt lat="43.20722" lon="5.48216">
        <ele>223.16</ele>
        <time>2012-05-26T13:05:59Z</time>
      </trkpt>
      <trkpt lat="43.20727" lon="5.48231">
        <ele>221.72</ele>
        <time>2012-05-26T13:06:12Z</time>
      </trkpt>
      <trkpt lat="43.2073" lon="5.48246">
        <ele>219.32</ele>
        <time>2012-05-26T13:06:28Z</time>
      </trkpt>
      <trkpt lat="43.20732" lon="5.48259">
        <ele>218.84</ele>
        <time>2012-05-26T13:06:38Z</time>
      </trkpt>
      <trkpt lat="43.20731" lon="5.48277">
        <ele>217.4</ele>
        <time>2012-05-26T13:06:52Z</time>
      </trkpt>
      <trkpt lat="43.2073" lon="5.48295">
        <ele>217.4</ele>
        <time>2012-05-26T13:07:04Z</time>
      </trkpt>
      <trkpt lat="43.20729" lon="5.48297">
        <ele>216.91</ele>
        <time>2012-05-26T13:07:06Z</time>
      </trkpt>
      <trkpt lat="43.2072" lon="5.48318">
        <ele>216.91</ele>
        <time>2012-05-26T13:07:22Z</time>
      </trkpt>
      <trkpt lat="43.20716" lon="5.48334">
        <ele>215.95</ele>
        <time>2012-05-26T13:07:35Z</time>
      </trkpt>
      <trkpt lat="43.20707" lon="5.48346">
        <ele>215.95</ele>
        <time>2012-05-26T13:07:49Z</time>
      </trkpt>
      <trkpt lat="43.20693" lon="5.48363">
        <ele>214.99</ele>
        <time>2012-05-26T13:08:06Z</time>
      </trkpt>
      <trkpt lat="43.20686" lon="5.48375">
        <ele>213.55</ele>
        <time>2012-05-26T13:08:18Z</time>
      </trkpt>
      <trkpt lat="43.20683" lon="5.48377">
        <ele>213.55</ele>
        <time>2012-05-26T13:08:20Z</time>
      </trkpt>
      <trkpt lat="43.20673" lon="5.48379">
        <ele>214.03</ele>
        <time>2012-05-26T13:08:34Z</time>
      </trkpt>
      <trkpt lat="43.20668" lon="5.4838">
        <ele>214.99</ele>
        <time>2012-05-26T13:08:46Z</time>
      </trkpt>
      <trkpt lat="43.2066" lon="5.48385">
        <ele>214.99</ele>
        <time>2012-05-26T13:09:06Z</time>
      </trkpt>
      <trkpt lat="43.20649" lon="5.48391">
        <ele>216.43</ele>
        <time>2012-05-26T13:09:18Z</time>
      </trkpt>
      <trkpt lat="43.20642" lon="5.484">
        <ele>215.95</ele>
        <time>2012-05-26T13:09:30Z</time>
      </trkpt>
      <trkpt lat="43.20642" lon="5.48401">
        <ele>216.43</ele>
        <time>2012-05-26T13:09:32Z</time>
      </trkpt>
      <trkpt lat="43.20634" lon="5.48413">
        <ele>216.91</ele>
        <time>2012-05-26T13:09:44Z</time>
      </trkpt>
      <trkpt lat="43.20623" lon="5.48424">
        <ele>218.36</ele>
        <time>2012-05-26T13:09:58Z</time>
      </trkpt>
      <trkpt lat="43.20615" lon="5.48432">
        <ele>219.8</ele>
        <time>2012-05-26T13:10:09Z</time>
      </trkpt>
      <trkpt lat="43.2061" lon="5.48441">
        <ele>220.76</ele>
        <time>2012-05-26T13:10:18Z</time>
      </trkpt>
      <trkpt lat="43.20605" lon="5.48446">
        <ele>221.24</ele>
        <time>2012-05-26T13:10:23Z</time>
      </trkpt>
      <trkpt lat="43.20596" lon="5.48455">
        <ele>222.2</ele>
        <time>2012-05-26T13:10:35Z</time>
      </trkpt>
      <trkpt lat="43.20591" lon="5.48459">
        <ele>222.68</ele>
        <time>2012-05-26T13:10:40Z</time>
      </trkpt>
      <trkpt lat="43.20583" lon="5.4847">
        <ele>224.12</ele>
        <time>2012-05-26T13:10:52Z</time>
      </trkpt>
      <trkpt lat="43.20577" lon="5.48474">
        <ele>224.61</ele>
        <time>2012-05-26T13:11:04Z</time>
      </trkpt>
      <trkpt lat="43.20575" lon="5.48475">
        <ele>224.61</ele>
        <time>2012-05-26T13:11:12Z</time>
      </trkpt>
      <trkpt lat="43.20574" lon="5.48477">
        <ele>224.12</ele>
        <time>2012-05-26T13:11:14Z</time>
      </trkpt>
      <trkpt lat="43.2057" lon="5.48482">
        <ele>224.61</ele>
        <time>2012-05-26T13:11:19Z</time>
      </trkpt>
      <trkpt lat="43.20569" lon="5.4849">
        <ele>224.12</ele>
        <time>2012-05-26T13:11:26Z</time>
      </trkpt>
      <trkpt lat="43.20567" lon="5.4851">
        <ele>222.2</ele>
        <time>2012-05-26T13:11:40Z</time>
      </trkpt>
      <trkpt lat="43.20566" lon="5.48516">
        <ele>222.2</ele>
        <time>2012-05-26T13:11:45Z</time>
      </trkpt>
      <trkpt lat="43.20563" lon="5.48527">
        <ele>220.76</ele>
        <time>2012-05-26T13:12:01Z</time>
      </trkpt>
      <trkpt lat="43.20563" lon="5.48536">
        <ele>219.8</ele>
        <time>2012-05-26T13:12:08Z</time>
      </trkpt>
      <trkpt lat="43.20562" lon="5.48551">
        <ele>218.36</ele>
        <time>2012-05-26T13:12:20Z</time>
      </trkpt>
      <trkpt lat="43.20559" lon="5.48563">
        <ele>216.91</ele>
        <time>2012-05-26T13:12:32Z</time>
      </trkpt>
      <trkpt lat="43.20553" lon="5.48582">
        <ele>215.47</ele>
        <time>2012-05-26T13:12:46Z</time>
      </trkpt>
      <trkpt lat="43.20547" lon="5.48598">
        <ele>214.03</ele>
        <time>2012-05-26T13:13:00Z</time>
      </trkpt>
      <trkpt lat="43.20542" lon="5.48613">
        <ele>211.63</ele>
        <time>2012-05-26T13:13:14Z</time>
      </trkpt>
      <trkpt lat="43.20537" lon="5.48628">
        <ele>210.67</ele>
        <time>2012-05-26T13:13:26Z</time>
      </trkpt>
      <trkpt lat="43.20529" lon="5.48642">
        <ele>208.74</ele>
        <time>2012-05-26T13:13:40Z</time>
      </trkpt>
      <trkpt lat="43.20523" lon="5.48652">
        <ele>207.78</ele>
        <time>2012-05-26T13:13:50Z</time>
      </trkpt>
      <trkpt lat="43.20516" lon="5.48664">
        <ele>207.78</ele>
        <time>2012-05-26T13:14:02Z</time>
      </trkpt>
      <trkpt lat="43.20509" lon="5.48671">
        <ele>205.86</ele>
        <time>2012-05-26T13:14:16Z</time>
      </trkpt>
      <trkpt lat="43.20511" lon="5.48674">
        <ele>206.34</ele>
        <time>2012-05-26T13:14:49Z</time>
      </trkpt>
      <trkpt lat="43.20509" lon="5.4868">
        <ele>205.38</ele>
        <time>2012-05-26T13:15:04Z</time>
      </trkpt>
      <trkpt lat="43.20508" lon="5.48692">
        <ele>202.49</ele>
        <time>2012-05-26T13:15:18Z</time>
      </trkpt>
      <trkpt lat="43.20504" lon="5.48702">
        <ele>201.05</ele>
        <time>2012-05-26T13:15:29Z</time>
      </trkpt>
      <trkpt lat="43.205" lon="5.48705">
        <ele>200.57</ele>
        <time>2012-05-26T13:15:42Z</time>
      </trkpt>
      <trkpt lat="43.205" lon="5.48705">
        <ele>200.57</ele>
        <time>2012-05-26T13:16:14Z</time>
      </trkpt>
      <trkpt lat="43.205" lon="5.48705">
        <ele>201.05</ele>
        <time>2012-05-26T13:17:08Z</time>
      </trkpt>
      <trkpt lat="43.205" lon="5.48705">
        <ele>201.05</ele>
        <time>2012-05-26T13:18:46Z</time>
      </trkpt>
      <trkpt lat="43.205" lon="5.48707">
        <ele>201.05</ele>
        <time>2012-05-26T13:19:21Z</time>
      </trkpt>
      <trkpt lat="43.205" lon="5.48707">
        <ele>201.05</ele>
        <time>2012-05-26T13:21:06Z</time>
      </trkpt>
      <trkpt lat="43.205" lon="5.48707">
        <ele>201.53</ele>
        <time>2012-05-26T13:22:30Z</time>
      </trkpt>
      <trkpt lat="43.20503" lon="5.4871">
        <ele>200.57</ele>
        <time>2012-05-26T13:24:04Z</time>
      </trkpt>
      <trkpt lat="43.20501" lon="5.48717">
        <ele>198.17</ele>
        <time>2012-05-26T13:24:15Z</time>
      </trkpt>
      <trkpt lat="43.205" lon="5.48725">
        <ele>196.25</ele>
        <time>2012-05-26T13:24:26Z</time>
      </trkpt>
      <trkpt lat="43.205" lon="5.48731">
        <ele>195.28</ele>
        <time>2012-05-26T13:25:12Z</time>
      </trkpt>
      <trkpt lat="43.20499" lon="5.48739">
        <ele>193.84</ele>
        <time>2012-05-26T13:25:20Z</time>
      </trkpt>
      <trkpt lat="43.20495" lon="5.48751">
        <ele>190.96</ele>
        <time>2012-05-26T13:25:32Z</time>
      </trkpt>
      <trkpt lat="43.20495" lon="5.48758">
        <ele>188.56</ele>
        <time>2012-05-26T13:25:45Z</time>
      </trkpt>
      <trkpt lat="43.20496" lon="5.48767">
        <ele>186.15</ele>
        <time>2012-05-26T13:25:56Z</time>
      </trkpt>
      <trkpt lat="43.20497" lon="5.48766">
        <ele>184.71</ele>
        <time>2012-05-26T13:26:00Z</time>
      </trkpt>
      <trkpt lat="43.20498" lon="5.48773">
        <ele>182.31</ele>
        <time>2012-05-26T13:26:11Z</time>
      </trkpt>
      <trkpt lat="43.20496" lon="5.48781">
        <ele>179.9</ele>
        <time>2012-05-26T13:26:21Z</time>
      </trkpt>
      <trkpt lat="43.20498" lon="5.48787">
        <ele>177.5</ele>
        <time>2012-05-26T13:26:33Z</time>
      </trkpt>
      <trkpt lat="43.20496" lon="5.48793">
        <ele>175.58</ele>
        <time>2012-05-26T13:26:43Z</time>
      </trkpt>
      <trkpt lat="43.20496" lon="5.48798">
        <ele>174.14</ele>
        <time>2012-05-26T13:26:53Z</time>
      </trkpt>
      <trkpt lat="43.20494" lon="5.48799">
        <ele>172.69</ele>
        <time>2012-05-26T13:27:08Z</time>
      </trkpt>
      <trkpt lat="43.20494" lon="5.48802">
        <ele>170.29</ele>
        <time>2012-05-26T13:27:31Z</time>
      </trkpt>
      <trkpt lat="43.20495" lon="5.48813">
        <ele>167.41</ele>
        <time>2012-05-26T13:27:43Z</time>
      </trkpt>
      <trkpt lat="43.20488" lon="5.48823">
        <ele>166.93</ele>
        <time>2012-05-26T13:27:55Z</time>
      </trkpt>
      <trkpt lat="43.20483" lon="5.48827">
        <ele>166.45</ele>
        <time>2012-05-26T13:28:01Z</time>
      </trkpt>
      <trkpt lat="43.20479" lon="5.48831">
        <ele>166.45</ele>
        <time>2012-05-26T13:28:06Z</time>
      </trkpt>
      <trkpt lat="43.20473" lon="5.4884">
        <ele>168.37</ele>
        <time>2012-05-26T13:28:18Z</time>
      </trkpt>
      <trkpt lat="43.20472" lon="5.48848">
        <ele>168.85</ele>
        <time>2012-05-26T13:28:29Z</time>
      </trkpt>
      <trkpt lat="43.20468" lon="5.4885">
        <ele>169.33</ele>
        <time>2012-05-26T13:28:37Z</time>
      </trkpt>
      <trkpt lat="43.20466" lon="5.48853">
        <ele>169.81</ele>
        <time>2012-05-26T13:28:45Z</time>
      </trkpt>
      <trkpt lat="43.20458" lon="5.48863">
        <ele>167.89</ele>
        <time>2012-05-26T13:28:58Z</time>
      </trkpt>
      <trkpt lat="43.20459" lon="5.48866">
        <ele>165.96</ele>
        <time>2012-05-26T13:29:08Z</time>
      </trkpt>
      <trkpt lat="43.20463" lon="5.48872">
        <ele>163.56</ele>
        <time>2012-05-26T13:29:18Z</time>
      </trkpt>
      <trkpt lat="43.20466" lon="5.48874">
        <ele>161.64</ele>
        <time>2012-05-26T13:29:34Z</time>
      </trkpt>
      <trkpt lat="43.20464" lon="5.4888">
        <ele>159.24</ele>
        <time>2012-05-26T13:29:46Z</time>
      </trkpt>
      <trkpt lat="43.20463" lon="5.48883">
        <ele>156.83</ele>
        <time>2012-05-26T13:30:10Z</time>
      </trkpt>
      <trkpt lat="43.20465" lon="5.48887">
        <ele>155.39</ele>
        <time>2012-05-26T13:30:22Z</time>
      </trkpt>
      <trkpt lat="43.20466" lon="5.48886">
        <ele>154.43</ele>
        <time>2012-05-26T13:30:43Z</time>
      </trkpt>
      <trkpt lat="43.20467" lon="5.48889">
        <ele>152.51</ele>
        <time>2012-05-26T13:31:22Z</time>
      </trkpt>
      <trkpt lat="43.20467" lon="5.48889">
        <ele>151.06</ele>
        <time>2012-05-26T13:31:34Z</time>
      </trkpt>
      <trkpt lat="43.20467" lon="5.48889">
        <ele>150.1</ele>
        <time>2012-05-26T13:31:52Z</time>
      </trkpt>
      <trkpt lat="43.20468" lon="5.48889">
        <ele>149.62</ele>
        <time>2012-05-26T13:32:26Z</time>
      </trkpt>
      <trkpt lat="43.20467" lon="5.4889">
        <ele>149.62</ele>
        <time>2012-05-26T13:33:22Z</time>
      </trkpt>
      <trkpt lat="43.20469" lon="5.48891">
        <ele>147.7</ele>
        <time>2012-05-26T13:34:04Z</time>
      </trkpt>
      <trkpt lat="43.20469" lon="5.48892">
        <ele>145.78</ele>
        <time>2012-05-26T13:34:16Z</time>
      </trkpt>
      <trkpt lat="43.20474" lon="5.48896">
        <ele>143.37</ele>
        <time>2012-05-26T13:34:26Z</time>
      </trkpt>
      <trkpt lat="43.20474" lon="5.48896">
        <ele>143.85</ele>
        <time>2012-05-26T13:35:19Z</time>
      </trkpt>
      <trkpt lat="43.20474" lon="5.48896">
        <ele>142.89</ele>
        <time>2012-05-26T13:35:36Z</time>
      </trkpt>
      <trkpt lat="43.20474" lon="5.48896">
        <ele>141.45</ele>
        <time>2012-05-26T13:36:13Z</time>
      </trkpt>
      <trkpt lat="43.20476" lon="5.48897">
        <ele>139.53</ele>
        <time>2012-05-26T13:36:31Z</time>
      </trkpt>
      <trkpt lat="43.20476" lon="5.48897">
        <ele>137.13</ele>
        <time>2012-05-26T13:36:45Z</time>
      </trkpt>
      <trkpt lat="43.20476" lon="5.48897">
        <ele>136.64</ele>
        <time>2012-05-26T13:37:04Z</time>
      </trkpt>
      <trkpt lat="43.20477" lon="5.48902">
        <ele>137.13</ele>
        <time>2012-05-26T13:38:05Z</time>
      </trkpt>
      <trkpt lat="43.20478" lon="5.48904">
        <ele>136.16</ele>
        <time>2012-05-26T13:38:46Z</time>
      </trkpt>
      <trkpt lat="43.20481" lon="5.48913">
        <ele>133.28</ele>
        <time>2012-05-26T13:39:00Z</time>
      </trkpt>
      <trkpt lat="43.20481" lon="5.48913">
        <ele>133.28</ele>
        <time>2012-05-26T13:39:26Z</time>
      </trkpt>
      <trkpt lat="43.2048" lon="5.48915">
        <ele>132.32</ele>
        <time>2012-05-26T13:39:35Z</time>
      </trkpt>
      <trkpt lat="43.20484" lon="5.48915">
        <ele>133.76</ele>
        <time>2012-05-26T13:39:48Z</time>
      </trkpt>
      <trkpt lat="43.20484" lon="5.48916">
        <ele>133.76</ele>
        <time>2012-05-26T13:40:29Z</time>
      </trkpt>
      <trkpt lat="43.2048" lon="5.48917">
        <ele>132.8</ele>
        <time>2012-05-26T13:40:59Z</time>
      </trkpt>
      <trkpt lat="43.20483" lon="5.48922">
        <ele>129.92</ele>
        <time>2012-05-26T13:41:10Z</time>
      </trkpt>
      <trkpt lat="43.20486" lon="5.48928">
        <ele>126.55</ele>
        <time>2012-05-26T13:41:20Z</time>
      </trkpt>
      <trkpt lat="43.20483" lon="5.48933">
        <ele>126.07</ele>
        <time>2012-05-26T13:41:25Z</time>
      </trkpt>
      <trkpt lat="43.20481" lon="5.4894">
        <ele>123.19</ele>
        <time>2012-05-26T13:41:32Z</time>
      </trkpt>
      <trkpt lat="43.20481" lon="5.48948">
        <ele>121.26</ele>
        <time>2012-05-26T13:41:42Z</time>
      </trkpt>
      <trkpt lat="43.20481" lon="5.48948">
        <ele>118.38</ele>
        <time>2012-05-26T13:41:54Z</time>
      </trkpt>
      <trkpt lat="43.20478" lon="5.48954">
        <ele>115.5</ele>
        <time>2012-05-26T13:42:05Z</time>
      </trkpt>
      <trkpt lat="43.20475" lon="5.48961">
        <ele>114.05</ele>
        <time>2012-05-26T13:42:17Z</time>
      </trkpt>
      <trkpt lat="43.20475" lon="5.48963">
        <ele>114.05</ele>
        <time>2012-05-26T13:42:22Z</time>
      </trkpt>
      <trkpt lat="43.20475" lon="5.48961">
        <ele>114.05</ele>
        <time>2012-05-26T13:42:30Z</time>
      </trkpt>
      <trkpt lat="43.20475" lon="5.48961">
        <ele>114.05</ele>
        <time>2012-05-26T13:43:28Z</time>
      </trkpt>
      <trkpt lat="43.20475" lon="5.48961">
        <ele>114.05</ele>
        <time>2012-05-26T13:44:36Z</time>
      </trkpt>
      <trkpt lat="43.20483" lon="5.48963">
        <ele>113.09</ele>
        <time>2012-05-26T13:44:50Z</time>
      </trkpt>
      <trkpt lat="43.20494" lon="5.48955">
        <ele>112.13</ele>
        <time>2012-05-26T13:45:02Z</time>
      </trkpt>
      <trkpt lat="43.20497" lon="5.48951">
        <ele>112.13</ele>
        <time>2012-05-26T13:45:07Z</time>
      </trkpt>
      <trkpt lat="43.20504" lon="5.48945">
        <ele>110.69</ele>
        <time>2012-05-26T13:45:14Z</time>
      </trkpt>
      <trkpt lat="43.20511" lon="5.48943">
        <ele>108.29</ele>
        <time>2012-05-26T13:45:27Z</time>
      </trkpt>
      <trkpt lat="43.20509" lon="5.48956">
        <ele>105.88</ele>
        <time>2012-05-26T13:45:40Z</time>
      </trkpt>
      <trkpt lat="43.2051" lon="5.48963">
        <ele>102.52</ele>
        <time>2012-05-26T13:45:52Z</time>
      </trkpt>
      <trkpt lat="43.2051" lon="5.48965">
        <ele>100.6</ele>
        <time>2012-05-26T13:46:04Z</time>
      </trkpt>
      <trkpt lat="43.20509" lon="5.48974">
        <ele>98.19</ele>
        <time>2012-05-26T13:46:16Z</time>
      </trkpt>
      <trkpt lat="43.20506" lon="5.48984">
        <ele>95.79</ele>
        <time>2012-05-26T13:46:31Z</time>
      </trkpt>
      <trkpt lat="43.20505" lon="5.48986">
        <ele>95.31</ele>
        <time>2012-05-26T13:46:41Z</time>
      </trkpt>
      <trkpt lat="43.20505" lon="5.48986">
        <ele>92.42</ele>
        <time>2012-05-26T13:46:53Z</time>
      </trkpt>
      <trkpt lat="43.20509" lon="5.49">
        <ele>89.06</ele>
        <time>2012-05-26T13:47:06Z</time>
      </trkpt>
      <trkpt lat="43.20511" lon="5.49006">
        <ele>86.66</ele>
        <time>2012-05-26T13:47:19Z</time>
      </trkpt>
      <trkpt lat="43.20511" lon="5.49006">
        <ele>83.77</ele>
        <time>2012-05-26T13:47:30Z</time>
      </trkpt>
      <trkpt lat="43.20512" lon="5.49008">
        <ele>80.41</ele>
        <time>2012-05-26T13:47:44Z</time>
      </trkpt>
      <trkpt lat="43.20512" lon="5.49016">
        <ele>77.52</ele>
        <time>2012-05-26T13:47:53Z</time>
      </trkpt>
      <trkpt lat="43.20513" lon="5.4902">
        <ele>75.6</ele>
        <time>2012-05-26T13:48:03Z</time>
      </trkpt>
      <trkpt lat="43.20514" lon="5.4904">
        <ele>73.68</ele>
        <time>2012-05-26T13:48:13Z</time>
      </trkpt>
      <trkpt lat="43.20514" lon="5.49049">
        <ele>70.79</ele>
        <time>2012-05-26T13:48:25Z</time>
      </trkpt>
      <trkpt lat="43.20514" lon="5.49055">
        <ele>67.43</ele>
        <time>2012-05-26T13:48:37Z</time>
      </trkpt>
      <trkpt lat="43.20514" lon="5.49055">
        <ele>64.55</ele>
        <time>2012-05-26T13:48:51Z</time>
      </trkpt>
      <trkpt lat="43.20514" lon="5.49059">
        <ele>62.62</ele>
        <time>2012-05-26T13:49:02Z</time>
      </trkpt>
      <trkpt lat="43.20514" lon="5.49059">
        <ele>59.26</ele>
        <time>2012-05-26T13:49:16Z</time>
      </trkpt>
      <trkpt lat="43.20526" lon="5.49077">
        <ele>56.37</ele>
        <time>2012-05-26T13:49:27Z</time>
      </trkpt>
      <trkpt lat="43.20527" lon="5.49085">
        <ele>54.93</ele>
        <time>2012-05-26T13:49:41Z</time>
      </trkpt>
      <trkpt lat="43.20525" lon="5.49106">
        <ele>52.05</ele>
        <time>2012-05-26T13:49:56Z</time>
      </trkpt>
      <trkpt lat="43.20522" lon="5.49118">
        <ele>50.13</ele>
        <time>2012-05-26T13:50:10Z</time>
      </trkpt>
      <trkpt lat="43.20524" lon="5.49135">
        <ele>48.68</ele>
        <time>2012-05-26T13:50:25Z</time>
      </trkpt>
      <trkpt lat="43.20527" lon="5.4914">
        <ele>50.13</ele>
        <time>2012-05-26T13:50:47Z</time>
      </trkpt>
      <trkpt lat="43.20528" lon="5.49141">
        <ele>50.13</ele>
        <time>2012-05-26T13:53:03Z</time>
      </trkpt>
      <trkpt lat="43.20528" lon="5.49141">
        <ele>50.13</ele>
        <time>2012-05-26T13:53:27Z</time>
      </trkpt>
      <trkpt lat="43.20528" lon="5.4914">
        <ele>50.13</ele>
        <time>2012-05-26T13:54:01Z</time>
      </trkpt>
      <trkpt lat="43.20533" lon="5.49144">
        <ele>53.01</ele>
        <time>2012-05-26T13:55:40Z</time>
      </trkpt>
      <trkpt lat="43.20545" lon="5.49144">
        <ele>55.41</ele>
        <time>2012-05-26T13:55:52Z</time>
      </trkpt>
      <trkpt lat="43.20554" lon="5.49145">
        <ele>57.34</ele>
        <time>2012-05-26T13:56:05Z</time>
      </trkpt>
      <trkpt lat="43.2056" lon="5.49151">
        <ele>59.74</ele>
        <time>2012-05-26T13:56:19Z</time>
      </trkpt>
      <trkpt lat="43.20562" lon="5.49151">
        <ele>60.22</ele>
        <time>2012-05-26T13:56:21Z</time>
      </trkpt>
      <trkpt lat="43.20567" lon="5.49159">
        <ele>63.1</ele>
        <time>2012-05-26T13:56:34Z</time>
      </trkpt>
      <trkpt lat="43.20575" lon="5.49159">
        <ele>65.99</ele>
        <time>2012-05-26T13:56:47Z</time>
      </trkpt>
      <trkpt lat="43.20579" lon="5.49161">
        <ele>67.43</ele>
        <time>2012-05-26T13:56:59Z</time>
      </trkpt>
      <trkpt lat="43.20586" lon="5.49163">
        <ele>70.79</ele>
        <time>2012-05-26T13:57:13Z</time>
      </trkpt>
      <trkpt lat="43.20591" lon="5.49157">
        <ele>73.68</ele>
        <time>2012-05-26T13:57:26Z</time>
      </trkpt>
      <trkpt lat="43.20592" lon="5.49149">
        <ele>76.08</ele>
        <time>2012-05-26T13:57:36Z</time>
      </trkpt>
      <trkpt lat="43.20594" lon="5.49145">
        <ele>78.48</ele>
        <time>2012-05-26T13:57:50Z</time>
      </trkpt>
      <trkpt lat="43.20604" lon="5.4914">
        <ele>81.37</ele>
        <time>2012-05-26T13:58:04Z</time>
      </trkpt>
      <trkpt lat="43.20613" lon="5.49144">
        <ele>82.81</ele>
        <time>2012-05-26T13:58:19Z</time>
      </trkpt>
      <trkpt lat="43.20618" lon="5.4915">
        <ele>84.25</ele>
        <time>2012-05-26T13:58:31Z</time>
      </trkpt>
      <trkpt lat="43.2063" lon="5.49152">
        <ele>84.73</ele>
        <time>2012-05-26T13:58:42Z</time>
      </trkpt>
      <trkpt lat="43.20631" lon="5.49153">
        <ele>84.73</ele>
        <time>2012-05-26T13:58:43Z</time>
      </trkpt>
      <trkpt lat="43.20638" lon="5.49157">
        <ele>85.21</ele>
        <time>2012-05-26T13:58:51Z</time>
      </trkpt>
      <trkpt lat="43.20642" lon="5.49161">
        <ele>85.69</ele>
        <time>2012-05-26T13:58:55Z</time>
      </trkpt>
      <trkpt lat="43.20647" lon="5.49153">
        <ele>86.18</ele>
        <time>2012-05-26T13:59:06Z</time>
      </trkpt>
      <trkpt lat="43.20655" lon="5.49152">
        <ele>87.14</ele>
        <time>2012-05-26T13:59:16Z</time>
      </trkpt>
      <trkpt lat="43.20659" lon="5.4916">
        <ele>87.62</ele>
        <time>2012-05-26T13:59:24Z</time>
      </trkpt>
      <trkpt lat="43.20664" lon="5.49163">
        <ele>89.54</ele>
        <time>2012-05-26T13:59:33Z</time>
      </trkpt>
      <trkpt lat="43.20665" lon="5.49163">
        <ele>89.54</ele>
        <time>2012-05-26T13:59:34Z</time>
      </trkpt>
      <trkpt lat="43.20674" lon="5.49167">
        <ele>90.5</ele>
        <time>2012-05-26T13:59:41Z</time>
      </trkpt>
      <trkpt lat="43.20676" lon="5.49172">
        <ele>90.98</ele>
        <time>2012-05-26T13:59:51Z</time>
      </trkpt>
      <trkpt lat="43.2068" lon="5.49172">
        <ele>90.5</ele>
        <time>2012-05-26T14:00:08Z</time>
      </trkpt>
      <trkpt lat="43.20685" lon="5.49172">
        <ele>90.98</ele>
        <time>2012-05-26T14:00:15Z</time>
      </trkpt>
      <trkpt lat="43.20695" lon="5.49173">
        <ele>90.5</ele>
        <time>2012-05-26T14:00:24Z</time>
      </trkpt>
      <trkpt lat="43.20696" lon="5.49177">
        <ele>90.02</ele>
        <time>2012-05-26T14:00:56Z</time>
      </trkpt>
      <trkpt lat="43.20703" lon="5.49177">
        <ele>90.98</ele>
        <time>2012-05-26T14:01:09Z</time>
      </trkpt>
      <trkpt lat="43.2071" lon="5.49171">
        <ele>90.98</ele>
        <time>2012-05-26T14:01:23Z</time>
      </trkpt>
      <trkpt lat="43.20714" lon="5.4917">
        <ele>91.46</ele>
        <time>2012-05-26T14:01:34Z</time>
      </trkpt>
      <trkpt lat="43.20717" lon="5.49166">
        <ele>91.94</ele>
        <time>2012-05-26T14:01:39Z</time>
      </trkpt>
      <trkpt lat="43.20727" lon="5.49157">
        <ele>93.39</ele>
        <time>2012-05-26T14:01:50Z</time>
      </trkpt>
      <trkpt lat="43.20739" lon="5.4915">
        <ele>94.83</ele>
        <time>2012-05-26T14:02:04Z</time>
      </trkpt>
      <trkpt lat="43.20761" lon="5.49142">
        <ele>96.75</ele>
        <time>2012-05-26T14:02:22Z</time>
      </trkpt>
      <trkpt lat="43.20775" lon="5.49136">
        <ele>97.71</ele>
        <time>2012-05-26T14:02:41Z</time>
      </trkpt>
      <trkpt lat="43.20788" lon="5.49129">
        <ele>99.63</ele>
        <time>2012-05-26T14:02:54Z</time>
      </trkpt>
      <trkpt lat="43.20797" lon="5.49127">
        <ele>100.6</ele>
        <time>2012-05-26T14:03:05Z</time>
      </trkpt>
      <trkpt lat="43.20805" lon="5.49124">
        <ele>102.04</ele>
        <time>2012-05-26T14:03:18Z</time>
      </trkpt>
      <trkpt lat="43.20814" lon="5.49126">
        <ele>102.52</ele>
        <time>2012-05-26T14:03:31Z</time>
      </trkpt>
      <trkpt lat="43.20822" lon="5.49128">
        <ele>104.44</ele>
        <time>2012-05-26T14:03:45Z</time>
      </trkpt>
      <trkpt lat="43.20837" lon="5.49131">
        <ele>105.4</ele>
        <time>2012-05-26T14:04:00Z</time>
      </trkpt>
      <trkpt lat="43.20853" lon="5.49123">
        <ele>105.88</ele>
        <time>2012-05-26T14:04:19Z</time>
      </trkpt>
      <trkpt lat="43.20876" lon="5.49104">
        <ele>107.32</ele>
        <time>2012-05-26T14:04:33Z</time>
      </trkpt>
      <trkpt lat="43.20889" lon="5.49091">
        <ele>109.25</ele>
        <time>2012-05-26T14:04:46Z</time>
      </trkpt>
      <trkpt lat="43.2089" lon="5.49086">
        <ele>109.25</ele>
        <time>2012-05-26T14:04:49Z</time>
      </trkpt>
      <trkpt lat="43.20892" lon="5.49075">
        <ele>109.25</ele>
        <time>2012-05-26T14:04:56Z</time>
      </trkpt>
      <trkpt lat="43.20895" lon="5.4905">
        <ele>109.73</ele>
        <time>2012-05-26T14:05:09Z</time>
      </trkpt>
      <trkpt lat="43.20891" lon="5.49032">
        <ele>110.21</ele>
        <time>2012-05-26T14:05:22Z</time>
      </trkpt>
      <trkpt lat="43.2089" lon="5.49031">
        <ele>110.69</ele>
        <time>2012-05-26T14:05:24Z</time>
      </trkpt>
      <trkpt lat="43.20889" lon="5.49015">
        <ele>112.13</ele>
        <time>2012-05-26T14:05:39Z</time>
      </trkpt>
      <trkpt lat="43.20899" lon="5.49011">
        <ele>114.05</ele>
        <time>2012-05-26T14:05:52Z</time>
      </trkpt>
      <trkpt lat="43.20916" lon="5.49012">
        <ele>114.53</ele>
        <time>2012-05-26T14:06:08Z</time>
      </trkpt>
      <trkpt lat="43.2093" lon="5.4902">
        <ele>116.46</ele>
        <time>2012-05-26T14:06:23Z</time>
      </trkpt>
      <trkpt lat="43.20938" lon="5.49009">
        <ele>117.42</ele>
        <time>2012-05-26T14:06:36Z</time>
      </trkpt>
      <trkpt lat="43.20944" lon="5.48994">
        <ele>118.38</ele>
        <time>2012-05-26T14:06:46Z</time>
      </trkpt>
      <trkpt lat="43.20948" lon="5.48983">
        <ele>119.34</ele>
        <time>2012-05-26T14:06:54Z</time>
      </trkpt>
      <trkpt lat="43.2095" lon="5.48967">
        <ele>120.3</ele>
        <time>2012-05-26T14:07:06Z</time>
      </trkpt>
      <trkpt lat="43.20953" lon="5.48952">
        <ele>121.74</ele>
        <time>2012-05-26T14:07:19Z</time>
      </trkpt>
      <trkpt lat="43.20956" lon="5.48941">
        <ele>123.67</ele>
        <time>2012-05-26T14:07:31Z</time>
      </trkpt>
      <trkpt lat="43.20958" lon="5.48937">
        <ele>124.15</ele>
        <time>2012-05-26T14:07:35Z</time>
      </trkpt>
      <trkpt lat="43.20971" lon="5.48929">
        <ele>125.11</ele>
        <time>2012-05-26T14:07:48Z</time>
      </trkpt>
      <trkpt lat="43.20984" lon="5.48933">
        <ele>126.55</ele>
        <time>2012-05-26T14:08:01Z</time>
      </trkpt>
      <trkpt lat="43.20992" lon="5.48939">
        <ele>127.51</ele>
        <time>2012-05-26T14:08:14Z</time>
      </trkpt>
      <trkpt lat="43.21001" lon="5.48946">
        <ele>128.95</ele>
        <time>2012-05-26T14:08:28Z</time>
      </trkpt>
      <trkpt lat="43.21012" lon="5.4894">
        <ele>130.4</ele>
        <time>2012-05-26T14:08:41Z</time>
      </trkpt>
      <trkpt lat="43.21015" lon="5.48937">
        <ele>130.88</ele>
        <time>2012-05-26T14:08:43Z</time>
      </trkpt>
      <trkpt lat="43.21014" lon="5.48915">
        <ele>130.88</ele>
        <time>2012-05-26T14:08:55Z</time>
      </trkpt>
      <trkpt lat="43.21009" lon="5.489">
        <ele>131.84</ele>
        <time>2012-05-26T14:09:05Z</time>
      </trkpt>
      <trkpt lat="43.21002" lon="5.48886">
        <ele>132.8</ele>
        <time>2012-05-26T14:09:18Z</time>
      </trkpt>
      <trkpt lat="43.21003" lon="5.4888">
        <ele>133.76</ele>
        <time>2012-05-26T14:09:23Z</time>
      </trkpt>
      <trkpt lat="43.21011" lon="5.48863">
        <ele>133.76</ele>
        <time>2012-05-26T14:09:36Z</time>
      </trkpt>
      <trkpt lat="43.21018" lon="5.48849">
        <ele>134.24</ele>
        <time>2012-05-26T14:09:45Z</time>
      </trkpt>
      <trkpt lat="43.21026" lon="5.48832">
        <ele>135.68</ele>
        <time>2012-05-26T14:09:58Z</time>
      </trkpt>
      <trkpt lat="43.21035" lon="5.48817">
        <ele>136.16</ele>
        <time>2012-05-26T14:10:10Z</time>
      </trkpt>
      <trkpt lat="43.21043" lon="5.48803">
        <ele>137.13</ele>
        <time>2012-05-26T14:10:22Z</time>
      </trkpt>
      <trkpt lat="43.21043" lon="5.48802">
        <ele>137.13</ele>
        <time>2012-05-26T14:10:23Z</time>
      </trkpt>
      <trkpt lat="43.2104" lon="5.488">
        <ele>137.13</ele>
        <time>2012-05-26T14:10:26Z</time>
      </trkpt>
      <trkpt lat="43.21038" lon="5.488">
        <ele>137.61</ele>
        <time>2012-05-26T14:10:41Z</time>
      </trkpt>
      <trkpt lat="43.21044" lon="5.48801">
        <ele>137.13</ele>
        <time>2012-05-26T14:10:58Z</time>
      </trkpt>
      <trkpt lat="43.21048" lon="5.48797">
        <ele>137.61</ele>
        <time>2012-05-26T14:11:11Z</time>
      </trkpt>
      <trkpt lat="43.21049" lon="5.48799">
        <ele>136.64</ele>
        <time>2012-05-26T14:12:03Z</time>
      </trkpt>
      <trkpt lat="43.21048" lon="5.48798">
        <ele>137.61</ele>
        <time>2012-05-26T14:12:20Z</time>
      </trkpt>
      <trkpt lat="43.21048" lon="5.48797">
        <ele>137.13</ele>
        <time>2012-05-26T14:12:47Z</time>
      </trkpt>
      <trkpt lat="43.21046" lon="5.488">
        <ele>137.61</ele>
        <time>2012-05-26T14:13:09Z</time>
      </trkpt>
      <trkpt lat="43.21048" lon="5.48801">
        <ele>137.13</ele>
        <time>2012-05-26T14:13:11Z</time>
      </trkpt>
      <trkpt lat="43.21053" lon="5.48793">
        <ele>137.13</ele>
        <time>2012-05-26T14:13:27Z</time>
      </trkpt>
      <trkpt lat="43.21053" lon="5.48793">
        <ele>181.83</ele>
        <time>2012-05-26T14:26:18Z</time>
      </trkpt>
      <trkpt lat="43.21053" lon="5.48793">
        <ele>142.41</ele>
        <time>2012-05-26T14:26:20Z</time>
      </trkpt>
      <trkpt lat="43.21053" lon="5.48793">
        <ele>142.41</ele>
        <time>2012-05-26T14:26:21Z</time>
      </trkpt>
      <trkpt lat="43.2105" lon="5.48795">
        <ele>142.41</ele>
        <time>2012-05-26T14:26:25Z</time>
      </trkpt>
      <trkpt lat="43.21051" lon="5.48798">
        <ele>140.01</ele>
        <time>2012-05-26T14:26:34Z</time>
      </trkpt>
      <trkpt lat="43.21052" lon="5.48801">
        <ele>138.09</ele>
        <time>2012-05-26T14:26:37Z</time>
      </trkpt>
      <trkpt lat="43.21048" lon="5.48802">
        <ele>135.2</ele>
        <time>2012-05-26T14:26:51Z</time>
      </trkpt>
      <trkpt lat="43.21049" lon="5.48801">
        <ele>134.24</ele>
        <time>2012-05-26T14:26:53Z</time>
      </trkpt>
      <trkpt lat="43.21063" lon="5.48792">
        <ele>133.76</ele>
        <time>2012-05-26T14:28:03Z</time>
      </trkpt>
      <trkpt lat="43.21073" lon="5.48793">
        <ele>134.72</ele>
        <time>2012-05-26T14:28:15Z</time>
      </trkpt>
      <trkpt lat="43.2109" lon="5.48787">
        <ele>135.2</ele>
        <time>2012-05-26T14:28:28Z</time>
      </trkpt>
      <trkpt lat="43.21095" lon="5.48781">
        <ele>135.68</ele>
        <time>2012-05-26T14:28:34Z</time>
      </trkpt>
      <trkpt lat="43.21111" lon="5.48789">
        <ele>138.09</ele>
        <time>2012-05-26T14:28:48Z</time>
      </trkpt>
      <trkpt lat="43.21097" lon="5.48803">
        <ele>139.05</ele>
        <time>2012-05-26T14:29:05Z</time>
      </trkpt>
      <trkpt lat="43.21084" lon="5.48815">
        <ele>139.53</ele>
        <time>2012-05-26T14:29:19Z</time>
      </trkpt>
      <trkpt lat="43.21076" lon="5.48826">
        <ele>141.45</ele>
        <time>2012-05-26T14:29:30Z</time>
      </trkpt>
      <trkpt lat="43.21065" lon="5.48838">
        <ele>144.34</ele>
        <time>2012-05-26T14:29:47Z</time>
      </trkpt>
      <trkpt lat="43.21056" lon="5.48846">
        <ele>145.78</ele>
        <time>2012-05-26T14:29:58Z</time>
      </trkpt>
      <trkpt lat="43.21053" lon="5.4886">
        <ele>147.7</ele>
        <time>2012-05-26T14:30:09Z</time>
      </trkpt>
      <trkpt lat="43.21053" lon="5.48869">
        <ele>148.66</ele>
        <time>2012-05-26T14:30:16Z</time>
      </trkpt>
      <trkpt lat="43.2106" lon="5.48882">
        <ele>150.58</ele>
        <time>2012-05-26T14:30:27Z</time>
      </trkpt>
      <trkpt lat="43.21063" lon="5.48885">
        <ele>151.54</ele>
        <time>2012-05-26T14:30:31Z</time>
      </trkpt>
      <trkpt lat="43.21073" lon="5.48891">
        <ele>154.43</ele>
        <time>2012-05-26T14:30:49Z</time>
      </trkpt>
      <trkpt lat="43.21074" lon="5.48902">
        <ele>156.35</ele>
        <time>2012-05-26T14:31:01Z</time>
      </trkpt>
      <trkpt lat="43.21072" lon="5.4892">
        <ele>157.79</ele>
        <time>2012-05-26T14:31:14Z</time>
      </trkpt>
      <trkpt lat="43.2107" lon="5.48937">
        <ele>157.79</ele>
        <time>2012-05-26T14:31:27Z</time>
      </trkpt>
      <trkpt lat="43.21067" lon="5.48953">
        <ele>157.31</ele>
        <time>2012-05-26T14:31:38Z</time>
      </trkpt>
      <trkpt lat="43.2106" lon="5.48971">
        <ele>158.27</ele>
        <time>2012-05-26T14:31:52Z</time>
      </trkpt>
      <trkpt lat="43.21058" lon="5.48978">
        <ele>159.72</ele>
        <time>2012-05-26T14:31:58Z</time>
      </trkpt>
      <trkpt lat="43.21053" lon="5.48995">
        <ele>161.16</ele>
        <time>2012-05-26T14:32:10Z</time>
      </trkpt>
      <trkpt lat="43.21045" lon="5.49006">
        <ele>162.6</ele>
        <time>2012-05-26T14:32:22Z</time>
      </trkpt>
      <trkpt lat="43.21045" lon="5.49008">
        <ele>162.6</ele>
        <time>2012-05-26T14:32:23Z</time>
      </trkpt>
      <trkpt lat="43.21038" lon="5.49017">
        <ele>163.56</ele>
        <time>2012-05-26T14:32:31Z</time>
      </trkpt>
      <trkpt lat="43.21029" lon="5.49031">
        <ele>165</ele>
        <time>2012-05-26T14:32:45Z</time>
      </trkpt>
      <trkpt lat="43.21028" lon="5.49039">
        <ele>165</ele>
        <time>2012-05-26T14:32:50Z</time>
      </trkpt>
      <trkpt lat="43.21026" lon="5.4906">
        <ele>165.96</ele>
        <time>2012-05-26T14:33:04Z</time>
      </trkpt>
      <trkpt lat="43.21022" lon="5.49078">
        <ele>167.89</ele>
        <time>2012-05-26T14:33:16Z</time>
      </trkpt>
      <trkpt lat="43.21017" lon="5.49097">
        <ele>168.85</ele>
        <time>2012-05-26T14:33:29Z</time>
      </trkpt>
      <trkpt lat="43.2101" lon="5.49116">
        <ele>170.29</ele>
        <time>2012-05-26T14:33:43Z</time>
      </trkpt>
      <trkpt lat="43.21009" lon="5.49118">
        <ele>171.25</ele>
        <time>2012-05-26T14:33:45Z</time>
      </trkpt>
      <trkpt lat="43.21009" lon="5.49123">
        <ele>171.25</ele>
        <time>2012-05-26T14:33:48Z</time>
      </trkpt>
      <trkpt lat="43.21014" lon="5.49129">
        <ele>172.21</ele>
        <time>2012-05-26T14:33:55Z</time>
      </trkpt>
      <trkpt lat="43.21019" lon="5.49127">
        <ele>172.21</ele>
        <time>2012-05-26T14:34:13Z</time>
      </trkpt>
      <trkpt lat="43.21025" lon="5.49127">
        <ele>172.21</ele>
        <time>2012-05-26T14:34:41Z</time>
      </trkpt>
      <trkpt lat="43.21029" lon="5.4913">
        <ele>171.25</ele>
        <time>2012-05-26T14:34:55Z</time>
      </trkpt>
      <trkpt lat="43.21029" lon="5.49129">
        <ele>172.21</ele>
        <time>2012-05-26T14:35:46Z</time>
      </trkpt>
      <trkpt lat="43.21035" lon="5.49127">
        <ele>171.73</ele>
        <time>2012-05-26T14:35:51Z</time>
      </trkpt>
      <trkpt lat="43.21041" lon="5.49119">
        <ele>171.25</ele>
        <time>2012-05-26T14:36:04Z</time>
      </trkpt>
      <trkpt lat="43.21042" lon="5.49119">
        <ele>171.25</ele>
        <time>2012-05-26T14:36:42Z</time>
      </trkpt>
      <trkpt lat="43.21042" lon="5.49119">
        <ele>171.73</ele>
        <time>2012-05-26T14:36:49Z</time>
      </trkpt>
      <trkpt lat="43.2105" lon="5.49116">
        <ele>171.25</ele>
        <time>2012-05-26T14:36:56Z</time>
      </trkpt>
      <trkpt lat="43.21063" lon="5.49114">
        <ele>169.81</ele>
        <time>2012-05-26T14:37:06Z</time>
      </trkpt>
      <trkpt lat="43.21083" lon="5.49113">
        <ele>166.93</ele>
        <time>2012-05-26T14:37:22Z</time>
      </trkpt>
      <trkpt lat="43.21087" lon="5.49112">
        <ele>165.96</ele>
        <time>2012-05-26T14:37:29Z</time>
      </trkpt>
      <trkpt lat="43.21102" lon="5.4911">
        <ele>164.52</ele>
        <time>2012-05-26T14:37:38Z</time>
      </trkpt>
      <trkpt lat="43.21114" lon="5.49107">
        <ele>162.6</ele>
        <time>2012-05-26T14:37:47Z</time>
      </trkpt>
      <trkpt lat="43.21117" lon="5.49108">
        <ele>161.64</ele>
        <time>2012-05-26T14:37:49Z</time>
      </trkpt>
      <trkpt lat="43.21133" lon="5.49104">
        <ele>159.72</ele>
        <time>2012-05-26T14:37:58Z</time>
      </trkpt>
      <trkpt lat="43.21137" lon="5.49114">
        <ele>157.31</ele>
        <time>2012-05-26T14:38:08Z</time>
      </trkpt>
      <trkpt lat="43.21136" lon="5.49115">
        <ele>156.35</ele>
        <time>2012-05-26T14:38:09Z</time>
      </trkpt>
      <trkpt lat="43.21125" lon="5.49131">
        <ele>154.43</ele>
        <time>2012-05-26T14:38:19Z</time>
      </trkpt>
      <trkpt lat="43.21113" lon="5.49142">
        <ele>152.51</ele>
        <time>2012-05-26T14:38:29Z</time>
      </trkpt>
      <trkpt lat="43.21109" lon="5.49154">
        <ele>151.54</ele>
        <time>2012-05-26T14:38:36Z</time>
      </trkpt>
      <trkpt lat="43.21096" lon="5.49168">
        <ele>149.14</ele>
        <time>2012-05-26T14:38:49Z</time>
      </trkpt>
      <trkpt lat="43.2109" lon="5.49174">
        <ele>147.7</ele>
        <time>2012-05-26T14:38:54Z</time>
      </trkpt>
      <trkpt lat="43.21073" lon="5.49196">
        <ele>145.3</ele>
        <time>2012-05-26T14:39:10Z</time>
      </trkpt>
      <trkpt lat="43.21068" lon="5.49205">
        <ele>142.89</ele>
        <time>2012-05-26T14:39:18Z</time>
      </trkpt>
      <trkpt lat="43.21068" lon="5.49208">
        <ele>141.93</ele>
        <time>2012-05-26T14:39:20Z</time>
      </trkpt>
      <trkpt lat="43.21067" lon="5.49228">
        <ele>139.05</ele>
        <time>2012-05-26T14:39:32Z</time>
      </trkpt>
      <trkpt lat="43.21069" lon="5.49235">
        <ele>138.57</ele>
        <time>2012-05-26T14:39:36Z</time>
      </trkpt>
      <trkpt lat="43.21071" lon="5.49242">
        <ele>137.61</ele>
        <time>2012-05-26T14:39:39Z</time>
      </trkpt>
      <trkpt lat="43.21075" lon="5.49252">
        <ele>136.16</ele>
        <time>2012-05-26T14:39:51Z</time>
      </trkpt>
      <trkpt lat="43.21076" lon="5.49257">
        <ele>136.16</ele>
        <time>2012-05-26T14:40:16Z</time>
      </trkpt>
      <trkpt lat="43.21079" lon="5.49275">
        <ele>134.72</ele>
        <time>2012-05-26T14:40:25Z</time>
      </trkpt>
      <trkpt lat="43.21081" lon="5.4929">
        <ele>132.32</ele>
        <time>2012-05-26T14:40:38Z</time>
      </trkpt>
      <trkpt lat="43.21083" lon="5.49297">
        <ele>131.36</ele>
        <time>2012-05-26T14:40:44Z</time>
      </trkpt>
      <trkpt lat="43.21084" lon="5.4931">
        <ele>130.4</ele>
        <time>2012-05-26T14:40:50Z</time>
      </trkpt>
      <trkpt lat="43.21087" lon="5.49324">
        <ele>128.47</ele>
        <time>2012-05-26T14:41:03Z</time>
      </trkpt>
      <trkpt lat="43.2109" lon="5.49334">
        <ele>127.51</ele>
        <time>2012-05-26T14:41:12Z</time>
      </trkpt>
      <trkpt lat="43.2109" lon="5.49344">
        <ele>126.55</ele>
        <time>2012-05-26T14:41:16Z</time>
      </trkpt>
      <trkpt lat="43.21094" lon="5.49353">
        <ele>125.11</ele>
        <time>2012-05-26T14:41:22Z</time>
      </trkpt>
      <trkpt lat="43.21097" lon="5.4936">
        <ele>124.15</ele>
        <time>2012-05-26T14:41:28Z</time>
      </trkpt>
      <trkpt lat="43.211" lon="5.49376">
        <ele>122.71</ele>
        <time>2012-05-26T14:41:37Z</time>
      </trkpt>
      <trkpt lat="43.21105" lon="5.49387">
        <ele>121.26</ele>
        <time>2012-05-26T14:41:44Z</time>
      </trkpt>
      <trkpt lat="43.21116" lon="5.494">
        <ele>118.38</ele>
        <time>2012-05-26T14:41:57Z</time>
      </trkpt>
      <trkpt lat="43.21118" lon="5.49411">
        <ele>117.9</ele>
        <time>2012-05-26T14:42:02Z</time>
      </trkpt>
      <trkpt lat="43.21121" lon="5.49441">
        <ele>114.53</ele>
        <time>2012-05-26T14:42:18Z</time>
      </trkpt>
      <trkpt lat="43.21122" lon="5.49453">
        <ele>113.09</ele>
        <time>2012-05-26T14:42:27Z</time>
      </trkpt>
      <trkpt lat="43.21122" lon="5.49471">
        <ele>111.17</ele>
        <time>2012-05-26T14:42:41Z</time>
      </trkpt>
      <trkpt lat="43.21119" lon="5.49491">
        <ele>108.29</ele>
        <time>2012-05-26T14:42:57Z</time>
      </trkpt>
      <trkpt lat="43.21117" lon="5.49503">
        <ele>105.4</ele>
        <time>2012-05-26T14:43:11Z</time>
      </trkpt>
      <trkpt lat="43.21117" lon="5.49517">
        <ele>102.52</ele>
        <time>2012-05-26T14:43:28Z</time>
      </trkpt>
      <trkpt lat="43.21118" lon="5.49535">
        <ele>100.11</ele>
        <time>2012-05-26T14:43:41Z</time>
      </trkpt>
      <trkpt lat="43.21125" lon="5.49552">
        <ele>98.19</ele>
        <time>2012-05-26T14:43:57Z</time>
      </trkpt>
      <trkpt lat="43.21138" lon="5.49565">
        <ele>95.31</ele>
        <time>2012-05-26T14:44:13Z</time>
      </trkpt>
      <trkpt lat="43.21137" lon="5.49577">
        <ele>92.42</ele>
        <time>2012-05-26T14:44:27Z</time>
      </trkpt>
      <trkpt lat="43.21137" lon="5.49588">
        <ele>89.06</ele>
        <time>2012-05-26T14:44:43Z</time>
      </trkpt>
      <trkpt lat="43.21135" lon="5.49593">
        <ele>86.18</ele>
        <time>2012-05-26T14:45:00Z</time>
      </trkpt>
      <trkpt lat="43.21137" lon="5.49604">
        <ele>83.29</ele>
        <time>2012-05-26T14:45:16Z</time>
      </trkpt>
      <trkpt lat="43.21143" lon="5.49625">
        <ele>79.93</ele>
        <time>2012-05-26T14:45:32Z</time>
      </trkpt>
      <trkpt lat="43.21149" lon="5.49652">
        <ele>76.56</ele>
        <time>2012-05-26T14:45:47Z</time>
      </trkpt>
      <trkpt lat="43.21158" lon="5.49662">
        <ele>74.16</ele>
        <time>2012-05-26T14:46:04Z</time>
      </trkpt>
      <trkpt lat="43.21167" lon="5.49673">
        <ele>71.76</ele>
        <time>2012-05-26T14:46:22Z</time>
      </trkpt>
      <trkpt lat="43.21161" lon="5.49677">
        <ele>71.27</ele>
        <time>2012-05-26T14:46:30Z</time>
      </trkpt>
      <trkpt lat="43.21148" lon="5.49694">
        <ele>69.35</ele>
        <time>2012-05-26T14:46:41Z</time>
      </trkpt>
      <trkpt lat="43.21138" lon="5.49706">
        <ele>66.95</ele>
        <time>2012-05-26T14:46:53Z</time>
      </trkpt>
      <trkpt lat="43.21132" lon="5.49714">
        <ele>65.99</ele>
        <time>2012-05-26T14:46:59Z</time>
      </trkpt>
      <trkpt lat="43.21115" lon="5.49727">
        <ele>65.03</ele>
        <time>2012-05-26T14:47:14Z</time>
      </trkpt>
      <trkpt lat="43.21105" lon="5.49727">
        <ele>65.03</ele>
        <time>2012-05-26T14:47:46Z</time>
      </trkpt>
      <trkpt lat="43.21092" lon="5.49714">
        <ele>64.55</ele>
        <time>2012-05-26T14:47:59Z</time>
      </trkpt>
      <trkpt lat="43.21086" lon="5.49717">
        <ele>64.07</ele>
        <time>2012-05-26T14:48:19Z</time>
      </trkpt>
      <trkpt lat="43.21086" lon="5.49718">
        <ele>64.07</ele>
        <time>2012-05-26T14:48:43Z</time>
      </trkpt>
      <trkpt lat="43.21082" lon="5.49709">
        <ele>62.62</ele>
        <time>2012-05-26T14:48:55Z</time>
      </trkpt>
      <trkpt lat="43.21065" lon="5.49699">
        <ele>62.14</ele>
        <time>2012-05-26T14:49:07Z</time>
      </trkpt>
      <trkpt lat="43.21064" lon="5.49698">
        <ele>61.66</ele>
        <time>2012-05-26T14:49:08Z</time>
      </trkpt>
      <trkpt lat="43.21044" lon="5.49679">
        <ele>61.18</ele>
        <time>2012-05-26T14:49:23Z</time>
      </trkpt>
      <trkpt lat="43.21037" lon="5.49675">
        <ele>60.22</ele>
        <time>2012-05-26T14:49:34Z</time>
      </trkpt>
      <trkpt lat="43.21036" lon="5.49676">
        <ele>60.7</ele>
        <time>2012-05-26T14:49:59Z</time>
      </trkpt>
      <trkpt lat="43.21036" lon="5.49675">
        <ele>61.18</ele>
        <time>2012-05-26T14:50:22Z</time>
      </trkpt>
      <trkpt lat="43.21031" lon="5.49669">
        <ele>61.18</ele>
        <time>2012-05-26T14:50:33Z</time>
      </trkpt>
      <trkpt lat="43.21022" lon="5.49663">
        <ele>59.74</ele>
        <time>2012-05-26T14:50:41Z</time>
      </trkpt>
      <trkpt lat="43.21008" lon="5.49671">
        <ele>58.78</ele>
        <time>2012-05-26T14:50:51Z</time>
      </trkpt>
      <trkpt lat="43.21004" lon="5.49674">
        <ele>58.3</ele>
        <time>2012-05-26T14:50:56Z</time>
      </trkpt>
      <trkpt lat="43.20988" lon="5.49683">
        <ele>57.34</ele>
        <time>2012-05-26T14:51:08Z</time>
      </trkpt>
      <trkpt lat="43.20979" lon="5.49687">
        <ele>56.37</ele>
        <time>2012-05-26T14:51:14Z</time>
      </trkpt>
      <trkpt lat="43.20967" lon="5.49686">
        <ele>55.89</ele>
        <time>2012-05-26T14:51:22Z</time>
      </trkpt>
      <trkpt lat="43.20959" lon="5.49686">
        <ele>54.93</ele>
        <time>2012-05-26T14:51:27Z</time>
      </trkpt>
      <trkpt lat="43.20943" lon="5.49686">
        <ele>54.45</ele>
        <time>2012-05-26T14:51:37Z</time>
      </trkpt>
      <trkpt lat="43.20938" lon="5.49686">
        <ele>53.97</ele>
        <time>2012-05-26T14:51:41Z</time>
      </trkpt>
      <trkpt lat="43.20937" lon="5.49686">
        <ele>53.97</ele>
        <time>2012-05-26T14:51:42Z</time>
      </trkpt>
      <trkpt lat="43.20933" lon="5.49685">
        <ele>53.49</ele>
        <time>2012-05-26T14:51:44Z</time>
      </trkpt>
      <trkpt lat="43.20927" lon="5.49689">
        <ele>53.01</ele>
        <time>2012-05-26T14:51:48Z</time>
      </trkpt>
      <trkpt lat="43.20924" lon="5.49691">
        <ele>53.01</ele>
        <time>2012-05-26T14:51:50Z</time>
      </trkpt>
      <trkpt lat="43.20921" lon="5.49694">
        <ele>52.53</ele>
        <time>2012-05-26T14:51:52Z</time>
      </trkpt>
      <trkpt lat="43.20917" lon="5.49696">
        <ele>51.57</ele>
        <time>2012-05-26T14:51:55Z</time>
      </trkpt>
      <trkpt lat="43.20906" lon="5.49697">
        <ele>50.61</ele>
        <time>2012-05-26T14:52:02Z</time>
      </trkpt>
      <trkpt lat="43.20893" lon="5.49704">
        <ele>49.65</ele>
        <time>2012-05-26T14:52:12Z</time>
      </trkpt>
      <trkpt lat="43.2089" lon="5.49705">
        <ele>48.68</ele>
        <time>2012-05-26T14:52:15Z</time>
      </trkpt>
      <trkpt lat="43.20867" lon="5.49705">
        <ele>47.24</ele>
        <time>2012-05-26T14:52:29Z</time>
      </trkpt>
      <trkpt lat="43.20865" lon="5.49707">
        <ele>47.24</ele>
        <time>2012-05-26T14:52:31Z</time>
      </trkpt>
      <trkpt lat="43.20863" lon="5.49708">
        <ele>47.24</ele>
        <time>2012-05-26T14:52:33Z</time>
      </trkpt>
      <trkpt lat="43.20861" lon="5.49709">
        <ele>46.76</ele>
        <time>2012-05-26T14:52:34Z</time>
      </trkpt>
      <trkpt lat="43.20857" lon="5.49708">
        <ele>45.8</ele>
        <time>2012-05-26T14:52:37Z</time>
      </trkpt>
      <trkpt lat="43.20835" lon="5.49722">
        <ele>43.88</ele>
        <time>2012-05-26T14:52:52Z</time>
      </trkpt>
      <trkpt lat="43.20827" lon="5.49727">
        <ele>43.88</ele>
        <time>2012-05-26T14:52:57Z</time>
      </trkpt>
      <trkpt lat="43.20823" lon="5.49728">
        <ele>43.4</ele>
        <time>2012-05-26T14:53:00Z</time>
      </trkpt>
      <trkpt lat="43.20807" lon="5.49739">
        <ele>41.95</ele>
        <time>2012-05-26T14:53:11Z</time>
      </trkpt>
      <trkpt lat="43.20801" lon="5.4975">
        <ele>41.47</ele>
        <time>2012-05-26T14:53:21Z</time>
      </trkpt>
      <trkpt lat="43.208" lon="5.49752">
        <ele>41.47</ele>
        <time>2012-05-26T14:53:22Z</time>
      </trkpt>
      <trkpt lat="43.20793" lon="5.49758">
        <ele>40.99</ele>
        <time>2012-05-26T14:53:28Z</time>
      </trkpt>
      <trkpt lat="43.2079" lon="5.49764">
        <ele>40.99</ele>
        <time>2012-05-26T14:53:30Z</time>
      </trkpt>
      <trkpt lat="43.20772" lon="5.49784">
        <ele>40.99</ele>
        <time>2012-05-26T14:53:40Z</time>
      </trkpt>
      <trkpt lat="43.20769" lon="5.49791">
        <ele>40.99</ele>
        <time>2012-05-26T14:53:42Z</time>
      </trkpt>
      <trkpt lat="43.20752" lon="5.49805">
        <ele>40.03</ele>
        <time>2012-05-26T14:53:57Z</time>
      </trkpt>
      <trkpt lat="43.20746" lon="5.49808">
        <ele>38.59</ele>
        <time>2012-05-26T14:54:03Z</time>
      </trkpt>
      <trkpt lat="43.20723" lon="5.49828">
        <ele>36.19</ele>
        <time>2012-05-26T14:54:22Z</time>
      </trkpt>
      <trkpt lat="43.2072" lon="5.4983">
        <ele>36.19</ele>
        <time>2012-05-26T14:54:24Z</time>
      </trkpt>
      <trkpt lat="43.20695" lon="5.49838">
        <ele>33.78</ele>
        <time>2012-05-26T14:54:39Z</time>
      </trkpt>
      <trkpt lat="43.20688" lon="5.4985">
        <ele>32.82</ele>
        <time>2012-05-26T14:54:46Z</time>
      </trkpt>
      <trkpt lat="43.20683" lon="5.49866">
        <ele>31.86</ele>
        <time>2012-05-26T14:54:54Z</time>
      </trkpt>
      <trkpt lat="43.20678" lon="5.49874">
        <ele>30.9</ele>
        <time>2012-05-26T14:54:59Z</time>
      </trkpt>
      <trkpt lat="43.20663" lon="5.4989">
        <ele>30.42</ele>
        <time>2012-05-26T14:55:12Z</time>
      </trkpt>
      <trkpt lat="43.20649" lon="5.49899">
        <ele>28.5</ele>
        <time>2012-05-26T14:55:25Z</time>
      </trkpt>
      <trkpt lat="43.20646" lon="5.49902">
        <ele>28.02</ele>
        <time>2012-05-26T14:55:28Z</time>
      </trkpt>
      <trkpt lat="43.20629" lon="5.49909">
        <ele>27.05</ele>
        <time>2012-05-26T14:55:42Z</time>
      </trkpt>
      <trkpt lat="43.20612" lon="5.49909">
        <ele>26.57</ele>
        <time>2012-05-26T14:55:58Z</time>
      </trkpt>
      <trkpt lat="43.20612" lon="5.49909">
        <ele>26.57</ele>
        <time>2012-05-26T14:56:18Z</time>
      </trkpt>
      <trkpt lat="43.20614" lon="5.49915">
        <ele>28.02</ele>
        <time>2012-05-26T14:56:28Z</time>
      </trkpt>
      <trkpt lat="43.20613" lon="5.49917">
        <ele>30.9</ele>
        <time>2012-05-26T14:56:43Z</time>
      </trkpt>
      <trkpt lat="43.20613" lon="5.49919">
        <ele>32.82</ele>
        <time>2012-05-26T14:56:53Z</time>
      </trkpt>
      <trkpt lat="43.20614" lon="5.49928">
        <ele>35.23</ele>
        <time>2012-05-26T14:57:06Z</time>
      </trkpt>
      <trkpt lat="43.20616" lon="5.49933">
        <ele>37.63</ele>
        <time>2012-05-26T14:57:19Z</time>
      </trkpt>
      <trkpt lat="43.20616" lon="5.49937">
        <ele>39.07</ele>
        <time>2012-05-26T14:57:32Z</time>
      </trkpt>
      <trkpt lat="43.20618" lon="5.49947">
        <ele>41.47</ele>
        <time>2012-05-26T14:57:45Z</time>
      </trkpt>
      <trkpt lat="43.20618" lon="5.49947">
        <ele>44.36</ele>
        <time>2012-05-26T14:58:00Z</time>
      </trkpt>
      <trkpt lat="43.20616" lon="5.49954">
        <ele>46.28</ele>
        <time>2012-05-26T14:58:12Z</time>
      </trkpt>
      <trkpt lat="43.20616" lon="5.49954">
        <ele>49.16</ele>
        <time>2012-05-26T14:58:27Z</time>
      </trkpt>
      <trkpt lat="43.20616" lon="5.49954">
        <ele>52.53</ele>
        <time>2012-05-26T14:58:44Z</time>
      </trkpt>
      <trkpt lat="43.20616" lon="5.49955">
        <ele>55.41</ele>
        <time>2012-05-26T14:58:58Z</time>
      </trkpt>
      <trkpt lat="43.20621" lon="5.49962">
        <ele>57.34</ele>
        <time>2012-05-26T14:59:11Z</time>
      </trkpt>
      <trkpt lat="43.20624" lon="5.49971">
        <ele>59.26</ele>
        <time>2012-05-26T14:59:24Z</time>
      </trkpt>
      <trkpt lat="43.20624" lon="5.49971">
        <ele>61.66</ele>
        <time>2012-05-26T14:59:38Z</time>
      </trkpt>
      <trkpt lat="43.20627" lon="5.4998">
        <ele>62.62</ele>
        <time>2012-05-26T14:59:42Z</time>
      </trkpt>
      <trkpt lat="43.20636" lon="5.49995">
        <ele>65.51</ele>
        <time>2012-05-26T14:59:57Z</time>
      </trkpt>
      <trkpt lat="43.2064" lon="5.50001">
        <ele>67.91</ele>
        <time>2012-05-26T15:00:11Z</time>
      </trkpt>
      <trkpt lat="43.2064" lon="5.50001">
        <ele>70.31</ele>
        <time>2012-05-26T15:00:25Z</time>
      </trkpt>
      <trkpt lat="43.2064" lon="5.50001">
        <ele>72.24</ele>
        <time>2012-05-26T15:00:41Z</time>
      </trkpt>
      <trkpt lat="43.20645" lon="5.50003">
        <ele>74.64</ele>
        <time>2012-05-26T15:00:55Z</time>
      </trkpt>
      <trkpt lat="43.20645" lon="5.50003">
        <ele>77.52</ele>
        <time>2012-05-26T15:01:07Z</time>
      </trkpt>
      <trkpt lat="43.2065" lon="5.50003">
        <ele>79.45</ele>
        <time>2012-05-26T15:01:24Z</time>
      </trkpt>
      <trkpt lat="43.2065" lon="5.50003">
        <ele>82.33</ele>
        <time>2012-05-26T15:01:40Z</time>
      </trkpt>
      <trkpt lat="43.20652" lon="5.50004">
        <ele>83.29</ele>
        <time>2012-05-26T15:02:14Z</time>
      </trkpt>
      <trkpt lat="43.20668" lon="5.50012">
        <ele>86.18</ele>
        <time>2012-05-26T15:02:25Z</time>
      </trkpt>
      <trkpt lat="43.20677" lon="5.50024">
        <ele>87.62</ele>
        <time>2012-05-26T15:02:33Z</time>
      </trkpt>
      <trkpt lat="43.20691" lon="5.50046">
        <ele>90.5</ele>
        <time>2012-05-26T15:02:44Z</time>
      </trkpt>
      <trkpt lat="43.20697" lon="5.50058">
        <ele>92.9</ele>
        <time>2012-05-26T15:02:54Z</time>
      </trkpt>
      <trkpt lat="43.20692" lon="5.50088">
        <ele>94.83</ele>
        <time>2012-05-26T15:03:08Z</time>
      </trkpt>
      <trkpt lat="43.20683" lon="5.50098">
        <ele>98.19</ele>
        <time>2012-05-26T15:03:20Z</time>
      </trkpt>
      <trkpt lat="43.20678" lon="5.50103">
        <ele>100.11</ele>
        <time>2012-05-26T15:03:33Z</time>
      </trkpt>
      <trkpt lat="43.2067" lon="5.50111">
        <ele>103</ele>
        <time>2012-05-26T15:03:47Z</time>
      </trkpt>
      <trkpt lat="43.20667" lon="5.50116">
        <ele>105.4</ele>
        <time>2012-05-26T15:04:00Z</time>
      </trkpt>
      <trkpt lat="43.20668" lon="5.50123">
        <ele>108.29</ele>
        <time>2012-05-26T15:04:13Z</time>
      </trkpt>
      <trkpt lat="43.20669" lon="5.50127">
        <ele>111.17</ele>
        <time>2012-05-26T15:04:26Z</time>
      </trkpt>
      <trkpt lat="43.20674" lon="5.50132">
        <ele>113.09</ele>
        <time>2012-05-26T15:04:39Z</time>
      </trkpt>
      <trkpt lat="43.20673" lon="5.50137">
        <ele>115.98</ele>
        <time>2012-05-26T15:04:52Z</time>
      </trkpt>
      <trkpt lat="43.20669" lon="5.5014">
        <ele>117.9</ele>
        <time>2012-05-26T15:05:02Z</time>
      </trkpt>
      <trkpt lat="43.20669" lon="5.50147">
        <ele>120.78</ele>
        <time>2012-05-26T15:05:14Z</time>
      </trkpt>
      <trkpt lat="43.20668" lon="5.50149">
        <ele>122.71</ele>
        <time>2012-05-26T15:05:25Z</time>
      </trkpt>
      <trkpt lat="43.2066" lon="5.50154">
        <ele>125.59</ele>
        <time>2012-05-26T15:05:36Z</time>
      </trkpt>
      <trkpt lat="43.20657" lon="5.50154">
        <ele>125.59</ele>
        <time>2012-05-26T15:05:40Z</time>
      </trkpt>
      <trkpt lat="43.20651" lon="5.50157">
        <ele>127.51</ele>
        <time>2012-05-26T15:05:53Z</time>
      </trkpt>
      <trkpt lat="43.20645" lon="5.50167">
        <ele>129.43</ele>
        <time>2012-05-26T15:06:06Z</time>
      </trkpt>
      <trkpt lat="43.20643" lon="5.50183">
        <ele>131.84</ele>
        <time>2012-05-26T15:06:22Z</time>
      </trkpt>
      <trkpt lat="43.20636" lon="5.50199">
        <ele>132.32</ele>
        <time>2012-05-26T15:06:38Z</time>
      </trkpt>
      <trkpt lat="43.20636" lon="5.50201">
        <ele>132.32</ele>
        <time>2012-05-26T15:07:01Z</time>
      </trkpt>
      <trkpt lat="43.20637" lon="5.50202">
        <ele>132.32</ele>
        <time>2012-05-26T15:07:46Z</time>
      </trkpt>
      <trkpt lat="43.20637" lon="5.50201">
        <ele>132.32</ele>
        <time>2012-05-26T15:08:09Z</time>
      </trkpt>
      <trkpt lat="43.20637" lon="5.50201">
        <ele>132.32</ele>
        <time>2012-05-26T15:08:33Z</time>
      </trkpt>
      <trkpt lat="43.20637" lon="5.502">
        <ele>132.32</ele>
        <time>2012-05-26T15:10:28Z</time>
      </trkpt>
      <trkpt lat="43.20637" lon="5.502">
        <ele>132.32</ele>
        <time>2012-05-26T15:12:34Z</time>
      </trkpt>
      <trkpt lat="43.20637" lon="5.50199">
        <ele>132.8</ele>
        <time>2012-05-26T15:14:54Z</time>
      </trkpt>
      <trkpt lat="43.20633" lon="5.50196">
        <ele>132.32</ele>
        <time>2012-05-26T15:15:30Z</time>
      </trkpt>
      <trkpt lat="43.20629" lon="5.502">
        <ele>132.32</ele>
        <time>2012-05-26T15:15:37Z</time>
      </trkpt>
      <trkpt lat="43.20628" lon="5.50202">
        <ele>132.32</ele>
        <time>2012-05-26T15:15:39Z</time>
      </trkpt>
      <trkpt lat="43.20626" lon="5.50216">
        <ele>131.36</ele>
        <time>2012-05-26T15:15:48Z</time>
      </trkpt>
      <trkpt lat="43.20622" lon="5.50233">
        <ele>129.43</ele>
        <time>2012-05-26T15:16:03Z</time>
      </trkpt>
      <trkpt lat="43.20622" lon="5.50245">
        <ele>127.99</ele>
        <time>2012-05-26T15:16:12Z</time>
      </trkpt>
      <trkpt lat="43.20615" lon="5.50258">
        <ele>126.07</ele>
        <time>2012-05-26T15:16:23Z</time>
      </trkpt>
      <trkpt lat="43.20613" lon="5.5026">
        <ele>124.63</ele>
        <time>2012-05-26T15:16:26Z</time>
      </trkpt>
      <trkpt lat="43.20605" lon="5.50266">
        <ele>123.19</ele>
        <time>2012-05-26T15:16:33Z</time>
      </trkpt>
      <trkpt lat="43.20603" lon="5.50273">
        <ele>122.71</ele>
        <time>2012-05-26T15:16:38Z</time>
      </trkpt>
      <trkpt lat="43.20598" lon="5.5029">
        <ele>119.82</ele>
        <time>2012-05-26T15:16:51Z</time>
      </trkpt>
      <trkpt lat="43.20597" lon="5.50301">
        <ele>116.94</ele>
        <time>2012-05-26T15:17:01Z</time>
      </trkpt>
      <trkpt lat="43.20591" lon="5.50316">
        <ele>114.05</ele>
        <time>2012-05-26T15:17:15Z</time>
      </trkpt>
      <trkpt lat="43.20587" lon="5.50324">
        <ele>113.09</ele>
        <time>2012-05-26T15:17:30Z</time>
      </trkpt>
      <trkpt lat="43.20588" lon="5.50338">
        <ele>110.21</ele>
        <time>2012-05-26T15:17:43Z</time>
      </trkpt>
      <trkpt lat="43.20586" lon="5.50347">
        <ele>108.77</ele>
        <time>2012-05-26T15:17:52Z</time>
      </trkpt>
      <trkpt lat="43.20584" lon="5.50361">
        <ele>105.88</ele>
        <time>2012-05-26T15:18:03Z</time>
      </trkpt>
      <trkpt lat="43.20585" lon="5.50363">
        <ele>105.88</ele>
        <time>2012-05-26T15:18:05Z</time>
      </trkpt>
      <trkpt lat="43.20586" lon="5.50371">
        <ele>103.96</ele>
        <time>2012-05-26T15:18:11Z</time>
      </trkpt>
      <trkpt lat="43.20585" lon="5.50376">
        <ele>102.52</ele>
        <time>2012-05-26T15:18:15Z</time>
      </trkpt>
      <trkpt lat="43.20584" lon="5.50379">
        <ele>102.04</ele>
        <time>2012-05-26T15:18:17Z</time>
      </trkpt>
      <trkpt lat="43.20582" lon="5.50384">
        <ele>101.08</ele>
        <time>2012-05-26T15:18:22Z</time>
      </trkpt>
      <trkpt lat="43.20582" lon="5.50387">
        <ele>100.6</ele>
        <time>2012-05-26T15:18:24Z</time>
      </trkpt>
      <trkpt lat="43.20579" lon="5.50396">
        <ele>99.15</ele>
        <time>2012-05-26T15:18:31Z</time>
      </trkpt>
      <trkpt lat="43.20576" lon="5.50406">
        <ele>96.75</ele>
        <time>2012-05-26T15:18:39Z</time>
      </trkpt>
      <trkpt lat="43.2057" lon="5.50423">
        <ele>93.87</ele>
        <time>2012-05-26T15:18:53Z</time>
      </trkpt>
      <trkpt lat="43.20566" lon="5.5043">
        <ele>92.42</ele>
        <time>2012-05-26T15:18:58Z</time>
      </trkpt>
      <trkpt lat="43.20565" lon="5.50435">
        <ele>91.46</ele>
        <time>2012-05-26T15:19:02Z</time>
      </trkpt>
      <trkpt lat="43.20557" lon="5.50448">
        <ele>89.54</ele>
        <time>2012-05-26T15:19:15Z</time>
      </trkpt>
      <trkpt lat="43.20555" lon="5.50453">
        <ele>88.58</ele>
        <time>2012-05-26T15:19:19Z</time>
      </trkpt>
      <trkpt lat="43.20544" lon="5.5047">
        <ele>85.69</ele>
        <time>2012-05-26T15:19:32Z</time>
      </trkpt>
      <trkpt lat="43.20538" lon="5.5048">
        <ele>83.77</ele>
        <time>2012-05-26T15:19:41Z</time>
      </trkpt>
      <trkpt lat="43.20527" lon="5.50495">
        <ele>81.37</ele>
        <time>2012-05-26T15:19:55Z</time>
      </trkpt>
      <trkpt lat="43.20526" lon="5.50496">
        <ele>81.85</ele>
        <time>2012-05-26T15:19:56Z</time>
      </trkpt>
      <trkpt lat="43.20516" lon="5.50508">
        <ele>79.93</ele>
        <time>2012-05-26T15:20:07Z</time>
      </trkpt>
      <trkpt lat="43.20515" lon="5.50517">
        <ele>77.52</ele>
        <time>2012-05-26T15:20:18Z</time>
      </trkpt>
      <trkpt lat="43.20513" lon="5.50524">
        <ele>75.12</ele>
        <time>2012-05-26T15:20:28Z</time>
      </trkpt>
      <trkpt lat="43.20512" lon="5.50535">
        <ele>73.68</ele>
        <time>2012-05-26T15:20:39Z</time>
      </trkpt>
      <trkpt lat="43.2051" lon="5.50545">
        <ele>70.31</ele>
        <time>2012-05-26T15:20:48Z</time>
      </trkpt>
      <trkpt lat="43.20507" lon="5.50553">
        <ele>68.39</ele>
        <time>2012-05-26T15:20:57Z</time>
      </trkpt>
      <trkpt lat="43.20505" lon="5.50558">
        <ele>66.95</ele>
        <time>2012-05-26T15:21:01Z</time>
      </trkpt>
      <trkpt lat="43.20498" lon="5.5057">
        <ele>64.55</ele>
        <time>2012-05-26T15:21:13Z</time>
      </trkpt>
      <trkpt lat="43.20492" lon="5.50583">
        <ele>62.62</ele>
        <time>2012-05-26T15:21:26Z</time>
      </trkpt>
      <trkpt lat="43.20488" lon="5.5059">
        <ele>61.66</ele>
        <time>2012-05-26T15:21:33Z</time>
      </trkpt>
      <trkpt lat="43.20478" lon="5.50602">
        <ele>58.3</ele>
        <time>2012-05-26T15:21:48Z</time>
      </trkpt>
      <trkpt lat="43.20475" lon="5.50616">
        <ele>55.41</ele>
        <time>2012-05-26T15:22:02Z</time>
      </trkpt>
      <trkpt lat="43.2047" lon="5.50629">
        <ele>53.49</ele>
        <time>2012-05-26T15:22:13Z</time>
      </trkpt>
      <trkpt lat="43.20465" lon="5.50646">
        <ele>50.61</ele>
        <time>2012-05-26T15:22:28Z</time>
      </trkpt>
      <trkpt lat="43.20462" lon="5.50662">
        <ele>48.68</ele>
        <time>2012-05-26T15:22:43Z</time>
      </trkpt>
      <trkpt lat="43.20459" lon="5.50667">
        <ele>47.24</ele>
        <time>2012-05-26T15:22:53Z</time>
      </trkpt>
      <trkpt lat="43.20453" lon="5.50683">
        <ele>44.84</ele>
        <time>2012-05-26T15:23:05Z</time>
      </trkpt>
      <trkpt lat="43.20448" lon="5.50696">
        <ele>41.95</ele>
        <time>2012-05-26T15:23:17Z</time>
      </trkpt>
      <trkpt lat="43.20448" lon="5.50709">
        <ele>38.59</ele>
        <time>2012-05-26T15:23:29Z</time>
      </trkpt>
      <trkpt lat="43.20447" lon="5.50715">
        <ele>37.63</ele>
        <time>2012-05-26T15:23:33Z</time>
      </trkpt>
      <trkpt lat="43.20444" lon="5.50726">
        <ele>35.23</ele>
        <time>2012-05-26T15:23:44Z</time>
      </trkpt>
      <trkpt lat="43.20444" lon="5.50728">
        <ele>35.23</ele>
        <time>2012-05-26T15:23:45Z</time>
      </trkpt>
      <trkpt lat="43.20442" lon="5.50737">
        <ele>33.3</ele>
        <time>2012-05-26T15:23:51Z</time>
      </trkpt>
      <trkpt lat="43.2044" lon="5.50754">
        <ele>29.94</ele>
        <time>2012-05-26T15:24:05Z</time>
      </trkpt>
      <trkpt lat="43.20442" lon="5.50773">
        <ele>27.05</ele>
        <time>2012-05-26T15:24:17Z</time>
      </trkpt>
      <trkpt lat="43.20443" lon="5.50793">
        <ele>24.17</ele>
        <time>2012-05-26T15:24:31Z</time>
      </trkpt>
      <trkpt lat="43.20443" lon="5.5081">
        <ele>22.73</ele>
        <time>2012-05-26T15:24:41Z</time>
      </trkpt>
      <trkpt lat="43.20443" lon="5.50811">
        <ele>22.73</ele>
        <time>2012-05-26T15:24:42Z</time>
      </trkpt>
      <trkpt lat="43.20439" lon="5.50821">
        <ele>22.25</ele>
        <time>2012-05-26T15:24:54Z</time>
      </trkpt>
      <trkpt lat="43.2043" lon="5.50834">
        <ele>21.29</ele>
        <time>2012-05-26T15:25:06Z</time>
      </trkpt>
      <trkpt lat="43.20432" lon="5.5085">
        <ele>17.92</ele>
        <time>2012-05-26T15:25:20Z</time>
      </trkpt>
      <trkpt lat="43.20428" lon="5.50857">
        <ele>16.48</ele>
        <time>2012-05-26T15:25:26Z</time>
      </trkpt>
      <trkpt lat="43.20424" lon="5.5086">
        <ele>15.52</ele>
        <time>2012-05-26T15:25:29Z</time>
      </trkpt>
      <trkpt lat="43.20415" lon="5.50875">
        <ele>13.6</ele>
        <time>2012-05-26T15:25:41Z</time>
      </trkpt>
      <trkpt lat="43.20414" lon="5.5088">
        <ele>12.63</ele>
        <time>2012-05-26T15:25:44Z</time>
      </trkpt>
      <trkpt lat="43.2041" lon="5.5089">
        <ele>10.71</ele>
        <time>2012-05-26T15:25:52Z</time>
      </trkpt>
      <trkpt lat="43.2041" lon="5.50915">
        <ele>8.31</ele>
        <time>2012-05-26T15:26:06Z</time>
      </trkpt>
      <trkpt lat="43.20413" lon="5.5093">
        <ele>7.35</ele>
        <time>2012-05-26T15:26:14Z</time>
      </trkpt>
      <trkpt lat="43.20411" lon="5.5095">
        <ele>5.91</ele>
        <time>2012-05-26T15:26:28Z</time>
      </trkpt>
      <trkpt lat="43.20412" lon="5.50965">
        <ele>4.46</ele>
        <time>2012-05-26T15:26:37Z</time>
      </trkpt>
      <trkpt lat="43.20415" lon="5.50977">
        <ele>3.5</ele>
        <time>2012-05-26T15:26:43Z</time>
      </trkpt>
      <trkpt lat="43.20417" lon="5.50986">
        <ele>3.02</ele>
        <time>2012-05-26T15:26:48Z</time>
      </trkpt>
      <trkpt lat="43.20416" lon="5.50997">
        <ele>1.58</ele>
        <time>2012-05-26T15:27:02Z</time>
      </trkpt>
      <trkpt lat="43.20416" lon="5.51008">
        <ele>0.62</ele>
        <time>2012-05-26T15:27:07Z</time>
      </trkpt>
      <trkpt lat="43.20414" lon="5.51018">
        <ele>0.62</ele>
        <time>2012-05-26T15:27:13Z</time>
      </trkpt>
      <trkpt lat="43.20412" lon="5.51038">
        <ele>0.62</ele>
        <time>2012-05-26T15:27:28Z</time>
      </trkpt>
      <trkpt lat="43.20412" lon="5.51038">
        <ele>0.62</ele>
        <time>2012-05-26T15:28:07Z</time>
      </trkpt>
      <trkpt lat="43.20412" lon="5.51042">
        <ele>1.1</ele>
        <time>2012-05-26T15:28:22Z</time>
      </trkpt>
      <trkpt lat="43.20411" lon="5.51044">
        <ele>0.62</ele>
        <time>2012-05-26T15:28:55Z</time>
      </trkpt>
      <trkpt lat="43.2041" lon="5.51044">
        <ele>1.1</ele>
        <time>2012-05-26T15:29:53Z</time>
      </trkpt>
      <trkpt lat="43.2041" lon="5.51045">
        <ele>-0.34</ele>
        <time>2012-05-26T15:30:17Z</time>
      </trkpt>
      <trkpt lat="43.2041" lon="5.51045">
        <ele>-0.34</ele>
        <time>2012-05-26T15:30:41Z</time>
      </trkpt>
      <trkpt lat="43.20411" lon="5.51047">
        <ele>-0.34</ele>
        <time>2012-05-26T15:31:24Z</time>
      </trkpt>
      <trkpt lat="43.20411" lon="5.51047">
        <ele>0.14</ele>
        <time>2012-05-26T15:31:59Z</time>
      </trkpt>
      <trkpt lat="43.20411" lon="5.51048">
        <ele>0.14</ele>
        <time>2012-05-26T15:32:38Z</time>
      </trkpt>
      <trkpt lat="43.20411" lon="5.51048">
        <ele>0.62</ele>
        <time>2012-05-26T15:33:13Z</time>
      </trkpt>
      <trkpt lat="43.20411" lon="5.51049">
        <ele>0.62</ele>
        <time>2012-05-26T15:33:37Z</time>
      </trkpt>
      <trkpt lat="43.20411" lon="5.51049">
        <ele>0.14</ele>
        <time>2012-05-26T15:33:57Z</time>
      </trkpt>
      <trkpt lat="43.20411" lon="5.51049">
        <ele>0.62</ele>
        <time>2012-05-26T15:34:37Z</time>
      </trkpt>
      <trkpt lat="43.2041" lon="5.5105">
        <ele>1.1</ele>
        <time>2012-05-26T15:35:26Z</time>
      </trkpt>
      <trkpt lat="43.20411" lon="5.51051">
        <ele>1.1</ele>
        <time>2012-05-26T15:36:09Z</time>
      </trkpt>
      <trkpt lat="43.20411" lon="5.51051">
        <ele>1.1</ele>
        <time>2012-05-26T15:36:50Z</time>
      </trkpt>
      <trkpt lat="43.20411" lon="5.51051">
        <ele>0.62</ele>
        <time>2012-05-26T15:37:23Z</time>
      </trkpt>
      <trkpt lat="43.20412" lon="5.51048">
        <ele>1.1</ele>
        <time>2012-05-26T15:37:49Z</time>
      </trkpt>
      <trkpt lat="43.20411" lon="5.5105">
        <ele>0.62</ele>
        <time>2012-05-26T15:38:10Z</time>
      </trkpt>
      <trkpt lat="43.20411" lon="5.5105">
        <ele>0.14</ele>
        <time>2012-05-26T15:38:50Z</time>
      </trkpt>
      <trkpt lat="43.20411" lon="5.51051">
        <ele>0.62</ele>
        <time>2012-05-26T15:39:29Z</time>
      </trkpt>
      <trkpt lat="43.2041" lon="5.51055">
        <ele>1.58</ele>
        <time>2012-05-26T15:39:56Z</time>
      </trkpt>
      <trkpt lat="43.2041" lon="5.51058">
        <ele>2.54</ele>
        <time>2012-05-26T15:40:04Z</time>
      </trkpt>
      <trkpt lat="43.20409" lon="5.51062">
        <ele>1.1</ele>
        <time>2012-05-26T15:40:06Z</time>
      </trkpt>
      <trkpt lat="43.20412" lon="5.5108">
        <ele>1.58</ele>
        <time>2012-05-26T15:40:19Z</time>
      </trkpt>
      <trkpt lat="43.20415" lon="5.51087">
        <ele>3.5</ele>
        <time>2012-05-26T15:40:26Z</time>
      </trkpt>
      <trkpt lat="43.20416" lon="5.51089">
        <ele>3.5</ele>
        <time>2012-05-26T15:40:28Z</time>
      </trkpt>
      <trkpt lat="43.20425" lon="5.51095">
        <ele>4.94</ele>
        <time>2012-05-26T15:40:40Z</time>
      </trkpt>
      <trkpt lat="43.20423" lon="5.51101">
        <ele>6.39</ele>
        <time>2012-05-26T15:40:53Z</time>
      </trkpt>
      <trkpt lat="43.20427" lon="5.51112">
        <ele>9.27</ele>
        <time>2012-05-26T15:41:07Z</time>
      </trkpt>
      <trkpt lat="43.20429" lon="5.51119">
        <ele>11.67</ele>
        <time>2012-05-26T15:41:20Z</time>
      </trkpt>
      <trkpt lat="43.20431" lon="5.51124">
        <ele>15.04</ele>
        <time>2012-05-26T15:41:33Z</time>
      </trkpt>
      <trkpt lat="43.20436" lon="5.5113">
        <ele>16.96</ele>
        <time>2012-05-26T15:41:43Z</time>
      </trkpt>
      <trkpt lat="43.20438" lon="5.51137">
        <ele>19.36</ele>
        <time>2012-05-26T15:41:56Z</time>
      </trkpt>
      <trkpt lat="43.20445" lon="5.51144">
        <ele>21.29</ele>
        <time>2012-05-26T15:42:10Z</time>
      </trkpt>
      <trkpt lat="43.20446" lon="5.51151">
        <ele>23.69</ele>
        <time>2012-05-26T15:42:22Z</time>
      </trkpt>
      <trkpt lat="43.20442" lon="5.51159">
        <ele>26.09</ele>
        <time>2012-05-26T15:42:35Z</time>
      </trkpt>
      <trkpt lat="43.20449" lon="5.51161">
        <ele>28.5</ele>
        <time>2012-05-26T15:42:47Z</time>
      </trkpt>
      <trkpt lat="43.20458" lon="5.51157">
        <ele>29.46</ele>
        <time>2012-05-26T15:42:56Z</time>
      </trkpt>
      <trkpt lat="43.2046" lon="5.51155">
        <ele>29.46</ele>
        <time>2012-05-26T15:42:58Z</time>
      </trkpt>
      <trkpt lat="43.2047" lon="5.51153">
        <ele>30.9</ele>
        <time>2012-05-26T15:43:08Z</time>
      </trkpt>
      <trkpt lat="43.2048" lon="5.51154">
        <ele>32.34</ele>
        <time>2012-05-26T15:43:22Z</time>
      </trkpt>
      <trkpt lat="43.20489" lon="5.51155">
        <ele>33.78</ele>
        <time>2012-05-26T15:43:31Z</time>
      </trkpt>
      <trkpt lat="43.20499" lon="5.51158">
        <ele>35.71</ele>
        <time>2012-05-26T15:43:45Z</time>
      </trkpt>
      <trkpt lat="43.20501" lon="5.51158">
        <ele>36.19</ele>
        <time>2012-05-26T15:43:48Z</time>
      </trkpt>
      <trkpt lat="43.20506" lon="5.51161">
        <ele>37.15</ele>
        <time>2012-05-26T15:43:57Z</time>
      </trkpt>
      <trkpt lat="43.20508" lon="5.51161">
        <ele>38.59</ele>
        <time>2012-05-26T15:44:02Z</time>
      </trkpt>
      <trkpt lat="43.20512" lon="5.51162">
        <ele>39.07</ele>
        <time>2012-05-26T15:44:07Z</time>
      </trkpt>
      <trkpt lat="43.20518" lon="5.51164">
        <ele>40.51</ele>
        <time>2012-05-26T15:44:19Z</time>
      </trkpt>
      <trkpt lat="43.20524" lon="5.51164">
        <ele>41.95</ele>
        <time>2012-05-26T15:44:34Z</time>
      </trkpt>
      <trkpt lat="43.20527" lon="5.51165">
        <ele>42.92</ele>
        <time>2012-05-26T15:44:46Z</time>
      </trkpt>
      <trkpt lat="43.20529" lon="5.51167">
        <ele>43.88</ele>
        <time>2012-05-26T15:45:03Z</time>
      </trkpt>
      <trkpt lat="43.20531" lon="5.5117">
        <ele>44.36</ele>
        <time>2012-05-26T15:45:08Z</time>
      </trkpt>
      <trkpt lat="43.20535" lon="5.51175">
        <ele>44.84</ele>
        <time>2012-05-26T15:45:12Z</time>
      </trkpt>
      <trkpt lat="43.20541" lon="5.51178">
        <ele>45.32</ele>
        <time>2012-05-26T15:45:25Z</time>
      </trkpt>
      <trkpt lat="43.20543" lon="5.51181">
        <ele>45.32</ele>
        <time>2012-05-26T15:45:30Z</time>
      </trkpt>
      <trkpt lat="43.20552" lon="5.5119">
        <ele>46.76</ele>
        <time>2012-05-26T15:45:41Z</time>
      </trkpt>
      <trkpt lat="43.20559" lon="5.51194">
        <ele>47.24</ele>
        <time>2012-05-26T15:45:50Z</time>
      </trkpt>
      <trkpt lat="43.20569" lon="5.51204">
        <ele>48.2</ele>
        <time>2012-05-26T15:46:03Z</time>
      </trkpt>
      <trkpt lat="43.20572" lon="5.51208">
        <ele>48.2</ele>
        <time>2012-05-26T15:46:06Z</time>
      </trkpt>
      <trkpt lat="43.2058" lon="5.5122">
        <ele>48.2</ele>
        <time>2012-05-26T15:46:19Z</time>
      </trkpt>
      <trkpt lat="43.20581" lon="5.51221">
        <ele>47.72</ele>
        <time>2012-05-26T15:46:27Z</time>
      </trkpt>
      <trkpt lat="43.20588" lon="5.51235">
        <ele>48.2</ele>
        <time>2012-05-26T15:46:38Z</time>
      </trkpt>
      <trkpt lat="43.20589" lon="5.51238">
        <ele>48.2</ele>
        <time>2012-05-26T15:46:40Z</time>
      </trkpt>
      <trkpt lat="43.20595" lon="5.51256">
        <ele>46.76</ele>
        <time>2012-05-26T15:46:53Z</time>
      </trkpt>
      <trkpt lat="43.20597" lon="5.51265">
        <ele>45.8</ele>
        <time>2012-05-26T15:47:00Z</time>
      </trkpt>
      <trkpt lat="43.20602" lon="5.51281">
        <ele>44.36</ele>
        <time>2012-05-26T15:47:14Z</time>
      </trkpt>
      <trkpt lat="43.20603" lon="5.51296">
        <ele>42.44</ele>
        <time>2012-05-26T15:47:27Z</time>
      </trkpt>
      <trkpt lat="43.20603" lon="5.51298">
        <ele>42.44</ele>
        <time>2012-05-26T15:47:29Z</time>
      </trkpt>
      <trkpt lat="43.20601" lon="5.51309">
        <ele>42.44</ele>
        <time>2012-05-26T15:47:38Z</time>
      </trkpt>
      <trkpt lat="43.20595" lon="5.51319">
        <ele>40.99</ele>
        <time>2012-05-26T15:47:54Z</time>
      </trkpt>
      <trkpt lat="43.20593" lon="5.51325">
        <ele>40.99</ele>
        <time>2012-05-26T15:47:58Z</time>
      </trkpt>
      <trkpt lat="43.20587" lon="5.51339">
        <ele>42.44</ele>
        <time>2012-05-26T15:48:09Z</time>
      </trkpt>
      <trkpt lat="43.20582" lon="5.51355">
        <ele>41.95</ele>
        <time>2012-05-26T15:48:22Z</time>
      </trkpt>
      <trkpt lat="43.20583" lon="5.51363">
        <ele>40.51</ele>
        <time>2012-05-26T15:48:29Z</time>
      </trkpt>
      <trkpt lat="43.20586" lon="5.51373">
        <ele>39.55</ele>
        <time>2012-05-26T15:48:36Z</time>
      </trkpt>
      <trkpt lat="43.20588" lon="5.51377">
        <ele>39.55</ele>
        <time>2012-05-26T15:48:40Z</time>
      </trkpt>
      <trkpt lat="43.2059" lon="5.51388">
        <ele>38.11</ele>
        <time>2012-05-26T15:48:54Z</time>
      </trkpt>
      <trkpt lat="43.20594" lon="5.51398">
        <ele>38.59</ele>
        <time>2012-05-26T15:49:21Z</time>
      </trkpt>
      <trkpt lat="43.20602" lon="5.5141">
        <ele>38.11</ele>
        <time>2012-05-26T15:49:33Z</time>
      </trkpt>
      <trkpt lat="43.20602" lon="5.5141">
        <ele>37.63</ele>
        <time>2012-05-26T15:50:00Z</time>
      </trkpt>
      <trkpt lat="43.20602" lon="5.5141">
        <ele>37.63</ele>
        <time>2012-05-26T15:51:03Z</time>
      </trkpt>
      <trkpt lat="43.20611" lon="5.51419">
        <ele>37.15</ele>
        <time>2012-05-26T15:51:17Z</time>
      </trkpt>
      <trkpt lat="43.20611" lon="5.51419">
        <ele>36.67</ele>
        <time>2012-05-26T15:51:32Z</time>
      </trkpt>
      <trkpt lat="43.20609" lon="5.51419">
        <ele>37.15</ele>
        <time>2012-05-26T15:51:47Z</time>
      </trkpt>
      <trkpt lat="43.20614" lon="5.51424">
        <ele>36.67</ele>
        <time>2012-05-26T15:51:55Z</time>
      </trkpt>
      <trkpt lat="43.20624" lon="5.51434">
        <ele>34.26</ele>
        <time>2012-05-26T15:52:10Z</time>
      </trkpt>
      <trkpt lat="43.20633" lon="5.51445">
        <ele>31.86</ele>
        <time>2012-05-26T15:52:24Z</time>
      </trkpt>
      <trkpt lat="43.20638" lon="5.5145">
        <ele>29.94</ele>
        <time>2012-05-26T15:52:40Z</time>
      </trkpt>
      <trkpt lat="43.20638" lon="5.5145">
        <ele>29.46</ele>
        <time>2012-05-26T15:52:49Z</time>
      </trkpt>
      <trkpt lat="43.2064" lon="5.51451">
        <ele>28.98</ele>
        <time>2012-05-26T15:52:51Z</time>
      </trkpt>
      <trkpt lat="43.20648" lon="5.5146">
        <ele>26.57</ele>
        <time>2012-05-26T15:53:05Z</time>
      </trkpt>
      <trkpt lat="43.20659" lon="5.51466">
        <ele>24.17</ele>
        <time>2012-05-26T15:53:23Z</time>
      </trkpt>
      <trkpt lat="43.20673" lon="5.51471">
        <ele>21.29</ele>
        <time>2012-05-26T15:53:37Z</time>
      </trkpt>
      <trkpt lat="43.2069" lon="5.51473">
        <ele>18.88</ele>
        <time>2012-05-26T15:53:49Z</time>
      </trkpt>
      <trkpt lat="43.20697" lon="5.51473">
        <ele>17.44</ele>
        <time>2012-05-26T15:54:04Z</time>
      </trkpt>
      <trkpt lat="43.20697" lon="5.51473">
        <ele>17.44</ele>
        <time>2012-05-26T15:54:08Z</time>
      </trkpt>
      <trkpt lat="43.20711" lon="5.5148">
        <ele>16</ele>
        <time>2012-05-26T15:54:21Z</time>
      </trkpt>
      <trkpt lat="43.20712" lon="5.5148">
        <ele>15.52</ele>
        <time>2012-05-26T15:54:22Z</time>
      </trkpt>
      <trkpt lat="43.20718" lon="5.51484">
        <ele>14.56</ele>
        <time>2012-05-26T15:54:29Z</time>
      </trkpt>
      <trkpt lat="43.20734" lon="5.51496">
        <ele>12.63</ele>
        <time>2012-05-26T15:54:47Z</time>
      </trkpt>
      <trkpt lat="43.20736" lon="5.515">
        <ele>12.63</ele>
        <time>2012-05-26T15:54:51Z</time>
      </trkpt>
      <trkpt lat="43.20748" lon="5.51523">
        <ele>12.15</ele>
        <time>2012-05-26T15:55:05Z</time>
      </trkpt>
      <trkpt lat="43.2076" lon="5.51542">
        <ele>12.63</ele>
        <time>2012-05-26T15:55:20Z</time>
      </trkpt>
      <trkpt lat="43.20772" lon="5.51563">
        <ele>13.12</ele>
        <time>2012-05-26T15:55:34Z</time>
      </trkpt>
      <trkpt lat="43.20779" lon="5.51577">
        <ele>13.6</ele>
        <time>2012-05-26T15:55:47Z</time>
      </trkpt>
      <trkpt lat="43.20789" lon="5.51598">
        <ele>12.63</ele>
        <time>2012-05-26T15:56:04Z</time>
      </trkpt>
      <trkpt lat="43.20797" lon="5.51612">
        <ele>12.15</ele>
        <time>2012-05-26T15:56:19Z</time>
      </trkpt>
      <trkpt lat="43.20799" lon="5.51618">
        <ele>12.63</ele>
        <time>2012-05-26T15:56:32Z</time>
      </trkpt>
      <trkpt lat="43.20807" lon="5.51627">
        <ele>12.15</ele>
        <time>2012-05-26T15:56:48Z</time>
      </trkpt>
      <trkpt lat="43.20813" lon="5.51638">
        <ele>12.15</ele>
        <time>2012-05-26T15:57:19Z</time>
      </trkpt>
      <trkpt lat="43.20823" lon="5.51654">
        <ele>12.15</ele>
        <time>2012-05-26T15:57:35Z</time>
      </trkpt>
      <trkpt lat="43.20832" lon="5.51669">
        <ele>11.67</ele>
        <time>2012-05-26T15:57:48Z</time>
      </trkpt>
      <trkpt lat="43.20842" lon="5.51684">
        <ele>12.15</ele>
        <time>2012-05-26T15:58:02Z</time>
      </trkpt>
      <trkpt lat="43.20849" lon="5.51695">
        <ele>11.67</ele>
        <time>2012-05-26T15:58:15Z</time>
      </trkpt>
      <trkpt lat="43.20859" lon="5.51702">
        <ele>11.67</ele>
        <time>2012-05-26T15:58:25Z</time>
      </trkpt>
      <trkpt lat="43.20867" lon="5.51708">
        <ele>11.67</ele>
        <time>2012-05-26T15:58:34Z</time>
      </trkpt>
      <trkpt lat="43.20876" lon="5.51712">
        <ele>11.67</ele>
        <time>2012-05-26T15:58:45Z</time>
      </trkpt>
      <trkpt lat="43.20876" lon="5.51712">
        <ele>12.15</ele>
        <time>2012-05-26T15:59:44Z</time>
      </trkpt>
      <trkpt lat="43.20882" lon="5.51726">
        <ele>12.15</ele>
        <time>2012-05-26T15:59:54Z</time>
      </trkpt>
      <trkpt lat="43.20885" lon="5.51734">
        <ele>11.67</ele>
        <time>2012-05-26T16:00:00Z</time>
      </trkpt>
      <trkpt lat="43.20896" lon="5.51755">
        <ele>12.63</ele>
        <time>2012-05-26T16:00:15Z</time>
      </trkpt>
      <trkpt lat="43.20898" lon="5.51758">
        <ele>12.15</ele>
        <time>2012-05-26T16:00:17Z</time>
      </trkpt>
      <trkpt lat="43.20903" lon="5.51779">
        <ele>12.15</ele>
        <time>2012-05-26T16:00:31Z</time>
      </trkpt>
      <trkpt lat="43.20905" lon="5.51786">
        <ele>12.63</ele>
        <time>2012-05-26T16:00:36Z</time>
      </trkpt>
      <trkpt lat="43.20915" lon="5.51805">
        <ele>12.63</ele>
        <time>2012-05-26T16:00:51Z</time>
      </trkpt>
      <trkpt lat="43.20928" lon="5.51824">
        <ele>12.63</ele>
        <time>2012-05-26T16:01:05Z</time>
      </trkpt>
      <trkpt lat="43.20938" lon="5.5184">
        <ele>12.15</ele>
        <time>2012-05-26T16:01:17Z</time>
      </trkpt>
      <trkpt lat="43.20947" lon="5.51858">
        <ele>12.15</ele>
        <time>2012-05-26T16:01:30Z</time>
      </trkpt>
      <trkpt lat="43.2096" lon="5.51878">
        <ele>12.63</ele>
        <time>2012-05-26T16:01:46Z</time>
      </trkpt>
      <trkpt lat="43.20964" lon="5.51883">
        <ele>12.63</ele>
        <time>2012-05-26T16:01:50Z</time>
      </trkpt>
      <trkpt lat="43.20975" lon="5.51901">
        <ele>12.63</ele>
        <time>2012-05-26T16:02:05Z</time>
      </trkpt>
      <trkpt lat="43.20984" lon="5.5192">
        <ele>12.15</ele>
        <time>2012-05-26T16:02:18Z</time>
      </trkpt>
      <trkpt lat="43.20996" lon="5.51934">
        <ele>12.15</ele>
        <time>2012-05-26T16:02:31Z</time>
      </trkpt>
      <trkpt lat="43.21009" lon="5.51955">
        <ele>12.15</ele>
        <time>2012-05-26T16:02:48Z</time>
      </trkpt>
      <trkpt lat="43.21024" lon="5.51971">
        <ele>12.15</ele>
        <time>2012-05-26T16:03:05Z</time>
      </trkpt>
      <trkpt lat="43.21034" lon="5.51982">
        <ele>12.63</ele>
        <time>2012-05-26T16:03:16Z</time>
      </trkpt>
      <trkpt lat="43.21052" lon="5.52001">
        <ele>12.15</ele>
        <time>2012-05-26T16:03:34Z</time>
      </trkpt>
      <trkpt lat="43.21066" lon="5.52015">
        <ele>12.63</ele>
        <time>2012-05-26T16:03:48Z</time>
      </trkpt>
      <trkpt lat="43.21081" lon="5.5203">
        <ele>12.63</ele>
        <time>2012-05-26T16:04:05Z</time>
      </trkpt>
      <trkpt lat="43.21097" lon="5.52046">
        <ele>13.12</ele>
        <time>2012-05-26T16:04:22Z</time>
      </trkpt>
      <trkpt lat="43.21108" lon="5.52056">
        <ele>13.12</ele>
        <time>2012-05-26T16:04:31Z</time>
      </trkpt>
      <trkpt lat="43.21123" lon="5.52072">
        <ele>13.12</ele>
        <time>2012-05-26T16:04:45Z</time>
      </trkpt>
      <trkpt lat="43.21138" lon="5.52085">
        <ele>13.6</ele>
        <time>2012-05-26T16:05:00Z</time>
      </trkpt>
      <trkpt lat="43.21141" lon="5.5209">
        <ele>13.6</ele>
        <time>2012-05-26T16:05:05Z</time>
      </trkpt>
      <trkpt lat="43.21144" lon="5.52092">
        <ele>13.6</ele>
        <time>2012-05-26T16:05:08Z</time>
      </trkpt>
      <trkpt lat="43.21151" lon="5.52098">
        <ele>13.6</ele>
        <time>2012-05-26T16:05:15Z</time>
      </trkpt>
      <trkpt lat="43.21156" lon="5.52105">
        <ele>13.6</ele>
        <time>2012-05-26T16:05:21Z</time>
      </trkpt>
      <trkpt lat="43.21159" lon="5.52111">
        <ele>13.6</ele>
        <time>2012-05-26T16:05:25Z</time>
      </trkpt>
      <trkpt lat="43.21167" lon="5.52122">
        <ele>14.08</ele>
        <time>2012-05-26T16:05:32Z</time>
      </trkpt>
      <trkpt lat="43.21175" lon="5.52145">
        <ele>15.04</ele>
        <time>2012-05-26T16:05:47Z</time>
      </trkpt>
      <trkpt lat="43.21182" lon="5.5216">
        <ele>15.04</ele>
        <time>2012-05-26T16:06:00Z</time>
      </trkpt>
      <trkpt lat="43.2119" lon="5.52177">
        <ele>15.52</ele>
        <time>2012-05-26T16:06:15Z</time>
      </trkpt>
      <trkpt lat="43.21194" lon="5.52194">
        <ele>16.96</ele>
        <time>2012-05-26T16:06:32Z</time>
      </trkpt>
      <trkpt lat="43.212" lon="5.52201">
        <ele>17.44</ele>
        <time>2012-05-26T16:06:48Z</time>
      </trkpt>
      <trkpt lat="43.21196" lon="5.52207">
        <ele>17.92</ele>
        <time>2012-05-26T16:06:58Z</time>
      </trkpt>
      <trkpt lat="43.2119" lon="5.52211">
        <ele>18.4</ele>
        <time>2012-05-26T16:07:14Z</time>
      </trkpt>
      <trkpt lat="43.21186" lon="5.52212">
        <ele>18.88</ele>
        <time>2012-05-26T16:07:18Z</time>
      </trkpt>
      <trkpt lat="43.21181" lon="5.52211">
        <ele>19.36</ele>
        <time>2012-05-26T16:07:23Z</time>
      </trkpt>
      <trkpt lat="43.21171" lon="5.52204">
        <ele>20.32</ele>
        <time>2012-05-26T16:07:37Z</time>
      </trkpt>
      <trkpt lat="43.21157" lon="5.52204">
        <ele>22.73</ele>
        <time>2012-05-26T16:07:52Z</time>
      </trkpt>
      <trkpt lat="43.21156" lon="5.52206">
        <ele>23.21</ele>
        <time>2012-05-26T16:07:54Z</time>
      </trkpt>
      <trkpt lat="43.21148" lon="5.5221">
        <ele>24.17</ele>
        <time>2012-05-26T16:08:06Z</time>
      </trkpt>
      <trkpt lat="43.21146" lon="5.52215">
        <ele>24.65</ele>
        <time>2012-05-26T16:08:10Z</time>
      </trkpt>
      <trkpt lat="43.21144" lon="5.52234">
        <ele>26.57</ele>
        <time>2012-05-26T16:08:24Z</time>
      </trkpt>
      <trkpt lat="43.21143" lon="5.52253">
        <ele>28.02</ele>
        <time>2012-05-26T16:08:37Z</time>
      </trkpt>
      <trkpt lat="43.21143" lon="5.52259">
        <ele>29.46</ele>
        <time>2012-05-26T16:08:53Z</time>
      </trkpt>
    </trkseg>
  </trk>
</gpx>